GFSWCAN_prec_cloud_003.txt.gz
Cloud_Cover
100 100 100 100 100 100 100 100 100 99 100 100 100 100 100 100 100 100 100 100 100 93 93 100 95 6 7 67 100 100 100 100 100 100 97 49 97 5 5 5 4 29 30 77 76 92 74 28 93 51 91 96 33 10
100 100 100 100 100 100 100 100 100 100 100 100 100 100 100 100 100 100 100 100 100 100 100 99 100 100 100 100 100 100 100 100 100 100 100 74 97 89 25 5 5 5 7 33 78 48 99 100 100 88 100 96 65 100
100 100 100 100 100 100 100 100 100 100 100 100 100 100 100 100 100 100 100 100 100 100 100 100 100 100 100 100 100 43 16 78 8 5 6 82 100 6 98 5 11 7 13 81 24 35 100 51 99 100 89 100 16 66
100 100 100 100 100 100 100 100 100 100 100 100 100 100 100 100 100 100 100 99 82 100 100 100 100 100 100 100 100 18 47 61 44 51 98 100 100 5 77 5 52 27 5 20 84 44 71 7 79 99 57 86 95 99
100 100 100 98 100 100 100 100 99 100 100 100 100 100 100 100 100 100 100 100 91 97 89 100 100 100 100 100 86 84 78 54 95 100 100 81 5 8 70 41 97 94 5 25 52 61 51 88 84 100 100 100 98 28
100 100 90 68 96 98 100 100 100 100 100 100 99 100 100 100 100 100 100 100 100 100 100 100 100 100 100 100 99 100 100 100 100 99 88 24 49 31 100 68 100 100 55 6 60 46 32 98 99 100 99 74 6 5
39 47 67 22 9 96 93 100 100 100 100 100 100 100 100 99 100 87 84 100 100 96 100 100 70 55 100 100 100 100 100 100 100 66 94 94 68 22 100 50 100 32 100 96 84 72 26 98 100 95 80 80 21 80
10 12 84 59 100 42 78 89 100 100 100 100 100 100 100 100 99 50 76 99 96 100 100 98 89 82 100 100 100 100 100 100 100 51 69 95 75 64 100 100 55 47 37 33 12 25 74 60 46 100 80 28 25 91
98 100 52 70 60 98 99 100 97 100 100 100 100 100 100 100 100 100 100 100 100 99 81 100 100 97 99 100 100 100 100 100 99 100 100 64 100 95 100 97 40 45 28 60 60 86 98 99 65 54 92 96 100 88
32 100 100 44 71 97 84 82 97 100 100 100 100 100 100 100 100 100 100 100 100 100 100 100 100 100 100 100 100 100 100 100 100 100 100 100 100 52 91 100 100 91 50 42 94 82 72 99 100 100 100 81 13 5
100 100 100 26 70 92 100 100 100 100 100 100 100 100 100 100 100 100 100 100 100 100 100 100 100 100 100 100 100 100 100 100 100 100 100 100 74 100 100 100 100 100 97 100 99 100 100 100 100 100 76 20 5 10
5 61 100 67 81 93 38 100 100 100 100 100 100 100 100 100 100 100 100 100 100 100 100 100 100 100 100 100 100 100 100 100 100 82 100 97 90 100 100 100 99 85 91 100 90 88 100 100 93 29 11 35 80 93
31 20 100 100 100 100 71 100 100 100 100 100 100 100 100 100 100 100 100 100 100 100 100 100 100 100 100 100 100 100 100 100 100 100 69 68 89 100 100 99 96 61 56 12 55 80 100 100 100 93 84 86 59 13
5 5 12 98 100 100 100 98 100 100 100 100 100 100 100 100 100 100 100 100 100 100 100 100 100 100 100 100 100 100 100 100 100 100 91 100 99 95 99 98 100 68 43 49 99 100 100 100 78 62 97 40 12 22
5 5 5 30 100 100 100 100 100 100 100 100 100 100 100 100 100 100 100 100 100 100 100 100 100 100 100 100 100 100 100 100 98 96 100 100 100 100 100 100 98 60 76 87 72 54 81 71 74 66 89 91 95 100
5 9 36 8 99 100 100 100 100 100 100 100 100 100 100 100 100 100 100 100 100 100 100 100 100 100 100 100 100 100 100 99 100 100 100 100 100 100 100 81 32 80 99 94 98 99 100 77 53 58 88 88 100 100
5 86 8 5 79 100 100 100 98 100 100 100 100 100 100 100 100 100 100 100 100 100 100 100 100 100 100 100 100 100 100 100 100 100 100 100 100 99 67 98 100 100 100 100 77 67 82 90 100 100 100 99 99 17
75 100 6 5 50 86 100 100 100 100 100 100 100 100 100 100 100 100 100 100 100 100 100 100 100 100 100 100 100 100 98 100 100 100 100 100 100 100 100 100 100 100 85 72 98 100 100 100 100 80 50 51 5 58
94 100 71 100 98 100 100 100 99 98 84 98 100 100 100 100 100 100 100 100 100 100 100 100 100 100 100 100 100 100 100 100 100 100 100 100 100 100 93 100 100 100 100 100 100 100 100 92 9 5 5 25 38 50
60 100 100 100 100 100 100 98 100 100 97 93 99 100 100 100 100 100 100 100 100 100 100 100 100 100 100 100 100 100 100 100 100 100 100 100 100 100 100 100 100 100 100 100 100 79 8 5 5 5 20 6 12 42
100 100 100 100 100 90 99 89 90 99 80 82 98 79 100 100 100 100 100 100 100 100 100 100 100 100 100 100 100 100 100 100 100 100 100 100 100 100 100 100 96 100 100 68 9 5 5 3 5 5 91 92 100 92
100 100 100 100 100 96 78 50 96 96 99 100 96 94 99 100 100 100 100 100 97 100 100 100 100 100 100 100 100 100 100 100 99 93 91 96 96 84 58 5 5 4 4 29 5 42 36 18 6 22 90 100 95 93
100 100 100 100 100 100 98 82 80 53 90 97 94 100 100 100 96 68 96 81 23 4 4 5 10 5 5 2 2 4 4 5 20 32 19 5 5 4 5 5 5 45 30 6 5 5 5 22 94 100 100 100 87 100
100 100 100 100 100 100 93 99 67 57 76 79 83 80 57 83 71 88 65 26 3 2 3 2 4 1 4 0 0 2 3 0 0 2 5 5 5 5 5 5 4 5 5 10 16 43 59 93 100 100 100 100 100 100
100 100 100 100 100 100 100 100 100 92 100 100 100 71 77 66 77 38 26 2 8 25 29 6 1 2 3 44 7 54 24 18 5 5 5 6 5 5 5 5 4 5 5 85 100 86 100 100 100 100 100 100 100 100
100 100 100 100 100 100 100 100 100 100 100 97 95 93 90 94 74 21 19 66 99 61 78 77 41 46 45 84 53 36 24 22 20 17 5 26 50 68 68 92 97 22 47 66 100 100 99 100 100 100 100 100 100 100
100 100 100 100 100 100 100 100 100 100 100 100 90 90 81 22 5 36 67 68 98 96 92 97 88 72 70 73 79 95 100 100 100 100 100 100 100 100 100 100 100 100 98 100 100 100 100 99 100 100 100 100 100 100
100 100 100 100 100 100 100 100 92 30 24 6 43 58 6 7 52 96 98 97 94 95 90 97 100 100 96 100 100 100 100 100 99 82 67 80 99 100 100 100 100 100 100 100 100 100 100 100 100 100 100 100 100 100
100 100 100 100 100 77 19 7 5 7 6 5 34 11 74 65 100 99 99 99 100 100 97 94 98 96 98 98 100 100 100 100 100 94 100 100 99 90 100 100 100 100 100 100 100 100 100 100 100 100 100 100 100 100
100 100 80 83 22 7 82 14 70 96 15 45 66 47 17 100 100 100 100 100 99 100 100 100 100 100 100 100 100 100 100 100 100 100 100 100 100 100 100 100 100 100 100 100 100 100 100 100 100 100 100 100 100 100
100 100 100 96 85 94 100 83 79 87 96 100 100 100 100 100 100 100 100 100 100 100 100 100 100 100 100 100 100 100 99 100 100 100 100 100 100 100 100 100 100 100 100 100 100 100 100 100 100 100 100 100 100 100
100 100 100 100 100 100 97 100 100 100 100 99 97 100 100 100 100 100 100 100 100 100 100 100 100 100 100 100 100 100 100 100 100 100 100 100 100 100 100 100 100 100 100 100 100 100 100 100 100 100 100 100 100 100
100 100 100 100 98 100 90 55 51 36 61 93 99 100 100 100 100 100 100 100 100 100 100 100 100 100 100 100 100 100 100 100 100 100 100 100 100 100 100 100 100 100 100 100 100 100 100 100 100 100 100 100 100 100

GFSWCAN_prec_cloud_009.txt.gz
Cloud_Cover
100 100 100 100 100 100 100 100 100 100 100 100 100 100 100 100 100 100 100 100 100 100 100 76 80 35 13 72 90 73 47 28 85 44 43 100 82 5 5 15 67 5 35 57 40 22 25 1 4 5 27 5 5 5
100 100 100 100 100 100 100 100 100 100 100 100 100 100 100 100 100 100 100 100 100 100 100 100 100 96 85 89 93 27 7 100 69 97 99 84 85 70 100 53 73 25 19 24 90 8 5 0 5 5 8 5 6 5
100 100 100 100 100 100 100 100 100 100 100 100 100 100 100 100 99 89 100 95 100 100 100 100 100 100 100 100 100 100 100 100 100 100 100 100 100 100 100 100 100 100 100 98 55 6 3 5 5 5 5 5 5 5
100 100 100 100 100 100 100 100 100 100 100 100 100 100 100 100 100 100 88 69 84 100 100 100 100 100 100 100 100 100 100 100 100 100 100 100 100 100 100 100 100 100 100 95 5 7 4 72 5 5 5 15 99 94
100 100 100 100 100 100 100 100 100 100 100 100 100 100 100 100 100 100 87 88 92 61 77 100 99 100 100 86 100 100 100 100 100 100 100 100 91 85 95 80 100 100 100 100 51 67 100 74 16 84 79 100 70 38
100 100 100 100 100 100 100 100 100 100 100 100 100 100 100 100 100 100 98 98 100 99 100 100 60 34 47 78 100 100 100 100 100 100 100 100 100 100 100 100 100 100 100 100 79 81 100 6 50 100 100 32 32 5
100 100 100 100 100 98 100 100 100 100 100 100 100 100 100 100 100 100 100 100 100 100 99 94 88 92 93 22 99 100 100 100 100 100 98 100 100 94 100 99 100 100 100 100 100 100 58 75 100 100 94 89 66 84
100 100 100 100 100 77 86 100 100 100 100 100 100 100 100 100 99 97 100 100 100 100 100 84 96 100 100 100 100 100 100 100 100 99 99 100 100 99 100 100 100 100 100 100 100 100 97 100 97 64 99 68 89 82
100 100 100 100 100 100 100 100 100 100 100 100 100 100 100 100 100 100 100 100 100 100 100 100 100 100 100 100 100 100 100 100 100 100 100 95 100 100 100 100 100 100 100 100 100 100 100 100 99 92 73 96 64 67
100 100 100 100 100 100 100 100 100 100 100 79 94 96 100 100 100 100 100 100 100 98 83 100 100 100 100 100 100 100 100 100 100 100 100 100 100 96 100 91 100 100 99 98 100 100 100 100 100 100 100 88 100 100
100 100 100 100 100 100 100 100 100 100 100 100 100 100 99 100 100 92 100 100 100 100 100 91 99 100 100 100 100 100 100 100 100 67 97 86 87 100 100 100 100 100 100 100 100 100 100 100 99 100 100 100 100 83
100 100 100 100 96 96 100 100 100 100 100 100 100 100 100 100 100 100 100 100 100 100 100 100 100 100 100 100 100 100 100 100 100 83 100 100 100 100 100 100 100 100 100 100 100 100 100 100 100 100 100 100 100 100
100 100 100 100 100 100 99 100 100 100 100 100 100 100 100 100 100 100 100 100 100 100 100 100 100 100 100 100 100 100 100 100 100 100 100 100 100 100 98 100 100 100 100 100 100 100 100 100 100 100 100 100 99 68
100 100 100 100 100 100 100 100 99 99 99 100 100 100 100 100 100 100 100 100 100 100 100 100 100 100 100 100 100 100 100 100 100 99 82 100 100 100 98 100 100 100 100 100 100 100 100 100 100 100 100 100 100 100
100 100 100 100 100 100 100 100 100 100 100 100 100 100 100 100 100 100 100 100 100 100 100 100 100 100 100 100 100 100 100 100 100 100 100 100 100 100 100 100 100 100 100 100 100 100 100 100 100 100 100 100 100 100
100 100 100 100 100 100 100 100 100 100 100 100 100 100 100 100 100 100 100 100 100 100 100 100 100 100 100 100 100 100 100 100 100 100 100 100 100 100 100 100 100 100 100 100 100 100 100 100 100 100 100 100 100 100
100 100 100 100 100 100 100 100 100 100 100 100 100 100 100 100 100 100 100 100 100 100 100 100 100 100 100 100 100 100 100 100 100 100 100 100 100 100 100 100 100 100 100 100 100 100 100 100 100 100 100 100 100 100
49 100 85 97 96 98 6 50 61 94 96 98 100 100 100 100 100 100 100 100 100 100 100 100 100 100 100 100 100 100 100 100 100 100 100 100 100 100 100 100 100 100 98 100 99 96 98 100 100 100 100 100 100 100
87 100 97 88 96 89 95 86 78 68 70 99 100 100 100 100 100 100 100 100 95 99 92 98 95 100 100 100 100 100 100 100 100 100 100 100 100 100 100 100 100 100 100 100 100 100 100 100 100 100 100 100 100 100
18 98 90 100 84 65 60 87 62 41 97 65 94 100 100 99 100 100 100 100 100 97 100 18 22 48 100 100 100 100 100 100 100 100 100 100 100 100 100 100 100 100 100 100 100 100 100 100 100 100 81 21 74 81
84 98 100 30 100 100 75 81 99 100 39 91 100 100 100 100 100 100 100 88 100 100 83 20 50 79 94 13 98 100 100 100 100 100 100 100 100 100 100 100 100 100 100 100 100 100 95 6 5 5 89 100 99 100
99 97 97 100 100 100 81 98 95 59 76 97 100 93 88 99 100 100 94 97 97 9 19 50 87 22 6 48 5 5 0 14 63 84 75 83 98 90 81 89 85 94 98 84 26 5 5 16 78 87 100 100 100 100
66 85 100 100 94 98 100 100 100 100 81 88 100 100 94 95 100 94 95 100 77 5 6 19 36 5 19 38 9 64 1 0 2 5 5 4 5 1 0 4 5 5 6 11 48 92 76 82 84 87 43 100 100 100
97 100 100 77 100 98 100 99 96 100 100 100 100 100 100 100 55 96 98 59 84 20 23 5 6 5 5 0 35 41 31 5 5 5 5 6 43 78 46 24 6 6 59 73 37 44 80 94 98 99 100 100 100 100
99 52 53 66 100 100 94 68 97 100 100 100 100 100 53 91 81 57 13 74 100 100 100 76 8 5 84 19 58 43 13 7 55 34 5 7 5 8 30 8 27 100 100 100 88 86 77 97 98 95 54 71 98 100
100 71 100 100 100 100 70 90 89 96 100 100 96 89 52 80 76 28 89 95 100 82 89 80 68 74 18 38 44 87 93 39 5 31 50 21 94 98 98 98 100 56 50 97 100 100 100 92 93 72 93 91 97 100
100 100 100 100 100 100 100 99 100 100 100 98 100 100 91 65 21 97 99 99 97 100 100 100 100 92 92 92 86 98 96 85 56 72 27 98 100 100 100 99 96 100 60 99 100 100 100 99 96 89 99 99 91 99
100 100 100 100 100 100 100 100 100 100 100 100 99 100 100 100 100 100 100 100 100 100 100 100 100 78 95 98 100 94 32 7 5 4 59 100 92 39 12 56 95 36 6 96 100 100 100 100 100 100 100 94 99 100
100 100 100 100 100 100 100 100 100 100 100 100 100 100 100 100 100 100 98 98 100 100 97 93 99 100 100 98 95 88 53 25 5 10 45 51 37 39 70 87 96 77 92 100 86 100 100 100 99 100 100 100 100 98
100 100 100 100 100 100 100 100 100 100 100 77 54 84 98 99 100 100 98 93 99 100 100 99 96 81 64 62 50 15 96 92 66 76 99 97 100 98 81 99 100 100 100 100 100 82 100 100 100 100 98 100 100 100
100 100 100 100 100 100 100 100 100 100 100 100 88 63 84 98 99 100 97 100 83 73 55 54 83 76 64 74 94 82 50 32 59 97 99 86 98 80 45 67 60 98 100 68 94 96 100 100 100 100 100 100 100 100
100 97 100 100 100 93 100 100 100 100 100 100 95 99 99 98 93 83 78 96 80 61 67 59 79 97 40 89 100 49 100 99 57 28 91 100 98 71 41 5 42 92 98 57 91 95 100 100 100 100 100 100 100 100
80 30 49 34 68 77 80 5 5 5 51 63 100 100 100 89 93 99 93 99 46 51 61 59 51 47 100 100 74 87 67 42 6 69 100 100 100 60 10 56 95 100 87 74 94 99 92 100 100 100 100 100 100 100

GFSWCAN_prec_cloud_012.txt.gz
Cloud_Cover
100 100 100 100 100 100 100 100 100 100 100 100 100 100 100 100 100 100 100 100 100 100 100 69 72 100 86 74 17 5 5 36 86 67 83 93 98 32 57 52 83 78 85 99 99 100 100 58 11 52 8 5 5 76
100 100 100 100 100 100 100 100 100 100 100 100 100 100 100 100 100 100 100 100 100 100 100 100 100 100 98 100 100 63 28 96 89 100 84 88 100 90 100 100 100 100 100 100 100 100 100 100 99 14 5 58 100 100
100 100 100 100 100 100 100 100 100 100 100 100 100 100 100 100 100 100 100 100 100 100 100 100 100 100 100 100 100 98 100 100 100 100 100 100 100 100 100 100 100 100 100 100 95 100 100 41 95 53 42 100 98 67
100 100 100 100 100 100 100 100 100 100 100 100 100 100 100 100 100 100 100 100 100 100 100 100 100 100 100 100 100 100 100 100 100 100 100 100 100 100 100 100 100 100 100 86 5 46 5 94 61 35 9 68 96 98
100 100 100 100 100 100 100 100 100 100 100 100 100 100 100 100 100 100 100 100 100 100 100 100 100 100 100 100 100 100 100 100 100 100 100 100 100 100 100 100 100 100 100 8 5 5 5 44 10 5 50 100 100 99
100 100 100 100 100 100 100 100 100 100 100 100 100 100 100 100 100 80 95 97 95 100 100 100 91 83 45 95 96 99 99 100 100 100 100 100 100 86 100 100 100 100 100 78 71 95 100 100 100 100 100 100 88 98
100 100 100 100 100 100 100 100 100 100 100 100 100 100 100 100 100 100 100 100 100 87 89 93 77 94 100 100 100 100 98 91 85 84 100 95 100 100 100 100 100 100 100 100 100 100 100 100 100 100 100 100 100 83
100 100 100 100 100 100 100 100 100 100 100 100 100 100 100 94 91 61 92 100 100 100 100 93 89 100 100 100 100 100 100 100 98 41 82 100 92 97 100 100 100 100 100 100 100 100 100 100 100 100 100 100 100 100
100 100 100 100 100 100 100 100 100 100 100 100 100 87 71 84 88 94 100 100 97 58 94 100 100 100 100 100 100 100 100 100 92 99 93 44 100 83 100 100 88 100 100 100 100 100 100 100 100 100 100 100 100 100
100 100 100 100 100 100 100 100 100 100 100 66 72 62 98 100 100 100 98 100 100 100 100 100 100 100 100 100 100 100 100 100 100 70 100 100 100 100 100 100 100 100 100 100 95 69 62 100 100 100 100 100 99 100
100 94 95 100 100 100 100 100 100 100 100 96 94 100 98 69 51 90 96 100 97 100 100 100 100 100 100 100 100 100 100 100 100 97 100 69 100 100 100 100 100 80 100 100 100 100 100 100 100 100 100 100 100 100
100 100 100 99 100 99 100 100 100 100 100 88 87 100 100 80 96 100 97 100 100 100 100 100 100 100 100 100 100 100 100 100 100 100 100 100 100 100 100 100 100 100 100 100 100 100 100 100 100 100 100 100 100 100
100 100 100 100 81 100 100 99 100 100 100 100 100 100 100 100 100 100 100 100 100 100 100 100 100 100 100 100 100 100 100 100 100 100 100 90 100 100 100 100 100 100 100 100 100 100 100 100 100 100 100 100 100 100
100 100 100 100 91 99 100 99 100 100 100 100 100 100 100 99 100 100 100 100 100 100 100 100 100 100 100 100 100 100 100 100 100 100 92 100 100 100 100 100 100 100 100 100 100 100 100 100 100 100 100 100 100 100
100 100 100 100 100 100 100 100 100 100 100 100 100 100 100 100 100 100 100 100 100 100 100 100 100 100 100 100 100 100 100 100 100 100 100 100 100 100 100 100 100 100 100 100 100 100 100 100 100 100 100 100 100 97
100 100 100 100 100 100 100 100 88 68 100 100 100 100 100 100 100 100 100 100 100 100 100 100 100 100 100 100 100 100 100 100 100 100 100 100 100 100 100 100 100 100 100 100 100 100 100 100 100 100 100 100 100 100
100 100 100 100 100 100 100 100 100 100 100 100 100 100 100 100 100 100 100 100 100 100 100 100 100 100 100 100 100 100 100 100 100 100 100 100 100 100 100 100 100 100 100 100 100 100 100 100 100 100 100 100 100 100
100 100 100 100 100 100 100 100 100 100 100 100 100 100 100 100 100 100 100 100 100 100 100 100 100 100 100 100 100 100 100 100 100 100 100 100 100 100 100 100 100 100 100 100 100 100 100 100 100 100 100 100 100 100
100 100 100 100 100 100 100 100 100 100 100 100 100 100 100 100 100 100 100 100 100 100 100 100 100 100 100 100 96 100 100 100 100 100 100 100 100 100 100 100 100 100 100 100 100 100 100 100 100 100 100 100 100 87
71 39 94 99 100 100 100 99 70 100 88 83 100 100 100 100 100 100 100 100 100 96 98 23 21 21 74 10 9 21 12 21 17 29 62 99 74 100 82 100 100 100 100 100 100 98 100 100 92 80 56 28 92 90
5 89 69 59 89 30 100 73 95 89 100 100 100 100 100 100 100 100 100 79 100 98 70 16 49 9 5 5 5 5 5 5 5 5 2 4 2 1 3 0 0 0 4 5 7 5 6 6 5 5 94 100 100 100
72 59 90 100 94 100 94 99 100 100 100 100 100 100 99 100 100 100 94 97 48 11 19 29 44 7 60 64 64 86 33 4 0 2 5 5 5 12 26 44 7 20 14 90 100 89 68 64 59 60 100 100 99 100
54 62 100 100 92 85 42 100 100 100 98 100 100 100 100 100 99 96 100 100 97 75 27 15 71 91 98 82 59 70 50 5 21 22 17 20 46 45 8 7 16 70 100 100 93 91 74 26 60 86 87 84 82 83
92 98 98 99 99 74 73 97 99 100 100 100 100 100 100 100 100 99 60 95 96 80 75 22 34 94 93 88 99 97 46 5 6 6 31 5 5 5 5 65 90 100 95 98 79 63 14 95 10 58 96 78 74 95
100 59 92 80 92 80 31 74 98 100 100 97 99 88 71 88 50 97 66 100 100 100 94 59 30 54 100 100 97 100 80 10 44 95 45 71 90 43 7 5 46 95 71 98 99 100 99 89 100 100 100 93 88 94
98 61 90 89 79 92 65 33 83 99 100 100 100 100 100 100 91 53 99 100 100 99 94 97 98 90 99 97 98 98 98 93 85 60 86 96 96 91 100 100 93 51 41 47 100 100 100 100 100 100 100 86 90 98
96 67 97 100 100 100 100 100 100 100 100 100 99 100 100 100 100 99 100 100 100 100 100 100 100 100 100 99 99 95 49 23 59 59 94 100 98 96 76 99 100 97 61 63 100 100 100 100 100 100 100 100 100 99
100 100 100 100 100 100 100 100 100 100 100 100 100 100 100 96 100 99 99 100 100 100 100 100 100 76 99 99 95 71 99 100 84 79 100 100 97 57 16 36 49 9 10 27 100 100 100 100 100 100 100 100 100 100
100 100 100 100 100 100 100 100 100 100 100 100 100 100 100 100 100 100 100 100 100 100 98 96 86 95 99 99 90 74 20 5 5 44 98 100 75 32 99 30 46 29 6 96 78 26 88 99 100 100 100 100 100 100
100 100 100 100 100 100 100 100 100 100 100 100 100 100 100 100 100 100 100 98 91 85 99 100 100 93 100 90 86 84 99 95 46 58 100 100 100 100 82 67 5 6 86 100 100 35 10 19 89 100 100 100 100 100
100 100 100 100 100 100 100 100 100 100 100 100 100 99 100 100 98 92 88 96 92 90 97 96 100 100 98 92 88 100 92 82 95 99 87 98 97 100 93 6 5 43 98 100 91 86 98 81 84 86 100 100 100 100
100 100 100 100 93 67 92 100 95 100 100 100 98 93 99 76 97 94 100 97 41 93 100 100 100 94 99 100 100 99 99 100 99 95 95 96 73 28 6 50 60 95 94 18 6 83 92 84 71 59 79 100 100 100
46 58 50 70 82 92 60 5 38 69 100 100 100 100 100 100 97 93 100 92 32 69 86 63 58 98 81 94 47 16 32 19 90 58 71 47 44 83 13 86 89 63 38 18 49 94 82 48 39 58 69 99 100 100

GFSWCAN_prec_cloud_015.txt.gz
Cloud_Cover
100 100 100 74 74 100 100 100 100 100 100 100 100 100 100 100 100 100 100 59 39 72 98 100 100 100 100 48 5 5 5 26 33 71 83 71 51 61 99 100 100 96 56 68 98 100 100 100 100 87 100 100 68 100
100 100 100 85 100 100 100 100 100 100 100 100 100 100 100 100 100 100 100 100 80 96 100 100 100 100 99 43 96 86 79 51 5 6 34 59 100 65 87 88 100 100 100 100 100 100 100 98 16 97 89 10 58 89
100 100 100 100 100 100 100 100 100 100 100 100 100 100 100 100 99 100 100 100 100 100 100 100 100 100 100 100 98 97 81 62 41 29 49 45 36 86 100 100 100 100 100 100 100 100 100 12 94 100 63 100 38 100
100 100 100 100 100 100 100 100 100 100 100 100 100 100 100 100 100 100 100 100 100 100 100 100 100 100 100 100 100 100 100 100 100 100 100 100 100 100 100 100 100 100 100 100 87 95 5 90 100 100 100 77 100 100
100 100 100 100 100 100 100 100 100 100 100 100 100 100 100 100 100 100 100 100 100 100 100 100 100 100 100 100 100 100 100 100 100 100 100 100 67 78 92 97 100 100 100 13 5 5 8 96 100 98 76 100 84 77
100 100 100 100 100 100 100 100 100 100 100 100 100 100 100 100 100 100 100 100 100 100 100 100 100 100 100 100 100 100 100 100 100 100 100 76 100 59 100 100 100 100 67 5 5 65 97 87 54 54 80 98 100 100
100 100 100 100 100 100 100 100 100 100 100 100 100 100 100 100 100 100 100 100 100 100 100 100 100 100 100 100 100 100 100 100 99 100 99 94 100 51 98 100 100 100 100 98 72 68 58 100 82 100 100 100 100 100
100 100 100 100 100 100 100 100 100 100 100 100 100 100 100 100 100 100 100 100 100 100 100 85 97 100 100 100 100 100 100 86 74 67 100 100 96 99 100 100 100 100 100 100 100 100 100 100 100 100 100 100 100 100
100 100 100 100 100 100 100 100 100 100 100 100 100 100 100 100 100 100 100 100 100 100 100 100 100 100 100 100 100 100 100 100 100 100 100 73 100 100 100 100 100 100 100 100 100 100 100 100 100 100 100 100 99 100
100 100 100 100 100 100 100 100 100 100 100 100 100 100 98 100 93 58 59 18 88 81 94 100 91 78 100 100 100 100 100 100 99 69 100 100 100 99 100 100 100 100 100 100 100 100 100 100 100 92 100 100 100 100
100 100 100 100 100 100 100 100 100 100 100 100 100 100 100 100 100 100 100 100 100 100 100 100 100 100 100 100 100 100 100 100 100 84 100 99 99 100 100 100 100 100 100 98 85 79 100 100 100 100 100 100 100 100
100 100 100 100 100 100 100 100 100 100 100 100 100 100 100 100 100 89 98 98 100 100 100 100 100 100 100 100 100 100 100 100 100 100 100 100 97 98 94 88 96 100 100 100 100 100 100 100 100 100 100 100 100 100
100 100 100 100 100 100 100 100 100 100 100 100 100 100 99 70 89 97 100 100 100 100 100 100 100 100 100 100 100 100 100 100 96 100 100 100 100 100 100 100 100 100 100 100 100 100 100 100 100 100 100 100 100 100
99 100 100 100 100 100 100 100 100 100 100 100 100 100 100 100 100 100 100 100 100 100 100 100 100 100 100 100 100 100 100 100 100 98 98 100 100 100 100 100 100 100 100 100 100 100 100 100 100 100 100 100 100 100
99 79 90 100 100 100 100 100 100 100 100 100 86 93 95 100 100 100 100 100 100 100 100 100 100 100 100 100 100 100 100 97 80 85 100 100 100 100 100 100 100 100 100 100 100 100 100 100 100 100 100 100 100 100
100 100 97 100 95 67 74 93 91 97 100 97 99 100 100 100 100 100 100 100 100 100 100 100 100 100 100 100 100 100 100 99 82 100 100 100 100 100 100 100 83 100 100 99 100 100 100 100 100 100 100 100 100 100
100 100 100 100 100 100 100 100 84 26 84 100 100 100 96 87 100 100 100 100 100 100 100 100 97 100 100 100 100 100 100 100 100 100 100 100 100 100 100 100 100 100 100 100 100 100 100 100 100 100 100 100 100 100
100 100 100 100 100 100 100 100 100 93 100 98 100 100 100 100 100 100 100 100 75 97 82 96 98 99 99 100 100 100 100 100 100 100 100 100 100 100 100 100 100 100 100 100 100 100 100 100 100 100 100 100 94 82
100 100 100 100 100 100 100 100 100 100 100 100 100 100 100 100 100 100 100 100 100 100 100 100 100 100 100 100 100 100 100 100 100 100 100 70 94 79 98 100 99 76 90 69 47 21 17 4 5 5 5 5 8 7
100 100 100 100 100 100 100 100 100 100 100 100 100 100 100 100 100 100 100 100 100 100 100 100 100 100 98 12 6 16 19 9 7 8 5 5 5 5 2 1 4 4 5 5 13 17 16 6 6 15 27 91 100 100
100 100 100 100 100 100 100 100 100 100 100 100 100 100 100 100 100 100 100 100 88 96 96 100 87 22 10 14 15 8 5 5 5 5 5 5 8 10 22 6 5 5 23 89 100 100 100 97 82 100 100 100 100 100
100 100 100 98 99 100 95 100 93 97 99 100 100 100 100 100 100 100 100 100 96 89 66 30 27 59 94 98 94 87 36 5 5 12 18 31 63 10 13 68 62 93 99 92 100 100 99 91 92 30 83 90 88 72
47 99 79 90 76 62 48 98 94 96 96 100 100 100 100 100 100 95 99 100 99 69 63 81 88 93 100 100 100 96 97 58 49 43 19 39 10 56 90 100 99 94 91 71 96 100 86 49 21 72 85 96 97 95
23 25 95 95 93 73 86 79 85 62 62 96 99 100 100 100 100 98 100 99 99 100 100 98 98 100 99 100 98 99 24 5 47 88 64 47 87 100 100 99 100 99 66 25 70 94 32 66 40 91 93 100 89 99
19 32 92 77 85 100 100 93 96 94 77 81 100 99 84 100 100 100 98 100 100 100 100 100 100 86 98 100 100 89 8 31 69 97 100 100 100 96 14 10 68 98 57 75 89 100 100 76 84 100 100 98 100 100
93 70 90 85 98 100 88 97 98 64 100 100 100 100 88 99 100 97 99 100 100 100 100 100 100 100 100 100 100 100 100 100 100 96 100 23 5 46 78 82 72 24 56 78 100 100 100 100 100 100 100 85 96 100
70 44 63 90 92 100 98 100 100 97 99 100 100 99 100 100 100 100 100 100 100 100 100 100 100 100 100 100 98 96 98 100 87 90 70 69 60 12 11 54 66 22 28 32 91 100 100 100 100 100 100 88 100 100
87 81 79 81 86 100 96 98 99 100 100 100 100 100 100 100 98 100 100 100 100 100 100 100 100 97 74 81 85 90 92 61 93 94 100 22 33 79 34 38 21 26 14 9 80 99 100 100 100 100 100 100 100 93
76 96 100 100 96 94 99 100 100 100 100 100 100 100 100 100 100 100 100 100 100 100 100 96 100 79 99 100 100 99 96 25 5 11 72 100 91 54 98 31 50 5 47 87 74 65 96 98 100 100 100 99 92 78
92 90 75 70 83 99 99 100 100 100 100 100 100 100 100 100 100 100 100 100 100 100 100 99 100 94 100 95 100 91 98 83 40 66 100 100 100 99 93 20 63 92 100 99 94 7 56 39 60 36 19 53 77 84
100 100 100 99 100 100 100 100 100 100 100 100 100 100 100 100 100 100 100 97 92 90 96 93 99 100 84 100 100 100 90 35 88 99 100 100 100 100 78 59 79 100 100 70 34 78 98 92 72 58 49 35 17 58
100 100 100 89 99 84 42 67 98 97 100 100 98 100 88 80 96 100 100 100 99 90 100 100 100 100 97 86 77 67 57 82 100 100 100 100 92 96 75 67 100 98 53 13 41 90 94 99 74 98 99 77 58 60
68 90 72 92 94 66 82 25 36 53 98 100 99 100 100 94 89 100 100 85 18 67 49 47 69 100 88 54 6 5 57 63 95 100 100 100 96 98 76 97 100 93 26 58 55 88 100 95 88 74 64 73 56 57

GFSWCAN_prec_cloud_018.txt.gz
Cloud_Cover
100 100 100 100 100 100 93 100 100 100 100 100 100 100 100 100 100 78 29 66 100 100 98 98 90 95 100 42 5 6 38 65 92 99 99 88 21 29 99 100 75 35 65 27 58 27 94 43 100 100 76 43 99 100
100 100 100 100 100 100 100 100 100 100 100 100 100 100 100 100 100 100 33 72 94 100 88 100 100 92 82 43 22 8 35 17 11 36 63 89 94 99 75 59 21 5 5 5 90 100 86 98 100 42 100 100 98 98
100 100 100 100 100 100 100 100 100 100 100 100 100 100 100 100 100 100 100 88 62 84 72 92 100 100 100 100 74 43 89 74 8 63 80 90 95 96 100 100 96 99 100 100 100 100 100 64 40 100 98 68 54 84
100 100 100 100 100 100 100 100 100 100 100 100 100 100 100 100 100 100 100 93 84 84 91 100 100 100 100 100 100 100 100 96 96 99 100 100 100 100 100 100 100 100 100 100 70 93 5 97 100 99 46 13 60 100
100 100 100 100 100 100 100 100 100 100 100 100 100 100 100 100 100 100 100 100 100 100 100 100 100 100 100 100 100 100 100 100 100 100 100 100 100 99 97 89 100 100 100 25 2 5 5 86 94 54 55 100 100 100
100 100 100 100 100 100 100 100 100 100 100 100 100 100 100 100 100 100 100 100 100 100 100 100 100 100 100 100 100 100 100 100 100 100 100 100 100 99 100 100 100 100 17 5 5 5 5 17 46 64 59 55 73 53
100 100 100 100 100 100 100 100 100 100 100 100 100 100 100 100 100 100 100 100 100 100 100 100 100 100 100 100 100 100 100 100 100 100 100 99 99 18 68 94 100 38 22 74 18 5 26 49 9 17 66 91 98 100
100 100 100 100 100 100 100 100 100 100 100 100 100 100 100 100 100 100 100 100 100 100 100 100 100 100 100 100 100 100 100 100 100 100 100 100 100 94 100 100 100 100 100 86 40 21 14 59 97 100 100 100 100 100
100 100 100 100 100 100 100 100 100 100 100 100 100 100 100 100 100 100 100 100 100 83 72 100 100 100 100 100 100 100 100 100 100 100 100 99 100 100 92 100 100 100 95 90 100 100 100 96 100 100 100 100 100 100
100 100 100 100 100 100 100 100 100 100 100 100 100 100 100 100 100 100 100 100 100 100 100 100 100 100 100 100 100 100 100 89 99 99 100 100 100 100 100 100 100 100 100 100 78 72 39 56 59 71 100 100 100 100
100 100 100 100 100 100 100 100 100 100 100 100 100 100 100 100 99 94 84 96 100 100 100 100 100 100 100 100 100 100 99 100 100 75 100 99 100 100 100 100 100 100 97 82 39 38 99 100 100 100 100 100 100 100
100 100 100 100 100 100 100 100 100 100 100 75 98 100 100 99 86 78 100 100 98 100 100 100 100 100 100 100 100 100 99 98 100 98 100 100 100 100 100 100 100 100 100 100 100 100 100 100 100 100 100 100 100 100
100 100 100 100 100 100 100 100 100 100 100 100 100 100 100 100 100 93 100 100 100 100 100 100 100 100 100 100 100 100 100 100 100 100 100 100 100 100 100 100 100 100 100 100 100 100 100 100 100 100 100 100 100 100
100 100 100 100 100 100 100 100 100 100 100 100 100 100 100 100 100 100 100 100 100 100 100 100 100 100 100 100 100 100 100 100 100 100 100 100 100 100 100 100 100 100 100 100 100 100 100 100 100 100 100 100 100 100
100 100 100 100 100 100 100 100 100 100 100 100 100 100 100 100 100 100 100 100 100 100 100 100 100 100 100 100 100 100 97 92 100 97 100 100 100 100 100 76 65 66 87 99 100 100 100 100 100 100 100 100 100 100
100 100 98 100 100 100 100 100 100 100 100 100 98 100 100 100 100 100 100 100 100 100 100 100 100 100 100 100 96 99 100 95 97 100 100 100 100 100 100 90 96 97 96 86 93 91 98 100 100 100 100 100 100 100
100 100 100 100 100 100 100 100 100 100 100 100 100 100 100 99 100 100 100 100 100 100 100 99 94 100 87 100 100 100 100 100 100 100 100 100 100 100 100 100 100 100 100 100 100 100 100 100 100 100 100 100 100 100
100 100 100 100 100 98 98 100 100 90 100 98 100 100 100 100 100 100 100 100 98 100 100 96 95 99 100 100 100 100 100 100 100 100 100 100 100 100 100 100 100 100 88 55 82 78 77 27 41 40 18 13 7 7
100 100 100 100 100 100 100 75 98 95 98 100 100 100 100 100 100 100 100 100 84 62 56 93 78 79 49 68 82 96 100 99 100 100 100 95 79 10 58 99 99 8 8 26 54 78 42 13 71 95 100 100 100 100
100 100 100 100 100 100 100 100 100 96 99 98 100 100 100 100 100 100 100 100 66 17 60 82 93 100 100 85 70 100 99 57 37 74 66 11 11 29 63 9 19 10 64 100 89 98 100 87 100 99 58 24 68 78
100 100 100 100 100 100 100 100 100 100 100 100 100 100 100 100 100 100 100 100 100 100 100 94 100 100 98 98 100 100 59 20 35 8 52 97 100 95 20 38 47 84 79 68 72 92 98 94 90 80 61 74 80 99
100 100 100 100 100 100 100 100 100 100 100 100 85 100 100 100 100 100 100 100 100 100 98 80 72 99 96 94 94 93 85 49 56 42 15 6 31 60 100 100 97 78 72 90 100 100 72 67 30 5 75 80 86 96
90 99 100 100 100 100 100 100 98 81 82 100 100 100 100 100 100 100 100 100 100 100 94 100 100 100 100 100 100 100 97 88 83 51 71 86 100 100 100 94 60 67 68 8 39 82 92 48 40 60 64 63 70 75
12 42 97 96 68 93 70 95 100 89 81 62 83 100 100 96 86 91 99 100 100 100 100 100 100 100 100 100 100 97 99 100 96 88 86 68 94 100 97 100 98 68 41 19 5 19 30 59 50 56 65 83 87 100
5 59 32 98 79 33 100 100 92 100 98 92 81 85 64 41 87 96 99 100 100 100 100 100 100 100 100 100 100 100 94 88 87 96 97 100 100 99 55 61 69 67 42 88 97 97 79 60 58 59 64 77 100 100
49 89 89 94 82 97 89 73 95 86 92 95 75 84 97 94 81 97 93 100 100 100 100 100 100 97 100 100 100 100 100 100 100 100 99 92 90 100 92 48 30 8 32 94 100 100 100 88 99 91 90 71 91 93
91 60 80 98 89 74 87 74 70 95 100 100 99 100 100 100 100 100 100 100 100 100 100 100 100 100 100 100 100 100 100 100 98 97 100 99 91 10 5 44 87 5 38 53 98 100 100 100 100 99 100 67 100 100
72 81 84 98 96 89 96 80 95 100 100 100 100 100 100 100 100 100 100 100 100 100 100 100 100 100 100 100 100 100 100 100 100 95 70 65 96 76 23 10 21 87 67 48 100 100 100 100 100 100 100 100 99 84
88 79 85 94 99 94 80 85 98 100 100 100 100 100 100 100 100 100 100 100 100 100 100 100 100 100 100 100 100 83 77 37 5 5 41 100 91 36 81 31 43 37 79 100 95 77 92 98 98 96 34 75 63 70
99 99 91 88 77 81 87 80 74 90 98 98 100 100 100 100 100 100 100 100 100 100 100 98 96 93 94 86 100 81 90 99 44 27 100 100 100 99 100 95 94 98 100 100 60 37 91 48 91 44 14 16 5 41
100 100 100 99 100 98 97 84 100 100 100 100 100 99 98 98 98 96 100 99 99 98 92 98 100 100 98 100 100 100 66 27 99 100 100 99 100 100 100 99 90 100 98 58 62 100 100 100 100 86 57 16 44 56
97 81 94 88 97 90 90 88 74 93 100 100 100 96 93 94 93 99 93 99 82 44 99 100 100 99 91 89 99 96 23 90 100 100 100 100 100 100 100 90 100 100 73 55 49 72 100 100 84 92 100 95 73 90
89 97 89 99 96 90 82 59 23 70 100 100 100 100 100 98 87 95 99 94 97 96 72 55 64 99 99 63 81 68 53 84 99 100 100 100 100 100 94 98 100 100 95 90 69 96 100 97 96 97 78 98 80 91

GFSWCAN_prec_cloud_021.txt.gz
Cloud_Cover
100 100 100 100 100 100 100 100 100 100 100 100 100 100 100 100 100 100 100 46 58 24 5 5 70 65 25 16 8 13 5 5 5 16 56 9 54 79 100 75 38 8 28 18 21 10 5 5 22 79 76 95 66 9
100 100 100 100 100 100 100 100 100 100 100 100 100 100 100 100 100 100 96 96 100 5 52 52 68 6 5 5 34 5 5 9 31 5 5 5 61 88 49 94 99 99 88 16 54 10 1 5 5 56 100 100 18 5
100 100 100 100 100 100 100 100 100 100 100 100 100 100 100 100 100 100 100 50 61 54 31 74 87 13 25 30 30 6 25 9 5 7 20 62 11 46 76 56 88 98 23 73 24 99 97 100 100 77 5 5 5 5
100 100 100 100 100 100 100 100 100 100 100 100 100 100 100 100 100 100 100 86 39 6 62 97 82 63 67 43 42 70 56 22 34 76 99 68 17 66 82 73 100 100 100 100 100 100 98 86 35 5 5 7 10 5
100 100 100 100 100 100 100 100 100 100 100 100 100 100 100 100 100 100 100 98 49 14 41 100 44 64 96 100 100 100 100 100 100 100 100 100 100 96 100 100 100 100 100 100 65 48 5 8 8 19 26 40 26 22
100 100 100 100 100 100 100 100 100 100 100 100 100 100 100 100 100 100 100 100 97 82 71 89 88 80 98 100 100 100 100 100 100 100 100 97 98 45 74 68 100 100 100 45 5 5 5 5 5 5 5 6 75 70
100 100 100 100 100 100 100 100 100 100 100 100 100 100 100 100 100 100 100 100 100 85 47 60 77 85 99 96 100 100 86 63 55 99 100 100 100 100 100 100 100 100 99 27 5 5 5 5 6 19 30 40 47 46
100 100 100 100 100 100 100 100 100 100 100 100 100 100 100 100 100 100 100 100 79 53 82 97 100 100 100 100 100 100 100 100 100 100 100 100 100 100 100 100 100 100 100 96 10 5 5 5 5 8 8 38 69 98
100 100 100 100 100 100 100 100 100 100 100 100 100 100 100 100 100 100 100 100 100 100 100 100 100 100 100 100 100 100 100 100 100 100 100 100 100 100 100 100 100 100 100 100 88 59 43 32 36 58 98 100 100 100
100 100 100 100 100 100 100 100 100 100 100 100 100 100 100 100 100 100 100 100 100 100 100 100 100 100 100 100 100 100 100 100 100 100 100 100 100 100 100 100 100 100 100 80 72 77 97 100 100 100 100 100 100 100
100 100 100 100 100 100 100 100 100 100 100 100 100 100 100 100 100 100 100 100 100 100 100 100 100 100 100 100 100 100 100 99 92 75 100 100 100 100 100 100 100 100 100 100 100 100 100 100 100 100 100 100 99 100
100 100 100 100 100 100 100 100 100 100 100 100 100 100 100 95 73 82 97 98 100 100 100 100 100 100 100 100 99 97 93 98 91 82 100 100 100 100 100 100 100 100 100 100 100 100 100 100 100 100 100 100 100 100
100 100 100 100 100 100 100 100 100 100 100 100 100 100 100 100 88 64 98 100 100 100 100 100 100 100 100 100 100 100 100 100 95 100 100 100 100 100 100 100 100 100 100 99 92 97 97 89 90 91 89 97 100 100
100 100 100 100 100 100 100 100 100 100 100 100 100 99 76 87 94 100 100 100 100 100 100 100 100 100 100 100 100 100 100 100 100 100 100 100 100 100 100 100 100 100 100 100 98 100 100 99 100 100 100 100 100 100
100 100 100 100 100 100 100 100 100 100 100 100 100 94 91 100 100 100 100 100 100 100 100 100 100 100 100 100 100 100 100 98 99 87 100 100 100 100 98 97 71 92 100 96 81 84 96 100 100 100 100 100 100 100
100 100 100 100 100 100 100 100 100 100 100 100 100 100 100 100 100 100 100 100 100 100 100 100 100 100 100 100 100 100 100 100 98 100 100 100 100 100 100 100 99 84 82 86 94 99 94 99 100 100 100 100 67 5
100 100 100 100 100 100 100 100 100 100 100 100 100 100 100 100 100 100 100 100 100 100 100 100 100 100 88 92 99 99 97 98 98 100 100 100 100 100 100 97 98 94 99 89 62 57 32 8 5 8 25 31 23 27
100 100 100 100 100 100 100 100 100 100 100 100 100 100 100 100 100 100 100 100 100 100 100 99 96 91 100 99 96 96 100 100 100 100 100 100 100 100 96 54 26 20 38 46 48 54 39 21 67 79 80 51 49 6
100 100 100 100 100 100 100 100 100 100 100 100 100 100 100 100 100 100 100 100 90 71 78 72 68 60 71 16 32 100 100 93 75 95 100 99 88 92 34 31 63 79 100 84 67 80 87 92 89 93 6 5 55 37
100 100 100 100 100 100 100 100 92 100 100 100 100 100 100 100 100 100 100 100 69 9 8 5 10 12 5 5 5 23 96 74 97 99 100 97 54 35 93 99 95 64 8 7 32 5 7 13 58 70 20 17 70 63
100 100 100 100 100 100 100 100 100 100 100 100 100 100 100 100 100 100 100 100 94 96 99 100 99 72 60 50 9 9 46 40 69 89 85 100 94 100 100 94 82 5 5 69 76 66 37 66 62 10 42 69 71 88
100 100 100 100 100 100 100 100 100 100 92 92 69 96 86 96 100 98 100 100 100 100 100 100 100 100 100 100 100 99 100 100 100 100 100 100 98 99 95 32 9 35 32 41 64 78 37 71 62 39 60 70 85 91
100 100 100 100 100 97 100 100 100 100 100 98 99 92 90 99 99 96 100 100 100 100 100 100 100 100 100 100 100 88 99 100 100 100 100 100 100 100 97 89 77 89 71 53 5 20 16 37 44 67 82 84 94 96
4 11 22 87 99 98 64 93 100 100 68 86 88 80 69 53 72 100 100 100 100 100 100 100 100 100 100 100 100 100 100 100 100 100 100 100 100 100 100 100 99 96 66 54 19 40 30 56 50 64 73 92 99 100
6 59 45 79 30 77 100 100 96 100 98 84 97 91 86 66 87 91 100 100 100 100 100 100 100 100 100 100 100 100 100 100 100 100 100 100 100 100 100 100 90 73 77 78 83 91 72 70 72 85 88 99 100 100
58 97 93 100 97 93 97 93 98 92 94 97 99 95 99 99 100 99 100 100 100 100 100 100 100 100 100 100 100 100 100 100 100 100 100 100 100 100 100 96 56 14 61 99 100 100 98 94 100 95 86 80 90 99
77 97 95 100 100 87 51 95 98 98 100 100 100 97 88 88 96 99 100 100 100 100 100 100 100 100 100 100 100 100 100 100 100 100 99 100 100 100 92 72 39 25 98 94 100 100 100 100 100 100 100 96 100 100
100 100 94 78 57 90 90 79 74 84 72 70 79 62 54 74 81 100 100 100 100 100 100 100 100 100 100 100 100 100 100 100 100 100 100 100 88 87 43 20 13 100 85 72 95 100 95 100 100 100 100 99 100 100
82 76 50 77 67 70 91 100 100 99 96 88 98 89 94 100 96 94 94 100 100 100 100 100 100 100 100 100 100 100 100 98 96 58 14 7 11 19 11 68 58 59 94 94 58 75 100 100 99 78 16 60 59 24
27 88 68 99 95 96 91 92 86 91 89 90 100 100 97 95 93 97 93 93 95 99 100 100 100 90 94 52 93 24 78 94 42 9 62 89 75 94 91 100 100 89 100 84 9 11 82 48 50 6 5 5 37 56
92 74 89 84 78 96 91 96 98 100 88 98 89 90 93 98 98 94 100 100 99 98 97 84 50 97 68 99 99 62 29 25 99 100 100 98 100 100 100 100 100 100 100 77 36 80 100 70 75 71 54 38 12 57
67 92 94 64 92 81 64 96 92 93 94 100 100 100 100 98 95 99 94 96 100 80 92 100 91 87 98 97 100 94 68 94 100 100 100 100 100 100 100 98 100 100 100 94 72 61 99 95 82 71 74 67 66 70
99 100 100 93 99 96 88 68 54 68 100 100 100 100 100 99 89 96 98 100 100 100 100 95 84 95 100 96 7 8 70 68 98 100 100 100 100 100 100 100 92 86 98 100 97 82 65 82 65 71 74 83 58 48

GFSWCAN_prec_cloud_024.txt.gz
Cloud_Cover
100 100 100 100 100 100 100 100 100 100 100 100 100 100 100 73 23 12 5 56 98 93 100 100 23 84 62 95 90 84 55 49 38 55 67 42 38 28 10 5 5 12 6 48 6 64 43 5 19 79 55 72 93 62
100 100 100 100 100 100 100 100 100 100 100 100 100 100 100 100 100 39 43 100 100 100 100 100 72 93 21 97 47 15 29 78 74 100 100 32 97 77 6 13 5 11 7 5 24 24 5 5 10 32 38 96 100 77
100 100 100 100 100 100 100 100 100 100 100 100 100 100 100 100 76 5 87 100 100 100 100 79 49 26 5 46 99 45 71 97 54 6 13 71 100 76 86 69 73 52 5 5 5 22 5 12 98 98 83 9 5 5
100 100 100 100 100 100 100 100 100 100 100 100 100 100 100 100 100 100 100 100 100 100 100 61 65 12 5 5 71 69 100 69 9 6 22 66 88 48 25 10 94 33 5 5 38 98 100 100 58 5 5 5 5 5
100 100 100 100 100 100 100 100 100 100 100 100 100 100 100 100 100 100 100 100 100 100 73 27 47 60 42 11 55 89 85 5 9 21 68 66 59 68 80 97 100 100 100 100 97 57 65 95 100 72 18 30 60 71
100 100 100 100 100 100 100 100 100 100 100 100 100 100 100 100 100 100 100 100 98 92 79 82 43 100 98 93 75 53 44 28 7 41 74 98 100 100 100 100 100 100 100 45 99 96 11 5 5 5 5 18 13 21
100 100 100 100 100 100 100 100 100 100 97 100 100 100 100 100 100 100 100 100 94 95 91 87 32 97 95 46 57 71 99 100 100 100 100 100 100 92 78 82 100 100 100 100 100 10 6 6 5 5 5 6 18 44
100 100 100 100 100 100 100 100 100 100 100 100 100 100 100 100 100 100 100 100 100 100 81 78 79 40 40 99 99 91 100 83 98 99 93 95 78 88 92 100 100 100 100 99 11 5 17 12 25 31 77 97 100 100
100 100 100 100 100 100 100 100 100 100 100 100 100 100 100 100 100 100 100 100 100 100 98 100 100 100 90 87 93 93 85 100 70 98 97 89 100 100 100 100 100 100 100 68 83 39 52 70 96 100 100 100 100 100
100 100 100 100 100 100 100 100 100 100 100 100 100 100 100 100 100 100 100 100 100 100 100 100 100 100 79 100 100 100 100 95 99 98 100 100 100 100 100 100 100 100 59 75 100 100 100 100 100 100 100 100 100 99
100 100 100 100 100 100 100 100 100 100 100 100 100 100 100 100 100 100 100 100 100 100 100 100 100 100 100 99 100 99 100 100 96 100 100 100 100 100 100 100 100 100 100 100 100 100 100 100 100 100 100 67 66 65
100 100 100 100 100 100 100 100 100 100 100 100 100 100 100 100 100 88 100 100 100 100 100 100 100 100 100 100 100 100 100 95 90 100 100 100 100 100 100 100 100 100 100 100 100 100 100 100 100 100 86 67 78 86
100 100 100 100 100 100 100 100 100 100 100 100 100 100 88 95 100 100 100 100 100 100 100 100 100 100 100 100 100 100 100 100 52 100 100 100 100 100 100 100 100 100 100 100 100 100 100 100 63 55 93 100 90 80
100 100 100 100 100 100 100 100 100 100 100 100 100 100 100 97 100 100 100 100 100 100 100 100 100 99 100 98 100 100 100 100 100 100 100 100 100 100 100 100 100 100 100 100 100 97 64 93 96 64 35 53 85 88
100 100 100 100 100 100 100 100 100 100 100 100 98 100 100 100 100 100 100 100 100 100 100 100 100 100 100 100 100 100 100 100 92 100 100 100 100 100 100 89 97 100 100 100 64 36 20 36 71 67 35 5 5 7
100 100 100 100 100 100 100 100 100 100 100 100 100 100 100 100 100 100 100 100 100 100 100 100 100 100 100 100 100 100 100 100 100 98 100 100 100 100 93 91 89 74 74 24 43 14 11 15 6 23 16 5 5 10
100 100 100 100 100 100 100 100 100 100 100 100 100 100 100 100 100 100 100 100 100 100 100 100 100 100 100 100 100 100 100 98 99 100 100 100 100 100 96 98 92 91 84 20 19 13 17 7 5 5 0 0 0 4
100 100 100 100 100 100 100 100 100 100 100 100 100 100 100 100 100 100 100 100 100 100 100 100 100 100 100 100 99 100 100 100 100 100 100 100 100 100 100 73 8 23 56 70 41 7 5 5 5 5 1 0 0 5
100 100 100 100 100 100 100 100 100 100 100 100 100 100 100 100 100 100 100 100 100 100 100 100 100 100 100 94 99 100 100 100 100 100 100 100 100 100 100 73 100 84 33 5 5 5 5 5 5 5 5 5 5 4
100 100 100 100 100 100 100 100 100 100 100 100 100 100 100 100 100 100 100 100 94 81 59 49 85 91 77 57 68 99 100 100 63 88 86 100 100 100 80 82 83 86 73 5 5 5 5 5 5 5 5 5 5 5
100 100 100 99 99 99 100 100 100 100 100 100 100 100 100 100 100 100 100 100 83 82 96 97 100 100 99 80 75 91 82 90 97 100 99 85 94 97 80 96 100 62 63 66 66 84 92 74 68 23 12 54 72 96
100 100 100 99 95 99 98 85 98 99 94 98 84 96 89 91 97 95 96 84 98 100 100 100 100 100 100 98 99 98 99 100 94 89 91 92 99 100 100 97 89 93 100 100 100 100 99 87 70 5 70 87 69 100
100 100 100 100 100 100 100 100 91 100 62 91 97 100 97 95 72 66 97 100 100 100 100 100 100 100 100 100 100 98 99 99 100 100 100 100 100 100 100 100 100 100 100 100 100 100 100 60 46 71 95 97 100 100
100 100 100 100 100 100 100 100 100 100 100 98 100 100 99 100 98 100 100 100 100 100 100 100 100 100 100 100 100 100 100 100 100 100 100 100 100 100 100 100 100 100 100 100 100 100 100 95 54 92 100 100 100 100
7 62 49 99 100 100 100 100 100 100 100 100 100 100 98 83 97 97 100 100 100 99 100 100 100 100 100 100 100 100 100 100 100 100 100 100 100 100 100 100 100 100 100 99 76 83 89 96 100 100 100 100 100 100
84 97 74 95 95 79 99 94 96 99 100 99 95 97 98 99 96 97 98 100 100 100 100 100 100 100 100 100 100 100 100 100 100 100 100 100 100 100 100 100 100 90 100 100 100 92 86 96 100 100 100 100 100 100
98 100 97 100 100 93 87 87 79 90 97 98 92 97 96 97 100 97 100 100 100 100 100 100 100 100 100 100 100 100 100 100 100 100 100 100 100 98 60 48 86 100 100 100 100 100 100 100 100 100 100 100 100 100
100 94 94 94 85 79 76 84 93 100 100 90 100 100 100 100 99 100 100 100 100 100 100 100 100 100 100 100 100 100 100 100 100 100 100 96 100 100 100 100 83 64 73 100 94 100 100 100 100 100 100 100 100 100
80 80 70 14 66 71 80 89 96 98 93 90 100 99 100 100 100 100 100 100 100 100 100 100 100 100 99 92 86 87 85 84 92 80 59 31 30 92 100 100 100 100 100 100 85 100 100 100 100 100 100 100 100 100
79 96 38 65 86 92 96 95 97 98 87 98 94 99 100 100 100 100 100 100 100 100 100 100 100 99 97 92 94 97 100 93 79 40 5 14 82 100 100 100 100 100 100 100 100 100 89 93 100 100 97 100 100 100
82 83 88 92 88 97 99 100 97 100 100 100 100 100 99 100 100 100 100 100 100 100 100 94 77 91 72 39 25 38 59 91 86 92 99 100 100 100 100 100 100 100 100 100 100 100 99 98 100 100 100 100 100 98
52 84 86 44 97 95 87 98 89 100 100 100 100 100 100 100 100 100 100 100 100 100 100 97 97 100 100 93 63 64 75 81 100 100 100 100 100 100 100 100 100 100 100 100 100 100 100 100 100 100 100 100 100 96
98 95 87 97 98 96 98 49 39 84 100 100 100 100 100 100 100 100 100 100 100 100 100 94 90 98 86 66 42 71 73 98 88 94 100 100 100 100 100 100 100 100 100 100 100 100 100 100 100 100 100 95 78 68

GFSWCAN_prec_cloud_027.txt.gz
Cloud_Cover
100 100 99 100 100 100 100 100 100 100 100 100 100 100 96 100 99 82 97 8 95 100 100 100 100 100 100 100 45 39 5 16 64 29 27 5 37 5 5 4 5 5 11 50 27 63 63 11 36 33 6 5 19 5
100 100 100 100 100 100 100 100 100 100 100 100 100 100 100 100 100 86 98 1 63 100 100 100 100 100 100 99 14 19 6 51 10 40 47 10 91 68 5 5 5 5 7 7 5 5 7 7 5 5 68 8 29 32
100 100 100 100 100 100 100 100 100 100 100 100 100 100 100 99 97 45 97 9 88 75 100 100 100 100 100 97 69 13 34 100 66 78 18 8 96 100 90 50 8 5 5 5 7 60 5 5 4 5 5 12 36 13
100 100 100 100 100 100 100 100 100 100 100 100 82 100 100 76 50 100 100 5 8 97 100 98 100 100 100 90 23 53 90 100 100 100 100 91 100 100 99 17 24 5 5 5 52 8 5 5 40 99 24 5 89 76
100 100 100 100 100 100 100 100 100 100 100 100 100 91 84 100 100 100 100 18 6 28 64 100 100 100 100 53 32 51 100 100 100 100 100 100 100 88 83 6 8 39 5 5 5 83 100 100 57 5 15 95 11 5
100 100 100 100 100 100 100 100 100 100 100 100 100 99 100 100 100 100 11 6 68 38 100 61 68 100 100 5 41 42 20 100 100 100 100 100 100 62 84 43 39 59 77 99 100 100 90 61 5 45 78 81 37 61
100 100 100 100 100 100 100 100 100 100 100 100 100 100 100 100 94 100 48 99 100 78 100 100 100 100 50 7 94 49 9 36 94 97 74 87 71 30 72 18 100 100 100 100 100 48 64 33 26 18 54 73 52 80
100 100 100 100 100 100 100 100 100 100 100 100 100 100 100 100 100 100 100 78 100 100 100 100 100 90 19 53 92 59 62 19 27 50 56 66 14 35 24 99 100 100 100 58 11 5 5 26 63 100 87 88 80 61
100 100 100 100 100 100 100 100 100 100 100 100 100 100 100 100 100 100 100 100 100 100 100 100 100 100 35 79 93 96 52 97 52 100 89 72 100 100 100 100 94 17 20 66 78 98 89 75 97 97 89 91 51 48
100 100 100 100 100 100 100 100 100 100 100 100 99 100 93 100 100 100 100 100 100 77 100 100 100 58 58 97 100 86 100 92 98 99 74 100 100 100 100 100 87 47 44 98 97 100 98 88 68 88 76 79 100 99
100 100 100 100 100 100 100 100 100 100 100 85 98 100 100 100 98 100 100 100 100 89 100 100 90 43 77 86 100 97 100 96 92 64 100 100 100 100 100 100 100 98 79 79 99 64 98 93 100 100 100 92 96 100
100 100 100 100 100 100 100 100 100 100 100 100 100 100 100 100 100 100 100 98 94 100 100 100 100 100 100 99 87 75 93 97 78 70 100 100 100 100 100 100 100 100 100 100 97 100 100 100 100 100 100 100 100 100
100 100 100 100 100 100 100 100 100 100 100 100 100 100 100 96 100 100 100 100 100 100 100 100 100 100 96 92 94 88 100 95 78 99 94 100 100 100 100 100 100 99 100 100 100 100 100 100 100 100 100 100 100 100
99 99 100 100 100 100 100 100 100 100 100 100 100 100 100 100 100 100 100 100 100 100 100 100 100 100 100 100 100 100 100 100 100 100 100 100 100 100 100 100 100 100 100 100 100 100 100 100 100 100 100 100 93 24
100 100 100 100 100 100 100 100 100 100 100 100 98 100 100 100 100 100 100 100 100 100 100 100 100 100 100 100 100 100 100 100 100 100 100 100 100 100 100 100 100 100 100 100 100 100 100 100 100 99 58 5 5 5
78 100 100 100 100 100 100 100 100 100 100 100 100 100 100 100 100 100 100 100 100 100 100 100 100 100 100 100 100 100 99 100 98 98 100 100 100 100 100 100 100 100 100 100 91 79 88 55 17 41 5 0 5 5
100 99 91 100 100 100 100 100 100 100 100 100 100 100 100 100 100 100 100 100 100 100 100 100 100 100 100 100 100 100 100 100 100 100 100 100 100 100 100 100 76 54 91 100 51 54 35 6 3 0 0 0 0 2
100 100 100 100 100 100 100 100 100 100 100 100 100 100 100 100 100 100 100 100 100 100 100 100 100 100 100 100 100 100 100 100 100 100 100 100 100 100 100 100 98 80 92 71 46 5 4 2 5 5 0 0 2 5
100 100 100 100 100 100 100 100 100 100 100 100 100 100 100 100 100 100 100 100 100 100 100 100 100 100 100 100 100 100 100 100 100 100 100 100 100 100 100 95 100 96 62 33 5 5 5 4 5 5 5 18 62 8
93 100 90 100 100 100 100 100 100 100 100 100 100 100 100 100 100 100 100 100 100 100 100 100 100 100 100 100 100 100 100 100 100 100 100 100 100 97 100 100 100 84 73 55 45 5 5 20 74 60 44 50 42 41
24 39 100 94 98 95 100 100 100 100 100 100 100 100 100 100 100 100 100 100 100 100 100 100 100 100 100 100 100 100 100 100 100 77 30 84 95 100 99 100 100 100 99 100 78 89 95 87 61 66 60 97 100 100
90 75 95 98 100 82 59 59 96 99 100 99 96 100 100 100 100 100 100 100 100 100 100 100 100 100 100 97 100 99 100 100 100 97 100 100 100 100 100 100 100 100 100 100 100 91 90 100 100 100 100 100 100 100
35 94 99 93 95 62 93 86 89 85 84 99 100 100 100 99 100 100 100 100 100 100 100 100 100 100 100 100 100 100 100 100 100 100 100 100 100 100 100 100 100 100 100 100 100 100 100 100 100 100 100 100 100 100
15 72 34 50 97 100 96 93 82 88 86 97 100 100 100 98 59 99 100 100 100 100 100 100 100 100 100 100 100 100 100 100 100 100 100 100 100 100 100 100 100 100 100 100 100 98 100 100 96 100 100 100 100 100
5 41 27 21 38 17 95 88 94 92 100 100 100 100 100 89 98 100 100 100 100 100 100 100 100 100 100 100 100 100 100 100 100 100 100 100 100 100 100 100 100 100 100 99 100 100 100 100 100 100 100 100 100 100
68 96 82 94 77 69 87 100 100 100 100 100 100 100 100 100 100 100 100 100 100 100 100 100 100 100 100 100 100 100 100 100 100 100 100 100 100 100 100 98 80 99 100 100 100 100 100 100 100 100 100 100 100 100
79 100 100 100 100 100 100 99 98 100 100 100 100 100 100 100 100 100 100 100 100 100 100 100 100 100 100 100 100 100 100 100 100 91 83 87 90 81 79 88 89 100 99 100 100 100 100 100 100 100 100 100 100 100
100 94 89 100 100 100 100 100 100 100 100 100 100 100 100 100 100 100 100 100 100 100 100 100 100 100 100 100 100 100 100 76 80 82 96 99 100 100 100 100 100 75 99 100 100 100 100 100 100 100 100 100 100 100
97 100 92 11 80 97 100 100 100 100 93 95 100 100 100 100 100 100 100 100 100 100 100 100 100 100 100 100 100 100 100 89 44 5 5 12 82 100 100 100 100 100 100 100 100 100 100 100 100 100 100 100 100 100
98 100 94 76 83 96 100 100 100 100 95 100 96 97 100 100 100 100 100 100 100 100 100 100 100 100 100 100 100 100 100 87 21 5 5 16 99 100 100 100 100 100 100 100 100 100 100 100 100 100 100 100 100 100
100 100 99 92 100 100 99 100 100 100 100 100 100 100 100 100 100 100 100 100 100 100 100 100 100 100 99 84 80 83 85 100 97 88 96 99 100 100 100 100 100 100 100 100 100 100 100 100 100 100 100 100 100 100
95 97 93 92 100 100 100 100 100 100 100 100 100 100 100 100 100 100 100 100 100 100 91 100 100 100 100 100 98 99 19 87 100 100 100 100 100 100 100 100 100 100 100 100 100 100 100 100 100 100 100 100 100 100
100 97 98 97 99 100 98 91 94 99 100 100 100 100 100 100 100 100 100 100 100 100 100 100 100 100 100 89 95 76 78 100 99 100 100 100 100 100 100 100 100 100 100 100 100 100 100 100 100 100 100 100 100 100

GFSWCAN_prec_cloud_030.txt.gz
Cloud_Cover
59 18 36 92 70 66 100 57 23 9 5 19 72 6 100 100 100 100 99 94 100 100 84 74 100 95 98 97 100 100 100 5 47 29 28 5 31 5 5 5 5 5 7 56 6 78 63 6 11 42 5 5 35 5
5 2 5 0 5 1 0 1 5 82 90 26 52 90 100 100 100 100 96 10 60 100 100 57 100 6 64 100 100 100 100 97 52 8 35 22 90 74 8 5 5 5 7 5 5 5 5 24 55 5 59 99 5 5
100 100 96 69 100 68 5 23 12 5 56 100 100 100 100 100 100 100 100 100 100 100 69 61 63 16 66 100 100 100 100 96 29 21 5 32 96 6 74 5 5 5 23 8 73 17 5 7 5 72 77 5 63 73
100 100 100 100 100 100 100 100 89 100 100 100 100 100 100 100 97 92 100 100 100 100 95 18 75 69 100 100 100 100 100 100 79 12 5 68 87 5 8 5 6 30 93 36 100 76 45 0 8 28 7 54 100 100
100 100 100 100 100 100 100 100 100 100 100 100 100 100 93 89 51 100 100 100 100 76 48 94 80 100 100 100 100 100 100 95 8 21 69 49 100 94 9 5 10 96 100 70 52 37 53 3 6 11 93 100 100 97
100 100 100 100 100 100 100 100 100 100 100 100 100 100 100 72 100 100 100 99 100 9 0 29 100 100 100 100 100 100 100 37 5 8 41 86 100 100 100 100 98 97 73 8 5 5 5 7 93 100 100 100 97 14
100 100 100 100 100 100 100 100 100 100 100 100 82 70 100 100 100 100 46 48 15 5 5 100 100 100 100 100 100 100 100 74 15 27 6 100 100 100 100 100 100 100 100 100 60 5 37 46 100 100 100 84 5 6
100 100 100 100 100 100 100 100 100 100 100 100 100 100 100 94 100 100 100 100 84 46 93 100 100 100 100 100 100 100 100 100 38 49 26 60 100 100 100 100 100 100 100 100 73 6 20 90 100 71 42 39 21 61
100 100 100 100 100 100 100 100 100 100 100 100 100 100 100 100 100 100 100 100 98 97 100 100 100 100 100 100 100 100 100 100 77 86 44 14 71 79 88 98 92 84 87 98 56 93 98 50 54 78 49 78 77 92
100 100 100 100 100 100 100 100 100 100 100 100 100 100 100 100 100 79 96 81 100 100 88 100 100 95 93 100 100 100 100 100 98 66 85 98 80 99 89 60 55 18 92 69 6 37 80 89 56 100 99 99 94 100
100 100 100 100 100 100 100 100 100 100 100 100 100 100 100 100 100 100 78 73 92 100 100 100 82 100 99 100 100 100 100 79 44 63 67 82 100 98 95 100 81 94 96 100 100 93 95 100 100 100 100 90 94 95
100 100 100 100 100 100 100 100 100 100 100 100 100 100 100 100 100 100 100 100 100 96 99 100 100 99 100 100 100 100 100 86 73 86 95 59 100 100 100 100 99 92 100 100 100 100 100 100 100 100 97 92 98 100
100 100 100 100 100 100 100 100 100 100 100 100 100 100 100 95 100 100 100 100 100 100 100 100 100 100 100 100 100 100 100 78 51 97 50 94 100 100 100 100 100 100 100 100 100 96 100 100 100 100 100 100 100 100
100 100 100 100 100 100 100 100 100 100 100 100 100 100 100 100 100 100 100 100 100 100 100 100 100 100 100 100 100 100 100 97 100 99 94 100 100 100 100 100 100 100 100 100 100 100 100 100 100 100 100 100 100 100
100 100 100 100 100 100 100 100 100 100 100 100 100 100 100 100 100 100 100 100 100 100 100 100 100 100 100 100 100 100 100 100 80 94 100 100 100 100 99 100 99 100 100 100 100 100 100 100 100 100 100 100 100 100
100 100 100 100 100 100 100 100 100 100 100 100 100 100 100 100 100 100 100 100 100 100 100 100 100 100 100 100 100 100 100 93 100 100 100 100 100 100 100 100 100 100 100 100 100 100 100 100 100 100 100 100 94 58
100 100 100 100 100 100 100 100 100 100 100 100 100 100 100 100 100 100 100 100 100 100 100 100 100 100 100 100 100 100 100 100 100 100 100 100 100 100 100 100 100 100 100 100 100 100 100 100 100 100 100 65 31 5
96 81 93 98 100 100 100 100 100 100 100 100 100 100 100 100 100 100 100 100 100 100 100 100 100 100 100 100 100 100 100 100 100 100 100 100 100 100 100 100 100 100 100 100 100 100 100 100 100 100 86 10 5 5
99 99 100 98 98 99 100 100 100 100 100 100 100 100 100 100 100 100 100 100 100 100 100 100 100 100 100 100 100 100 100 100 100 100 100 100 100 100 100 100 100 100 100 100 100 100 100 100 99 60 33 59 76 23
37 100 100 100 99 91 99 100 100 100 100 100 100 100 100 100 100 100 100 100 100 100 100 100 100 100 100 100 100 100 100 100 100 100 100 100 100 100 100 100 100 100 100 100 100 100 91 90 100 100 91 44 67 63
62 6 39 89 100 100 100 100 100 100 100 100 100 100 100 100 100 100 100 100 100 100 100 100 100 100 100 100 100 100 100 100 100 100 100 100 100 100 100 100 100 100 100 100 100 100 100 89 62 60 44 86 40 49
15 5 34 6 63 41 94 82 100 100 100 100 100 100 100 100 100 100 100 100 100 100 100 100 100 100 100 100 100 100 100 100 100 100 100 100 100 100 100 100 100 100 100 100 100 100 87 76 88 79 79 68 79 89
1 2 43 65 70 35 79 84 74 74 72 94 100 98 100 97 93 96 100 100 100 100 100 100 100 100 100 100 100 100 100 100 100 100 100 100 100 100 100 100 100 100 100 100 100 78 90 70 98 63 92 94 91 99
0 75 20 12 6 84 53 65 62 88 86 100 100 100 100 93 44 65 99 100 100 100 100 100 100 100 99 94 96 100 100 100 100 100 100 100 100 100 100 100 100 100 100 96 99 100 98 100 85 100 100 99 98 100
4 32 51 8 20 14 76 94 98 98 100 100 92 99 100 91 89 99 100 100 100 100 100 100 97 96 100 100 100 100 100 100 100 100 100 100 100 100 100 100 100 100 100 99 99 100 96 100 99 98 94 96 100 100
79 96 87 96 89 87 89 100 100 100 100 97 100 100 85 90 96 100 100 100 100 100 100 100 100 100 100 100 100 100 100 100 100 100 100 100 100 100 100 97 100 100 99 99 100 100 100 100 96 98 100 100 100 100
90 98 100 100 99 97 100 100 96 99 99 99 100 100 71 97 100 100 100 100 100 100 100 100 100 100 100 100 100 100 97 78 84 86 88 83 83 89 85 99 100 84 80 100 100 100 100 100 100 100 100 100 100 100
98 96 96 100 100 94 100 100 100 100 100 100 100 91 97 100 100 100 100 100 100 100 100 98 100 100 100 100 100 100 100 88 56 41 88 99 100 100 97 100 95 82 100 100 96 100 100 100 100 100 100 100 100 100
100 100 59 7 77 98 100 100 100 100 100 100 100 100 100 100 100 100 100 100 100 100 100 100 100 100 97 97 100 100 98 46 32 5 10 76 100 100 72 97 100 100 100 100 100 100 100 100 100 100 100 100 97 100
95 98 76 67 48 100 99 100 99 99 100 100 94 96 100 100 100 100 100 100 100 100 100 100 100 99 100 100 100 100 100 82 54 65 65 82 100 99 100 100 100 100 100 100 100 100 100 100 100 100 100 100 100 100
100 100 94 96 95 100 99 100 94 93 100 100 99 100 100 100 100 100 100 100 100 100 100 100 100 100 100 100 100 100 98 100 64 93 76 92 100 100 100 100 100 100 100 100 100 100 100 100 100 100 100 100 100 100
93 98 95 92 100 97 100 100 98 100 100 100 100 100 100 100 100 100 100 100 100 100 85 100 100 100 100 100 99 100 98 91 100 100 99 100 100 100 100 100 100 100 100 100 100 100 100 100 100 100 100 100 100 100
100 97 94 99 99 98 92 97 100 100 100 100 100 100 99 100 100 100 100 100 100 100 100 100 100 100 100 96 95 98 100 100 100 100 100 100 93 76 99 100 100 100 100 100 100 100 100 100 100 100 100 100 100 99

GFSWCAN_prec_cloud_033.txt.gz
Cloud_Cover
100 100 100 100 100 100 100 100 100 100 100 100 100 100 74 5 21 82 100 100 100 100 99 48 88 12 87 94 98 96 75 100 93 64 52 70 32 5 6 5 6 6 40 21 67 79 12 5 8 3 2 5 5 5
98 68 45 87 100 100 100 98 96 100 100 98 93 44 25 15 17 65 100 100 100 100 94 64 5 5 65 97 73 44 93 100 100 100 100 99 62 87 7 57 15 6 8 5 5 5 5 5 5 5 19 18 5 5
5 8 37 91 75 99 90 96 9 41 100 96 15 9 5 6 93 78 100 100 100 100 100 94 5 83 100 100 80 5 98 100 100 100 46 41 94 5 12 37 5 5 36 5 5 5 5 5 5 11 99 75 16 43
3 3 3 4 9 35 41 42 5 5 5 42 41 5 8 5 52 100 100 100 100 100 100 97 15 55 98 100 56 26 100 100 100 100 100 100 90 5 5 9 21 9 7 5 18 5 5 5 9 33 85 100 99 61
99 52 11 0 0 0 0 6 42 11 5 7 8 41 64 81 100 100 100 100 100 100 100 100 89 97 100 93 83 92 100 100 100 100 100 26 52 5 5 5 12 75 26 18 11 96 28 40 100 79 38 6 34 46
100 100 100 99 5 5 5 5 44 38 90 23 5 43 100 100 100 100 100 100 100 100 100 100 100 100 100 100 96 99 100 75 100 100 100 100 100 99 50 5 10 13 5 8 41 34 81 100 100 90 6 5 5 5
100 100 94 94 65 100 100 100 100 100 66 92 65 74 100 100 98 100 100 100 100 100 100 100 100 100 100 96 5 100 100 100 100 100 100 100 100 100 85 5 5 90 100 100 100 100 100 100 100 100 99 69 54 18
100 100 100 98 100 100 100 100 100 100 100 100 100 100 100 100 100 100 100 100 100 100 100 100 100 100 100 100 84 100 100 100 100 100 100 100 100 100 13 29 70 100 100 100 100 100 100 100 98 89 58 24 18 18
100 100 100 100 100 100 100 100 100 100 100 100 100 100 100 100 100 100 100 100 100 100 100 100 100 100 100 100 66 100 100 100 100 100 100 100 100 100 100 100 74 100 100 100 100 100 100 92 11 31 5 8 8 42
100 100 100 100 100 100 100 100 100 100 100 98 85 100 100 100 100 100 100 100 100 100 100 100 100 100 100 99 100 100 100 100 100 100 100 100 100 100 100 100 98 33 99 100 99 54 17 19 36 99 68 48 68 99
100 100 100 100 100 100 100 100 100 100 100 100 100 100 100 100 100 100 100 100 100 100 93 100 100 100 100 94 100 100 100 100 100 100 100 91 88 100 100 100 94 74 100 100 96 65 96 98 100 100 100 82 78 79
100 100 100 100 100 100 100 100 95 64 83 100 100 100 100 100 100 100 100 100 99 100 97 100 100 100 100 100 100 100 100 100 100 95 78 100 95 100 100 100 100 100 100 100 100 100 100 100 100 85 78 100 95 96
100 100 100 100 100 100 100 100 100 100 100 100 100 100 100 95 91 91 100 97 93 100 100 100 98 100 100 100 100 100 98 100 73 98 97 100 100 100 100 100 100 100 100 100 100 100 100 76 87 97 100 100 95 100
100 100 100 100 100 100 100 100 100 100 100 100 100 100 100 100 100 100 100 100 100 100 100 100 100 100 100 100 100 100 100 100 100 100 100 100 100 100 100 100 100 100 100 100 100 94 96 100 100 99 91 100 100 100
100 100 100 100 100 100 100 100 100 100 100 100 100 100 100 100 100 100 100 100 100 100 100 100 100 100 100 100 100 100 99 86 99 100 100 100 100 100 100 100 100 100 100 99 100 100 100 100 100 100 100 100 100 100
100 100 100 100 100 100 100 100 100 100 100 100 100 100 100 100 100 100 100 100 100 100 100 100 100 100 100 100 100 100 100 100 100 100 100 100 100 100 100 100 100 100 100 100 100 100 100 100 100 100 100 100 100 100
100 100 100 100 100 100 100 100 100 100 100 100 100 100 100 100 100 100 100 100 100 100 100 100 100 100 100 100 100 100 100 100 100 100 100 100 100 100 100 100 100 100 100 100 100 100 100 100 100 100 100 100 100 100
100 100 100 100 100 91 100 100 100 100 100 100 100 100 100 100 100 100 100 100 100 100 100 100 100 100 100 100 100 100 100 100 100 100 100 100 100 100 100 100 100 100 100 100 100 100 100 100 100 100 100 100 100 100
89 100 100 100 100 100 100 100 100 100 100 100 100 100 100 100 100 100 100 100 100 100 100 100 100 100 100 100 100 100 100 100 100 100 100 100 100 100 100 100 100 100 100 100 100 100 100 100 100 100 100 98 98 89
65 17 25 51 57 73 99 100 100 100 100 100 100 100 100 100 100 100 100 100 100 100 100 100 100 100 100 100 100 100 100 100 100 100 100 100 100 100 100 100 100 100 100 97 97 100 100 100 100 98 100 100 82 63
99 100 98 83 95 97 81 96 100 100 100 100 100 100 100 100 100 100 100 100 100 100 100 100 100 100 100 100 100 100 100 100 100 100 100 100 100 100 100 100 100 100 100 100 100 100 100 100 100 100 100 100 90 38
59 9 26 15 93 100 100 100 100 100 100 100 100 100 100 100 100 100 100 100 100 100 100 100 100 100 100 100 100 100 100 100 100 100 100 100 100 100 100 100 100 100 100 100 100 100 100 100 100 89 92 100 59 84
24 45 59 44 54 65 82 33 47 73 100 100 100 100 100 100 100 100 100 100 100 100 100 100 100 100 100 100 100 100 100 100 100 100 100 100 100 100 100 100 100 100 100 100 100 100 100 100 100 98 100 99 66 83
2 82 88 69 5 70 45 60 69 93 100 100 100 100 100 100 100 100 100 100 100 100 100 100 100 100 100 100 100 100 100 90 99 100 100 100 100 100 100 100 100 100 100 100 100 100 100 100 100 100 100 62 43 76
6 38 5 6 5 5 6 79 93 96 100 100 58 83 79 76 61 100 100 100 100 100 100 100 95 91 95 97 79 74 86 73 77 89 100 100 100 100 100 100 100 100 100 100 100 100 100 99 82 18 5 39 86 61
73 93 81 100 94 98 97 100 100 100 100 100 98 90 64 91 77 100 100 100 95 87 93 99 100 83 78 89 94 94 92 100 86 76 77 87 80 89 94 97 100 92 86 56 43 58 25 21 13 21 36 12 82 100
100 95 100 100 100 98 100 99 95 93 70 82 96 96 73 100 98 99 98 92 94 98 94 91 91 90 100 100 92 89 88 85 81 75 84 88 94 87 42 42 60 16 53 46 5 5 67 71 72 53 59 99 100 100
100 100 100 98 100 91 100 100 100 100 100 100 97 80 88 95 100 100 100 100 100 100 99 93 83 81 89 100 100 98 93 91 98 98 83 89 83 53 21 36 71 71 98 100 84 95 89 100 81 79 70 81 46 5
100 88 8 79 73 100 100 99 96 100 100 100 100 100 100 99 100 100 100 100 100 98 83 75 100 84 96 98 82 56 6 9 11 27 53 82 98 51 5 18 100 100 32 80 81 90 100 100 100 100 33 99 100 94
87 71 41 5 42 98 90 99 100 98 100 99 61 76 99 100 100 100 100 100 100 100 100 100 100 100 97 99 100 98 83 88 83 52 74 100 90 88 97 100 100 99 100 99 74 69 63 43 38 83 63 70 100 100
100 42 5 7 70 82 100 100 100 99 95 86 83 100 100 100 100 100 100 100 100 100 96 95 100 100 100 98 85 86 87 56 100 97 66 5 18 53 26 41 80 99 97 100 100 100 93 87 100 100 100 99 100 100
54 40 6 92 94 36 100 99 55 100 100 99 88 37 84 98 98 97 100 97 99 100 100 89 84 99 62 37 48 48 90 98 100 93 59 92 80 70 34 5 26 84 72 66 73 99 100 100 100 100 100 100 99 71
33 9 5 12 98 95 74 5 95 99 99 75 80 96 98 98 98 96 100 96 88 92 99 98 99 100 100 73 5 100 98 83 63 44 84 87 83 100 70 86 61 16 53 60 52 69 66 93 100 100 100 100 97 78

GFSWCAN_prec_cloud_036.txt.gz
Cloud_Cover
100 100 100 100 100 100 100 98 36 13 5 76 100 25 73 8 99 99 100 100 100 100 62 66 1 5 4 4 6 86 69 85 100 100 100 100 68 5 1 5 5 61 67 5 39 62 5 0 4 5 26 75 5 5
100 100 100 100 100 100 100 100 99 97 99 71 98 5 100 92 100 98 100 100 100 95 65 18 4 1 0 8 100 100 100 100 100 90 100 100 72 30 5 5 5 89 11 36 5 58 35 5 5 5 5 5 5 42
100 100 100 100 100 100 100 100 100 100 100 100 100 100 97 96 100 100 99 89 100 100 100 100 12 5 4 54 100 73 99 100 79 92 100 100 100 20 5 5 3 80 56 21 8 83 98 30 5 18 9 5 5 5
71 100 100 100 100 100 96 100 100 100 100 100 100 100 100 100 100 100 100 100 100 100 100 94 99 16 5 21 8 77 99 97 78 100 100 100 100 98 100 42 43 22 29 44 74 53 17 82 20 15 90 96 74 47
47 44 98 75 98 100 100 100 100 100 100 100 100 100 79 100 83 83 31 94 90 100 100 100 67 5 8 79 34 96 100 100 100 100 100 100 100 100 100 5 5 56 13 42 43 39 58 43 45 27 45 58 99 100
2 21 82 100 100 100 100 94 39 86 5 32 96 100 100 93 5 77 100 100 100 100 99 97 37 95 67 13 94 100 100 100 100 100 100 100 100 100 100 89 42 35 38 100 100 99 30 8 6 16 54 60 34 81
100 6 0 5 93 90 99 27 26 5 20 58 81 93 78 5 18 5 5 41 86 100 100 100 82 62 99 67 100 100 100 100 77 78 80 100 100 100 100 100 100 98 60 92 99 96 100 100 82 67 96 100 100 100
100 100 62 5 5 5 5 5 12 5 5 10 5 5 5 89 66 100 100 100 100 100 100 100 100 100 100 100 100 100 87 94 100 100 100 100 100 94 100 100 100 100 100 100 72 25 50 73 100 100 100 100 100 100
100 100 100 100 7 5 5 5 2 3 5 13 22 38 74 100 100 77 100 100 100 100 100 100 100 100 100 100 100 100 91 100 100 100 100 100 90 84 15 86 100 100 100 100 100 89 53 41 64 100 100 100 100 99
100 100 100 100 92 68 7 6 5 6 100 100 100 100 100 100 100 100 100 100 100 100 100 100 100 100 100 100 100 100 100 99 100 100 100 100 100 100 64 59 100 100 100 100 100 100 100 20 31 39 90 99 99 78
100 100 100 100 93 96 100 100 100 100 100 100 100 100 100 100 100 100 100 100 100 100 100 100 100 100 100 100 100 100 99 98 100 100 100 100 100 100 100 96 100 100 100 100 96 84 78 100 74 94 100 100 87 99
100 100 100 100 100 100 100 100 100 100 100 100 100 100 100 100 100 100 100 100 100 100 100 100 100 100 54 63 84 86 100 100 100 100 99 100 100 100 100 100 100 100 100 100 100 100 100 100 100 100 100 100 100 100
100 100 100 100 100 100 100 100 100 100 100 100 100 100 100 100 100 100 100 100 100 100 100 100 100 100 100 100 100 100 46 83 38 99 95 100 100 100 100 100 100 100 100 100 100 100 100 100 100 80 73 98 100 100
100 100 100 100 100 100 100 100 100 100 100 100 100 100 100 100 100 100 100 100 100 100 100 100 100 100 100 100 99 98 100 88 92 99 84 100 100 100 100 100 100 100 100 100 100 100 100 100 95 100 100 100 100 100
100 100 100 100 100 93 54 96 100 100 100 88 91 100 100 100 100 100 100 100 100 100 100 97 98 100 100 100 98 100 100 100 100 100 100 100 100 100 100 100 100 100 100 100 100 100 100 100 100 100 100 100 100 100
100 100 100 100 100 100 100 100 93 94 99 100 100 100 100 100 100 100 100 100 100 100 100 100 100 100 100 100 100 100 100 100 100 100 100 100 100 100 100 100 100 100 100 100 100 100 100 100 100 100 100 100 100 100
100 93 100 100 100 100 100 98 100 100 100 97 100 100 100 100 100 100 100 100 100 100 100 100 100 100 100 100 100 100 100 100 100 100 100 100 100 100 100 100 100 100 100 100 100 100 100 100 100 100 100 100 100 100
100 98 99 100 99 100 100 100 100 100 100 100 100 100 100 100 100 100 100 100 100 100 100 100 100 100 100 100 100 100 100 100 100 100 100 100 100 100 100 100 100 100 100 100 100 100 100 100 100 100 100 100 100 100
100 100 100 100 86 99 93 100 100 100 100 100 100 100 100 100 100 100 100 100 100 100 100 100 100 100 100 100 100 100 100 100 100 100 100 100 100 100 100 100 100 100 100 100 100 100 100 100 100 100 100 100 100 100
100 100 100 100 100 100 99 99 100 100 100 100 100 100 100 100 100 100 100 100 100 100 100 100 100 100 100 100 100 100 100 100 100 100 100 100 100 100 100 100 100 100 100 100 100 100 100 100 100 100 100 100 100 99
100 100 100 100 100 100 100 100 100 100 100 100 100 100 100 100 100 100 100 97 100 100 100 100 100 100 100 100 100 100 100 100 100 100 100 100 100 100 100 100 100 100 100 100 100 100 100 100 100 100 100 100 87 83
31 27 52 55 91 100 100 99 100 100 98 99 100 100 100 100 100 100 100 100 100 100 100 100 100 100 100 100 100 100 100 100 100 100 100 100 100 100 100 100 100 100 100 100 100 100 100 100 100 100 100 100 100 100
100 80 96 61 27 5 5 5 29 42 93 100 100 100 100 100 100 81 99 100 100 100 100 100 100 100 100 100 100 100 100 100 100 100 100 100 100 100 100 100 100 100 100 100 100 100 100 100 100 100 100 100 100 100
13 75 98 62 6 52 15 58 92 100 94 27 77 100 100 100 100 100 99 100 100 100 100 100 99 100 100 100 100 100 100 100 100 100 100 100 100 100 100 100 100 100 100 100 100 100 100 100 100 100 100 100 100 98
6 36 5 5 5 5 14 5 45 11 65 74 18 93 94 57 97 100 98 99 100 99 98 92 97 95 100 100 97 100 100 97 99 97 100 99 100 100 100 100 100 100 100 100 100 100 100 100 99 87 18 93 87 83
83 77 49 91 81 83 81 97 95 98 89 87 97 89 70 73 56 99 100 100 100 100 96 94 74 75 96 69 72 79 90 85 97 82 84 87 95 100 100 100 100 100 100 87 75 44 45 60 89 74 85 84 99 100
95 53 84 100 96 56 78 74 11 14 94 95 87 76 82 87 100 100 100 98 98 97 91 90 81 93 99 100 88 85 81 76 79 92 96 96 87 51 26 5 6 45 70 52 29 40 99 100 100 99 95 94 72 91
98 61 60 58 57 5 30 55 79 97 100 95 97 90 76 91 100 100 99 100 100 100 90 79 84 91 79 71 81 88 89 95 87 64 13 20 43 22 75 100 100 100 88 78 72 91 99 100 100 100 100 100 99 45
100 93 52 94 15 48 89 100 100 96 99 100 96 100 100 99 100 100 100 99 100 100 100 97 100 98 95 88 92 93 78 71 14 22 94 99 85 31 77 77 100 100 100 98 99 59 89 100 97 98 95 83 99 100
33 37 18 43 72 100 93 90 87 90 89 70 31 94 94 99 100 100 100 100 100 100 100 100 96 96 89 100 99 90 94 100 98 59 77 86 82 79 81 60 83 71 100 100 98 96 100 98 89 67 39 70 100 98
41 5 20 78 95 100 100 100 99 90 70 85 88 98 94 90 100 100 100 100 100 98 100 89 85 86 74 88 96 99 72 100 100 93 92 97 93 100 92 82 86 99 77 85 85 93 100 100 100 100 100 87 100 100
37 20 56 84 93 96 99 100 100 100 99 90 99 96 98 60 92 84 90 100 82 73 100 96 93 96 74 68 76 97 100 100 100 100 100 100 99 100 100 82 94 88 88 99 90 99 99 100 100 100 95 100 100 100
68 17 51 73 99 96 53 20 100 100 100 100 100 100 100 100 96 96 99 91 87 97 97 94 84 91 100 100 100 97 96 74 80 64 100 85 88 56 88 90 97 100 100 100 100 100 100 100 61 49 75 83 100 100

GFSWCAN_prec_cloud_039.txt.gz
Cloud_Cover
100 100 100 100 100 100 100 100 100 100 100 96 85 76 8 4 100 100 100 100 100 100 97 58 34 12 100 100 100 100 100 81 100 89 96 79 100 100 100 88 11 5 13 1 0 4 5 1 4 1 0 0 0 0
100 100 100 100 100 100 100 100 100 100 100 83 61 5 40 100 100 100 100 100 100 100 11 60 12 5 11 34 96 94 100 92 93 100 100 100 100 100 100 100 51 7 2 5 1 5 8 5 5 5 5 5 4 2
100 100 100 100 100 100 100 100 100 100 100 100 41 15 86 25 100 100 100 100 100 100 36 93 44 14 3 4 78 100 100 96 97 100 100 100 100 100 100 100 100 5 5 4 5 96 65 6 5 5 5 5 5 5
100 100 100 100 100 100 100 100 100 91 87 14 73 5 5 6 98 100 100 100 100 100 100 97 44 23 5 4 3 92 100 74 98 100 100 100 100 100 100 100 100 99 7 61 90 99 43 72 19 6 5 5 5 5
100 100 100 100 100 100 100 100 100 96 49 91 84 99 94 77 100 100 100 100 88 65 100 83 100 30 55 0 1 74 84 72 100 100 100 80 100 100 100 100 12 100 100 100 90 60 80 86 87 98 78 44 37 34
100 100 100 100 100 100 100 100 100 100 98 100 98 99 34 90 100 100 100 100 100 100 100 100 100 100 28 30 0 5 9 100 79 100 100 100 100 100 100 100 70 100 100 100 100 99 38 50 100 100 95 100 100 100
76 50 100 100 100 100 100 100 100 100 100 100 100 100 100 100 84 100 93 73 88 100 100 100 100 100 100 72 38 11 39 92 49 99 100 100 100 100 100 98 100 100 100 100 100 100 100 100 72 47 33 40 74 98
71 98 100 94 99 100 17 97 98 100 100 100 100 98 100 100 100 74 83 16 40 100 100 100 68 89 100 100 100 100 100 100 100 100 100 100 100 100 100 99 100 100 100 100 100 100 100 100 100 98 40 21 44 41
16 34 98 87 10 15 6 85 100 27 60 100 100 100 97 64 5 2 100 100 79 100 100 100 100 100 82 97 100 100 100 100 100 100 100 100 100 100 100 100 100 100 100 100 100 100 91 100 100 100 100 52 72 81
98 5 5 10 5 2 5 5 5 5 9 96 39 99 87 6 99 100 100 36 100 100 100 100 100 95 71 100 100 100 100 100 100 100 100 100 100 100 100 100 100 100 100 100 100 100 100 99 100 100 100 100 100 84
95 6 5 5 0 0 0 0 5 5 51 30 36 100 93 100 100 96 100 100 100 100 100 100 100 80 97 100 100 100 100 100 100 100 100 100 100 100 100 100 100 100 100 100 100 100 100 100 100 100 100 100 100 99
66 5 4 5 4 0 0 0 0 73 100 100 100 100 100 72 86 100 100 100 100 100 100 100 100 100 100 100 100 100 100 100 100 100 100 100 100 100 100 100 100 100 100 100 100 100 100 100 100 100 100 100 100 100
100 83 5 10 12 89 100 100 100 100 100 100 100 100 100 100 100 100 100 100 100 100 100 100 100 100 100 100 100 100 100 100 100 100 100 100 100 100 100 100 100 100 100 100 100 100 100 100 100 100 100 100 100 100
100 100 100 100 100 100 100 100 100 100 100 100 100 100 100 100 100 100 100 100 100 100 100 100 100 100 100 100 100 100 100 96 80 100 97 100 100 100 100 100 100 100 100 100 100 100 100 100 100 100 100 100 100 100
100 100 100 100 100 100 100 100 100 100 100 100 100 100 100 100 100 100 100 100 100 100 100 100 100 100 100 100 100 91 100 96 97 86 100 100 100 100 100 100 100 100 100 100 100 100 100 100 99 100 100 100 100 100
100 100 100 100 100 100 100 100 100 100 100 100 100 100 100 100 100 100 100 100 100 100 100 100 100 100 100 100 100 100 100 100 100 100 100 100 100 100 100 100 100 100 100 100 100 100 100 98 100 100 100 100 100 100
100 88 100 100 100 100 100 100 100 100 100 100 100 100 100 100 100 100 100 100 100 100 100 67 99 100 99 80 97 100 100 100 100 100 100 100 100 100 100 100 100 100 100 100 100 100 100 100 100 100 100 100 100 100
100 100 100 100 100 100 100 100 97 100 100 100 100 100 100 100 100 100 100 100 100 100 100 100 100 100 100 98 100 100 100 100 100 100 100 100 100 100 100 100 100 100 100 100 100 100 100 100 100 100 100 100 100 100
99 100 100 100 100 100 100 100 100 100 100 100 100 100 92 100 100 100 91 96 100 100 100 100 100 100 100 100 100 100 100 100 100 100 100 100 100 100 100 100 100 100 100 100 100 100 100 100 100 100 100 100 100 100
100 100 100 100 99 100 100 100 100 100 100 100 100 100 100 100 100 100 96 96 100 100 100 100 100 100 100 100 100 100 100 100 100 100 100 100 100 100 100 100 100 100 100 100 100 100 100 100 100 100 100 100 100 100
100 100 100 100 94 64 91 100 100 100 100 100 100 100 100 100 100 100 100 100 100 100 100 100 100 100 100 100 100 100 100 100 100 100 100 100 100 100 100 100 100 100 100 100 100 100 100 100 100 100 100 100 100 100
32 60 97 100 89 88 92 92 86 71 95 92 96 94 98 100 100 100 99 100 100 100 100 100 100 100 100 100 100 100 100 100 100 100 100 100 100 100 100 100 100 100 100 100 100 100 100 100 100 100 100 100 100 100
10 13 5 5 5 18 21 26 81 94 100 99 95 100 99 99 97 99 100 100 100 100 100 100 100 100 100 100 100 100 100 100 100 100 100 100 100 100 100 100 100 100 100 100 100 100 100 100 100 100 100 100 100 100
5 5 8 7 5 62 12 30 60 22 5 5 63 95 96 92 66 100 100 100 100 100 100 100 99 98 100 100 100 100 100 100 100 100 100 100 100 100 100 100 100 100 100 100 100 100 100 100 100 100 100 100 100 100
6 33 5 5 14 6 6 8 6 9 66 76 74 100 100 19 64 68 89 100 99 93 91 73 79 94 96 100 100 100 100 100 100 100 100 100 100 100 100 100 100 100 100 100 100 100 100 100 100 100 100 100 79 95
37 87 49 48 25 7 5 34 97 94 94 95 98 100 96 8 26 99 99 99 86 84 91 91 86 98 100 100 100 97 100 88 93 94 96 82 76 86 96 99 96 99 79 48 29 63 77 72 100 90 83 86 98 100
56 20 79 93 18 8 21 33 9 43 99 100 100 78 86 84 100 100 100 100 97 98 100 96 81 92 100 99 97 96 80 72 80 96 74 81 100 100 89 92 99 100 100 86 80 96 100 100 100 100 100 100 99 100
26 5 5 14 19 23 21 96 95 100 100 91 98 87 80 95 100 100 100 100 100 100 100 99 80 62 50 6 90 100 99 86 58 23 20 18 12 46 56 100 100 100 78 100 100 100 100 98 100 100 100 100 98 55
100 58 6 70 17 74 91 99 100 100 98 66 85 92 100 100 100 100 100 100 100 99 98 96 96 92 76 19 8 5 5 5 5 5 16 84 40 33 64 15 45 54 81 74 74 84 99 100 100 100 100 100 98 90
31 26 29 71 82 100 100 79 97 96 39 55 27 96 96 100 100 100 100 100 99 98 89 79 91 88 84 81 95 92 92 67 61 48 100 100 100 99 100 100 100 100 99 76 76 54 81 77 74 84 88 85 78 100
34 19 64 80 94 100 91 78 36 26 8 46 67 92 69 88 99 97 91 96 95 87 90 72 70 94 99 100 100 98 99 97 92 97 93 93 97 100 99 98 100 100 100 100 100 100 100 99 100 100 99 92 75 97
63 94 60 90 100 100 100 100 100 85 99 86 100 93 94 71 91 83 97 100 100 91 98 100 100 96 100 100 99 95 95 98 97 99 100 100 100 96 98 100 100 100 100 100 100 100 100 100 100 82 96 96 94 100
48 16 69 59 94 100 96 84 100 100 100 100 95 100 97 87 80 100 98 84 69 14 5 53 100 100 100 96 50 47 69 72 98 100 100 99 97 100 79 98 100 100 100 100 100 100 100 100 100 100 97 82 82 99

GFSWCAN_prec_cloud_042.txt.gz
Cloud_Cover
100 100 100 94 97 100 100 100 100 100 100 100 100 100 100 100 52 55 100 100 100 100 100 99 65 100 100 100 100 100 100 100 100 100 100 100 100 100 100 100 100 100 35 5 1 5 15 6 0 0 5 5 3 5
100 100 100 100 100 100 100 100 100 100 100 100 100 100 100 84 17 14 86 100 100 100 100 100 88 98 100 100 100 100 100 100 100 100 100 100 100 100 100 100 100 100 97 12 4 6 78 7 0 0 5 5 5 5
100 100 100 100 100 100 100 100 100 100 100 100 100 100 100 100 48 5 93 100 100 100 64 98 12 72 100 100 100 100 100 100 100 100 100 100 100 100 100 100 100 100 22 5 5 78 98 7 2 3 5 5 5 5
100 100 100 100 100 100 100 100 100 100 100 100 100 100 100 82 33 5 100 100 100 100 96 95 88 6 91 100 100 100 100 100 100 100 100 100 100 100 100 100 100 99 50 22 40 100 100 25 28 7 5 5 5 5
100 100 100 100 100 100 100 100 100 100 100 100 100 100 92 13 8 89 93 100 100 100 92 32 48 4 20 100 100 100 100 100 100 100 100 100 100 100 100 98 100 100 100 59 96 100 100 100 100 98 79 20 8 35
100 100 100 100 100 100 100 100 100 100 100 100 100 100 100 100 99 83 100 100 100 100 100 100 58 55 80 96 100 100 100 100 100 100 100 100 100 70 98 71 100 100 100 100 100 100 100 100 100 100 100 100 100 100
100 100 100 99 100 100 100 100 100 87 54 100 100 100 100 98 60 88 100 100 100 100 100 100 100 69 85 98 100 100 100 91 97 100 100 100 90 87 99 86 100 100 100 100 100 100 100 100 100 100 100 100 100 100
100 100 100 100 100 100 100 100 100 100 76 100 54 54 62 17 78 85 52 100 96 100 100 100 100 100 99 89 100 100 100 98 98 92 100 100 100 100 97 100 100 100 100 100 100 100 100 100 100 100 100 100 98 90
68 61 100 55 100 94 91 100 100 99 100 100 57 26 86 84 100 76 96 97 100 100 96 100 95 100 100 100 100 100 100 99 98 98 100 79 100 92 99 100 100 100 100 100 100 100 100 100 100 100 100 100 100 100
5 5 28 88 84 5 5 83 100 100 100 100 100 100 76 91 100 100 100 100 100 100 100 100 85 100 47 100 100 100 100 100 100 100 81 99 100 100 100 100 100 100 100 100 100 100 100 100 100 100 100 100 100 100
6 5 5 1 5 80 72 5 97 97 100 100 100 93 58 42 67 92 100 100 100 100 100 92 100 100 100 91 100 100 100 100 100 100 100 100 100 92 100 100 100 100 100 100 100 100 100 100 100 100 100 100 100 100
0 0 0 0 0 4 40 39 80 93 4 34 100 13 31 100 93 77 100 100 100 100 100 100 100 100 100 100 100 100 100 100 100 100 100 100 89 100 100 100 100 100 100 100 97 98 100 91 100 100 100 100 100 100
82 51 15 95 95 100 46 93 91 99 100 100 100 100 97 93 98 98 70 100 100 100 100 100 100 100 100 100 100 100 100 100 100 100 100 100 100 100 100 100 100 100 100 100 100 100 100 100 100 100 100 100 100 100
100 100 100 100 100 100 100 100 100 100 100 100 100 93 93 100 100 100 100 100 100 100 100 100 100 100 100 100 100 100 100 100 100 100 100 100 100 100 100 100 100 100 100 100 100 100 100 100 100 100 100 100 100 100
100 100 100 100 100 100 100 100 100 100 100 100 76 92 100 100 100 100 100 100 100 100 100 100 100 100 100 100 100 100 100 100 100 100 100 100 100 100 100 100 100 100 100 100 100 100 100 100 100 100 100 100 100 100
100 100 100 100 100 100 100 100 100 100 100 100 100 100 100 100 100 100 100 100 100 100 100 100 100 100 100 100 100 100 100 100 100 100 100 100 100 100 100 100 100 100 100 100 100 100 100 100 99 100 100 100 99 100
100 100 100 100 100 100 100 100 100 100 100 100 100 100 100 100 100 100 100 100 100 100 100 100 100 100 100 100 100 100 100 100 100 100 100 100 100 100 100 100 100 100 100 98 100 100 100 100 100 100 100 100 100 100
100 100 100 100 100 100 100 100 100 100 100 100 100 100 100 100 100 100 100 100 100 100 100 100 100 100 99 100 100 100 100 100 100 100 100 100 100 100 100 100 100 100 100 100 100 100 100 100 100 100 100 100 100 100
100 100 100 100 100 100 100 100 100 100 100 100 100 100 100 97 100 99 99 84 66 89 100 100 100 100 100 100 100 100 100 100 100 100 100 100 100 100 100 100 100 100 100 100 100 100 100 100 100 100 100 100 100 100
100 100 100 100 100 100 100 100 100 100 100 100 100 100 100 100 100 100 100 100 100 93 99 94 100 100 100 100 100 100 100 100 100 100 100 100 100 100 100 100 100 100 100 100 100 100 100 100 100 100 100 100 100 100
100 100 100 100 100 100 100 100 100 100 100 100 100 93 90 100 100 100 100 100 100 100 100 100 100 100 100 100 100 100 100 100 100 100 100 100 100 100 100 100 100 100 100 100 100 100 100 100 100 100 100 100 100 100
75 79 91 100 100 100 100 100 100 100 100 100 97 98 79 81 78 73 95 100 99 100 100 100 100 100 100 100 100 100 100 100 100 100 100 100 100 100 100 100 100 100 100 100 100 100 100 100 100 100 100 100 100 100
12 5 11 5 19 65 55 62 76 83 64 81 85 100 97 93 76 43 78 86 100 100 100 100 100 100 100 100 100 100 100 100 100 100 100 100 100 100 100 100 100 100 100 100 100 100 100 100 100 100 100 100 100 100
47 63 46 33 7 14 8 5 5 5 12 9 35 90 97 80 16 7 83 83 100 100 100 99 98 96 97 99 100 100 100 100 100 100 100 100 100 100 100 100 100 100 100 100 100 100 100 100 100 100 100 100 100 100
6 34 5 5 11 37 7 36 56 18 93 71 86 100 99 16 57 76 90 100 100 100 100 100 100 88 96 90 94 100 98 89 99 99 99 100 98 100 97 99 100 100 97 98 96 92 77 33 46 25 28 100 94 100
65 77 47 32 30 52 84 72 100 99 95 97 96 100 97 5 26 99 98 100 100 100 100 100 91 92 100 100 100 98 99 18 5 44 100 89 51 7 34 79 92 100 100 91 50 95 84 100 100 100 100 93 94 100
64 74 100 100 100 57 42 62 20 34 100 100 97 78 76 89 100 100 100 100 100 100 91 88 79 56 96 100 100 100 90 32 39 96 97 94 97 98 91 100 100 100 100 100 99 100 100 100 100 100 100 100 100 100
100 100 84 66 50 23 98 97 98 100 100 100 65 92 80 83 98 100 99 100 100 94 83 69 27 7 66 97 98 99 93 91 69 5 5 5 7 15 7 51 80 97 80 75 98 100 100 100 100 100 100 100 99 83
86 64 7 95 34 66 98 100 100 100 100 55 53 98 100 100 100 100 100 97 94 90 81 78 86 77 53 7 47 50 7 5 5 6 79 100 91 63 100 92 78 100 100 89 63 97 92 98 99 99 99 97 90 98
16 38 84 79 57 100 100 92 98 92 25 58 29 95 94 100 100 100 98 95 94 95 100 87 85 88 93 71 100 97 100 96 46 28 100 100 100 100 100 100 100 100 100 100 100 83 96 78 58 52 48 28 17 93
38 18 47 71 98 98 89 75 37 8 5 34 27 47 59 96 100 100 94 86 82 80 95 97 100 100 100 100 100 98 92 70 100 100 100 100 100 100 100 100 100 100 100 100 100 100 100 100 100 100 60 32 19 56
83 95 61 86 100 100 100 96 94 92 89 96 99 94 94 23 94 97 97 100 100 93 100 100 100 95 91 98 98 98 33 92 100 100 100 100 100 100 100 100 100 100 100 100 100 100 100 100 100 90 100 100 50 60
72 22 74 90 94 100 100 100 95 97 81 86 95 92 84 55 48 96 100 88 34 5 5 59 100 90 98 69 42 95 93 98 97 100 100 100 100 99 67 91 96 100 100 100 100 100 100 100 100 100 100 100 85 58

GFSWCAN_prec_cloud_045.txt.gz
Cloud_Cover
100 84 32 100 100 100 100 94 100 100 100 100 100 100 100 100 100 100 98 21 10 100 97 94 48 9 50 84 100 100 100 100 100 100 100 98 100 85 98 90 100 100 100 100 66 48 84 23 5 1 0 0 5 4
100 100 25 100 100 100 100 100 100 100 100 100 100 100 100 100 100 100 100 95 64 100 100 100 74 31 34 98 100 100 100 100 100 100 100 100 100 100 100 100 100 100 100 100 63 5 5 66 5 3 0 5 5 3
100 100 100 100 100 100 100 100 100 100 100 100 100 100 100 100 100 100 100 86 100 100 99 100 100 65 12 97 100 100 100 100 100 100 100 100 100 100 100 100 100 100 100 100 82 39 96 31 44 8 10 10 2 5
100 100 100 100 100 100 100 100 100 100 100 100 100 100 100 100 100 100 88 75 100 100 86 100 100 100 100 99 100 100 100 100 100 100 100 100 100 100 100 100 100 100 100 100 36 99 98 36 40 48 94 5 5 5
100 100 100 100 100 100 100 100 100 100 100 100 100 100 100 100 100 100 97 18 32 100 100 100 100 100 100 98 100 100 100 100 100 100 100 100 100 100 100 100 100 100 100 100 99 100 23 86 100 100 84 97 10 77
100 100 100 100 100 100 100 100 100 100 100 100 100 100 100 100 90 76 82 18 89 100 100 100 70 97 40 81 100 100 100 100 100 100 100 100 100 100 100 100 100 100 100 100 100 100 100 95 97 100 100 99 98 100
100 100 100 100 100 100 100 100 100 100 100 100 100 100 100 100 100 62 53 100 100 80 100 100 80 59 56 74 100 100 100 56 83 100 100 100 100 100 100 100 100 100 100 100 100 100 100 100 100 100 100 100 66 99
100 100 100 100 100 100 100 100 100 100 100 100 100 100 100 100 100 50 99 94 100 99 100 100 100 68 53 100 99 100 100 98 91 100 100 100 100 100 100 100 100 100 100 100 100 100 100 100 100 100 100 100 100 100
92 100 100 100 96 96 100 68 100 100 100 100 100 100 100 100 99 83 100 100 100 100 100 100 100 87 100 100 100 100 100 100 92 100 100 100 100 100 100 100 100 100 100 100 100 100 100 100 100 100 100 100 100 100
100 99 100 100 78 100 100 100 98 11 93 74 22 100 100 93 81 98 100 100 100 100 100 100 100 100 89 98 99 96 100 100 100 100 100 100 100 100 100 93 100 100 100 100 100 100 100 100 100 100 100 100 100 100
5 7 90 100 92 100 100 89 45 11 70 98 99 100 12 30 70 89 100 100 100 100 100 100 100 100 69 100 97 100 100 100 100 100 100 100 100 100 70 76 100 100 100 100 100 100 100 100 100 100 100 100 100 100
1 12 100 100 100 100 100 100 99 100 100 100 62 33 99 66 47 100 100 100 100 100 100 100 100 100 96 32 97 100 100 100 100 100 100 100 100 100 100 99 92 100 100 100 100 100 100 100 100 100 100 100 100 100
4 2 24 98 100 100 100 100 97 100 96 51 100 100 100 100 100 100 100 100 100 100 100 100 100 100 100 98 100 100 100 99 100 100 100 100 100 100 100 100 100 100 100 100 100 100 100 100 100 100 100 100 100 100
95 100 100 100 100 99 100 100 100 100 100 100 100 100 83 62 80 100 100 100 100 100 100 100 100 100 100 100 100 100 100 100 100 100 100 100 100 100 100 100 100 100 100 100 100 100 100 100 100 100 100 100 100 100
100 100 100 100 100 100 100 100 100 100 100 100 85 100 100 100 100 100 100 100 100 100 100 100 100 100 100 100 100 100 100 100 99 100 100 100 100 100 100 100 100 100 100 100 100 100 100 100 100 100 100 100 100 100
100 100 100 100 100 100 100 100 100 100 100 100 100 100 100 100 100 100 100 100 100 100 100 100 100 100 100 100 100 100 100 100 100 100 100 100 100 100 100 100 100 100 100 100 100 100 100 100 100 100 100 100 100 100
100 100 100 100 100 100 100 100 100 100 100 100 100 100 100 100 100 100 100 100 100 100 100 100 100 100 100 100 100 100 100 100 100 100 100 100 100 100 100 100 100 100 100 100 100 100 100 100 100 100 100 100 100 100
100 100 100 100 100 100 100 100 100 100 100 100 100 100 100 100 100 100 100 100 100 100 100 100 100 100 100 100 100 100 100 100 100 100 100 100 100 100 100 100 100 100 100 100 100 100 100 100 100 100 100 100 100 100
100 100 100 100 100 100 100 100 100 100 100 100 100 100 100 100 100 100 100 100 100 100 100 100 81 91 100 100 100 100 100 100 100 100 100 100 100 100 100 100 100 100 100 100 100 100 100 100 100 100 100 100 100 100
100 100 100 100 100 100 100 100 100 100 100 100 100 100 100 100 81 94 100 100 100 100 100 99 100 100 100 100 100 100 100 100 100 100 100 100 100 100 100 100 100 100 100 100 100 100 100 100 100 100 100 100 100 100
100 100 100 100 100 100 100 100 99 98 100 100 100 100 100 100 100 85 63 61 94 98 100 100 100 100 100 100 100 100 100 100 100 100 100 100 100 100 100 100 100 100 100 100 100 100 100 100 100 100 100 100 100 100
100 100 100 100 100 100 98 90 74 86 46 99 94 95 100 98 84 98 85 57 97 100 100 100 100 100 100 100 100 100 100 100 100 100 100 100 100 100 100 100 100 100 100 100 100 100 100 100 100 100 100 100 100 100
100 100 100 100 100 100 100 100 96 94 92 93 94 100 100 100 98 90 90 100 100 100 100 100 100 100 100 100 100 100 100 100 100 100 100 100 100 100 100 100 100 100 100 100 100 100 100 100 100 100 100 100 100 100
94 100 99 99 64 67 51 53 54 58 57 59 51 80 91 62 65 86 100 100 100 100 100 100 100 100 100 100 100 100 100 98 92 100 82 100 100 100 100 100 100 100 100 100 100 100 100 100 100 100 100 71 61 58
16 27 5 5 14 7 46 98 69 8 99 65 54 98 78 5 28 67 95 100 100 100 100 100 100 100 94 95 98 100 60 17 5 6 66 8 42 60 78 99 100 100 94 55 72 67 74 67 69 61 53 76 39 64
52 73 49 92 91 36 83 100 100 100 96 92 88 88 33 13 26 98 100 89 86 100 96 98 90 96 100 100 100 94 97 19 5 21 100 98 74 51 59 65 62 99 100 100 100 96 92 96 99 96 67 38 87 100
86 53 41 59 11 17 89 75 19 20 100 99 94 87 48 90 100 100 100 93 84 93 40 63 57 92 100 100 99 96 56 5 26 72 97 91 86 80 64 94 100 100 100 96 100 100 100 100 100 100 99 92 90 100
83 36 54 75 48 22 100 99 97 100 100 100 7 91 78 46 96 99 100 96 85 70 69 70 88 87 98 100 98 90 89 50 5 5 19 40 90 85 59 78 93 100 52 34 92 83 100 100 100 100 100 100 94 83
96 94 57 94 41 64 99 100 100 100 100 50 49 100 100 100 100 99 100 100 100 98 84 74 84 38 56 66 74 66 16 5 5 5 11 61 68 46 100 98 100 99 100 78 62 80 98 66 97 5 8 43 61 68
69 51 75 61 75 100 99 78 88 63 39 53 40 94 98 100 100 100 100 100 100 87 89 82 90 9 53 36 84 44 94 95 45 20 92 100 100 100 100 100 100 100 100 100 100 75 90 46 49 6 5 5 16 46
97 70 72 71 90 92 62 80 54 24 21 22 46 56 77 94 100 99 90 76 76 84 80 100 100 100 52 94 89 60 28 40 100 100 100 100 100 100 100 100 100 100 100 100 100 100 100 100 100 78 56 30 9 50
100 100 71 84 100 100 95 100 99 94 100 91 94 96 94 41 94 100 94 93 88 74 99 100 100 97 91 96 100 98 95 91 100 100 100 100 100 100 89 76 100 100 100 100 100 100 100 100 96 84 78 69 59 54
100 95 79 95 92 99 97 99 86 82 90 98 99 99 87 24 37 85 100 74 18 5 5 71 95 99 84 62 38 100 98 98 100 100 100 100 100 100 96 95 66 72 100 100 98 79 66 82 68 61 33 49 43 52

GFSWCAN_prec_cloud_048.txt.gz
Cloud_Cover
100 5 5 62 75 94 73 100 100 100 100 100 79 100 100 100 100 100 100 100 100 100 96 30 100 90 12 99 55 34 100 100 100 100 78 10 100 100 100 100 100 100 100 100 99 32 99 100 5 5 9 5 2 1
89 33 87 35 87 80 88 97 100 100 100 100 100 100 100 100 100 100 100 100 100 100 98 96 53 33 100 79 22 74 3 98 100 94 76 28 100 100 100 100 100 100 100 100 98 82 100 100 98 85 5 5 16 29
100 34 73 100 100 100 88 89 73 21 100 100 100 100 100 100 100 100 100 100 100 93 88 98 74 100 100 94 93 85 90 100 84 100 100 100 100 100 100 100 100 100 100 100 92 99 100 100 100 92 18 5 100 78
100 100 96 100 100 100 100 100 100 100 100 100 100 100 100 100 100 100 100 100 100 58 73 67 100 100 66 81 7 59 44 82 99 100 78 91 100 100 100 100 100 100 100 100 70 100 100 100 98 47 38 100 100 100
100 100 100 100 100 100 100 100 100 100 100 100 100 100 100 100 100 100 100 100 97 92 59 100 100 100 48 54 6 85 74 12 60 100 60 56 100 100 100 100 99 98 99 100 100 100 100 99 95 34 57 100 100 100
100 100 100 100 100 100 100 100 100 100 100 100 100 100 100 100 100 100 99 94 72 69 100 100 100 100 100 94 22 9 5 5 5 40 67 8 100 100 100 100 100 100 100 100 100 100 100 100 100 100 66 82 86 100
100 100 100 100 100 100 100 100 100 100 100 100 100 100 100 100 100 100 100 100 32 98 100 100 100 100 100 100 100 28 5 6 5 59 100 100 100 100 100 100 100 100 100 100 100 100 100 100 100 100 73 100 100 97
100 100 100 100 100 100 100 100 100 100 100 100 100 100 100 100 100 100 100 84 78 40 100 100 100 100 100 100 99 100 84 90 37 83 100 100 100 97 90 100 100 100 100 100 100 100 100 100 100 100 100 100 100 75
100 100 100 100 100 100 100 100 100 100 100 100 100 100 100 100 83 98 100 100 67 30 94 100 100 63 66 94 100 100 100 100 53 45 83 100 100 96 100 100 100 100 100 100 100 100 100 100 100 100 100 100 100 100
100 100 100 100 100 100 100 100 100 100 100 100 100 100 99 60 100 78 96 95 89 16 100 100 100 100 100 100 100 62 100 100 100 98 35 100 100 100 100 100 100 100 100 100 100 100 100 100 100 100 100 100 100 100
100 100 100 92 69 97 100 100 100 100 100 100 100 100 96 100 100 100 100 100 100 100 100 88 88 94 100 100 100 73 93 100 100 100 64 100 100 100 100 100 100 100 100 100 100 100 100 66 58 97 100 100 100 100
100 97 68 99 76 26 65 98 98 100 93 82 100 100 81 91 98 84 100 96 100 100 100 100 74 85 100 100 100 100 100 100 100 100 100 100 100 100 100 100 100 100 100 100 100 100 100 100 100 100 100 100 100 100
100 94 80 38 66 87 87 100 100 94 100 97 83 88 98 100 99 100 100 100 100 100 100 100 100 100 100 94 100 100 100 100 100 100 100 100 100 100 100 100 100 100 100 100 100 100 100 100 100 100 100 100 100 100
100 100 94 96 100 100 100 100 100 100 100 100 99 99 86 99 100 100 100 100 100 100 100 100 100 100 100 100 100 100 100 100 100 100 100 100 100 100 100 100 100 100 100 100 100 100 100 100 100 100 100 100 100 100
100 100 100 100 100 100 100 93 99 99 100 100 90 100 100 100 98 100 100 100 100 100 100 100 100 100 100 100 100 98 100 100 100 100 100 100 100 100 100 100 100 100 100 100 100 100 100 100 100 100 100 100 100 100
100 100 100 100 100 100 100 100 100 100 100 100 100 100 100 100 100 100 91 100 100 100 100 100 100 100 100 100 92 100 100 100 100 100 100 100 100 100 100 100 100 100 100 100 100 100 100 100 100 100 100 100 100 100
100 100 100 100 100 100 100 100 100 100 100 100 100 100 100 100 100 100 100 100 100 100 100 100 100 100 100 100 100 100 100 100 100 100 100 100 100 100 100 100 100 100 100 100 100 100 100 100 100 100 100 100 100 100
100 100 100 100 100 100 100 100 100 100 100 100 100 100 100 100 100 100 100 100 100 100 100 100 98 98 100 100 100 100 100 100 100 100 100 100 100 100 100 100 100 100 100 100 100 100 100 100 100 100 100 100 100 100
100 100 100 100 100 100 100 100 100 100 100 100 100 100 100 100 100 100 100 100 100 100 100 100 100 100 100 100 100 100 100 100 100 100 100 100 100 100 100 100 100 100 100 100 100 100 100 100 100 100 100 100 100 100
100 100 100 100 100 100 100 100 100 100 100 100 100 100 100 100 100 100 100 100 100 100 100 100 100 100 100 100 100 100 100 100 100 100 100 100 100 100 100 100 100 100 100 100 100 100 100 100 100 100 100 100 100 100
100 100 100 100 100 100 100 100 100 100 100 100 100 100 100 100 100 100 99 98 100 100 100 100 100 100 100 100 100 100 100 100 100 100 100 100 100 100 100 100 100 100 100 100 100 100 100 100 100 100 100 100 100 100
100 100 100 100 100 100 100 86 100 100 98 99 97 89 82 92 74 70 58 99 100 100 100 100 100 100 100 100 100 100 100 100 100 100 100 100 100 100 100 100 100 100 100 100 100 100 100 100 100 100 100 100 100 100
100 100 100 100 100 96 62 20 26 66 70 81 81 75 64 53 52 36 94 100 100 100 100 100 100 100 100 100 100 99 100 100 100 100 99 93 80 70 64 71 94 84 89 98 79 90 86 84 92 84 89 84 84 98
100 96 77 56 24 27 7 5 5 9 11 62 86 100 87 77 20 51 100 100 100 100 100 100 100 100 100 100 100 100 92 18 34 18 5 5 5 5 5 5 54 76 64 66 72 83 90 97 56 83 90 98 98 100
70 82 39 35 28 39 55 84 73 58 95 79 95 98 97 29 80 96 100 100 100 100 100 100 100 100 98 98 92 48 12 5 5 5 5 5 52 5 5 24 85 96 100 99 100 100 100 100 100 100 100 100 92 100
98 93 76 85 58 36 79 92 100 97 100 99 100 79 5 5 70 100 100 100 100 100 100 100 100 100 100 100 100 90 78 13 5 5 9 5 5 17 5 22 16 67 100 100 100 100 100 100 100 100 100 100 100 99
38 64 81 90 81 42 88 83 63 56 100 100 93 40 5 38 100 100 100 100 100 100 100 100 100 100 100 100 99 83 8 5 5 5 43 44 59 74 88 75 90 100 100 100 100 100 100 100 100 100 100 100 100 100
24 5 5 66 37 42 62 70 75 100 100 91 7 63 28 72 100 100 100 100 98 85 93 100 100 100 100 100 100 100 100 88 96 78 100 100 100 100 100 100 99 96 94 96 100 100 100 100 100 100 100 100 100 100
64 47 19 34 53 95 100 100 100 100 100 70 64 99 100 100 100 100 100 100 100 100 100 93 91 88 80 70 86 82 75 49 31 0 4 5 79 100 100 100 100 100 100 100 86 100 100 100 100 93 83 97 100 100
99 84 98 100 100 100 100 100 100 100 100 100 99 100 100 100 100 100 100 100 100 100 100 100 100 78 25 72 91 98 98 72 76 48 23 60 100 100 100 100 100 100 100 100 100 100 65 80 100 100 91 100 99 91
100 100 100 100 100 99 80 41 27 25 80 92 97 97 100 100 100 100 100 100 89 82 83 76 87 94 94 88 64 10 47 93 80 97 96 100 100 100 100 100 100 100 100 100 100 100 89 94 100 100 98 93 93 94
100 100 100 100 100 96 97 100 100 94 96 100 100 99 100 100 100 100 100 100 100 100 67 82 99 100 100 88 44 55 89 76 99 100 100 100 100 100 100 100 100 100 100 100 100 100 97 93 99 96 97 96 91 91
100 100 100 100 100 100 100 100 98 100 100 100 100 100 100 90 86 100 100 98 97 83 63 82 100 100 75 57 84 94 77 99 93 100 100 100 100 99 95 100 100 100 94 98 100 94 81 80 84 86 94 94 98 94

GFSWCAN_prec_cloud_051.txt.gz
Cloud_Cover
100 72 17 5 5 5 94 73 99 5 100 100 100 100 100 100 100 100 98 100 100 100 100 100 100 100 90 81 38 97 64 100 100 100 51 84 100 100 100 100 100 100 99 81 100 92 68 100 100 100 85 12 12 0
100 9 5 5 26 79 97 99 100 98 100 100 100 100 100 100 100 100 100 100 100 100 100 100 100 100 99 96 79 53 10 49 100 100 74 90 93 100 99 100 100 100 100 100 100 100 100 100 100 100 99 10 5 5
100 69 100 66 41 9 79 100 100 100 100 100 100 100 100 100 100 100 100 100 100 100 100 100 100 100 100 42 100 77 8 98 100 100 100 100 100 100 100 100 100 100 100 88 100 100 100 100 100 100 100 100 94 5
100 95 100 49 92 93 67 92 97 100 100 100 100 97 82 100 100 100 100 100 100 100 100 100 100 98 49 82 55 47 3 87 100 96 45 77 36 99 100 100 100 100 99 28 92 100 100 100 100 100 100 95 100 42
100 100 100 100 100 100 100 100 100 100 100 100 100 100 100 100 100 100 100 100 100 100 100 100 100 71 25 99 63 61 70 65 100 95 44 16 3 55 32 100 100 100 100 100 100 100 100 100 100 100 100 100 77 69
100 100 100 100 100 100 100 98 100 100 100 100 100 100 100 100 100 100 100 100 100 100 100 100 85 5 5 52 100 99 99 99 100 99 5 5 26 19 44 100 100 100 100 100 100 100 100 100 100 100 100 100 52 22
100 100 100 100 100 100 100 100 100 100 100 100 100 100 100 100 100 100 100 100 100 100 100 94 81 28 48 46 100 48 43 100 100 99 78 98 89 89 23 100 100 100 100 100 100 100 100 100 100 100 100 99 100 67
100 100 100 100 100 100 100 100 100 100 100 100 100 100 100 100 100 100 100 100 98 78 54 69 100 100 67 64 95 95 94 100 96 73 78 97 100 96 69 100 100 100 100 100 100 100 100 100 100 100 100 100 100 93
100 100 100 100 100 100 100 100 100 100 100 100 100 100 100 100 100 100 98 19 28 27 28 56 100 100 100 100 100 100 100 65 49 12 30 73 33 34 44 100 100 100 100 100 100 100 100 100 100 100 100 100 100 98
100 100 100 100 100 100 100 100 100 100 100 100 100 99 100 88 85 59 68 100 100 72 100 100 100 100 100 100 100 100 100 100 95 100 65 62 100 96 100 100 100 100 100 100 100 100 100 100 100 100 100 100 100 100
46 91 100 100 100 100 100 100 100 100 100 95 98 88 92 97 96 100 100 100 100 100 100 91 100 100 99 100 100 100 100 100 100 98 67 92 81 100 100 100 100 100 100 100 100 100 100 100 100 100 100 95 100 100
71 5 14 45 79 100 96 100 100 100 100 100 100 100 100 100 100 98 92 94 76 41 100 100 100 100 100 100 100 100 100 100 100 100 100 100 100 98 100 100 100 100 100 100 100 100 100 100 100 100 100 100 100 100
100 100 89 38 96 100 97 100 100 96 83 87 100 100 100 98 92 100 98 96 95 100 100 100 100 97 98 100 100 100 100 100 100 100 100 100 100 100 100 100 100 100 100 100 100 100 100 100 100 100 100 100 100 100
100 100 79 98 99 78 100 100 97 82 55 100 100 91 100 100 100 100 100 100 100 100 100 100 100 100 100 100 100 100 100 100 100 100 100 100 100 100 100 100 100 100 100 100 100 100 100 100 100 100 100 100 100 100
100 100 100 87 100 100 100 100 100 100 100 90 57 99 100 99 98 100 100 100 100 100 100 100 100 100 100 100 100 98 100 100 100 100 100 100 100 100 100 100 100 100 100 100 100 100 100 100 100 100 100 100 100 100
100 95 92 92 100 100 93 98 95 100 100 56 87 100 100 100 100 100 100 100 100 100 100 100 100 100 100 100 95 100 100 100 100 100 100 100 100 100 100 100 100 100 100 100 100 100 100 100 100 100 100 100 100 100
100 100 100 100 99 100 100 90 100 100 100 100 100 100 100 100 100 100 100 100 100 100 100 100 100 100 100 100 100 100 100 100 100 100 100 100 100 100 100 100 100 100 100 100 100 100 100 100 100 100 100 100 100 100
100 100 100 100 100 100 100 100 100 100 100 100 100 100 100 100 100 100 100 100 100 100 100 100 100 100 100 100 100 100 100 100 100 100 100 100 100 100 100 100 100 100 100 100 100 100 100 100 100 100 100 100 100 100
100 100 100 100 100 100 100 100 100 100 100 100 100 100 100 100 100 100 100 100 100 100 100 100 100 100 100 100 100 100 100 100 100 100 100 100 100 100 100 100 100 100 100 100 100 100 100 100 100 100 100 100 100 100
100 100 100 100 100 86 68 100 100 100 100 100 100 100 100 100 100 100 100 100 100 100 100 100 100 100 100 100 100 100 100 100 100 100 100 100 100 100 100 100 100 100 100 100 100 100 100 100 100 100 100 100 100 100
100 100 98 100 100 100 100 100 100 100 100 100 100 100 100 100 100 100 100 100 100 100 100 100 100 100 100 100 100 100 100 100 100 100 100 100 100 100 100 100 100 100 100 100 100 100 100 100 100 100 100 100 100 100
100 100 96 100 100 100 100 100 100 100 100 100 100 98 100 100 100 99 94 100 100 100 100 100 100 100 100 100 100 100 100 100 100 100 100 100 100 100 100 100 100 99 98 97 97 100 99 100 100 100 100 100 100 100
100 100 97 97 100 100 100 99 98 99 100 100 100 100 99 98 100 100 100 100 100 100 100 100 100 100 100 100 100 100 100 100 100 98 100 100 99 98 95 94 100 98 94 93 94 100 100 86 83 100 100 100 100 100
86 100 100 100 84 55 22 44 22 51 83 89 96 97 84 88 69 97 100 100 100 100 100 100 100 100 100 100 100 99 100 94 100 100 100 80 63 57 58 64 90 100 100 100 100 100 100 100 96 99 100 100 100 100
99 81 23 10 6 5 5 56 86 48 99 94 100 95 98 94 100 97 100 100 100 100 100 100 100 100 100 99 100 99 76 70 52 8 58 100 100 100 100 98 85 80 100 100 100 100 100 100 100 100 100 100 100 100
100 100 61 66 38 43 54 58 78 92 96 100 100 96 95 100 100 100 100 100 100 100 100 100 100 100 100 100 99 95 90 88 18 5 5 5 17 76 68 53 80 96 100 100 100 100 100 100 100 100 100 100 100 100
98 94 88 86 73 35 50 79 70 58 95 100 100 100 89 86 100 100 100 100 100 100 100 100 100 100 100 100 96 73 31 5 5 5 5 5 30 75 98 100 97 100 100 100 100 100 100 100 100 100 100 100 100 100
100 100 100 100 90 32 22 7 53 86 99 80 8 70 83 97 100 100 100 100 100 100 100 100 100 100 100 100 100 100 99 92 88 86 100 100 100 100 100 100 85 93 100 100 100 100 100 100 100 100 100 100 100 100
99 83 36 41 8 62 96 98 100 100 100 92 80 90 100 100 100 100 100 100 100 100 100 100 100 100 100 100 100 100 100 91 45 3 10 85 100 100 100 100 100 100 100 100 100 100 100 100 100 100 100 100 100 100
64 79 5 38 51 96 100 100 100 100 100 96 84 100 100 100 100 100 100 100 100 100 100 100 100 100 100 100 100 100 100 90 99 100 100 100 100 100 100 100 100 100 100 100 100 100 99 100 100 100 100 100 100 100
93 89 44 72 99 100 100 100 100 100 100 100 100 99 100 100 100 100 100 100 100 100 100 100 100 100 100 100 100 100 100 100 93 96 89 100 100 100 100 100 100 100 100 100 100 100 100 96 100 100 100 100 100 99
100 94 85 83 100 100 100 100 100 100 100 100 100 100 100 100 100 100 100 100 100 100 95 100 100 100 100 100 94 68 29 98 100 100 100 100 100 100 100 100 100 100 100 100 100 100 100 100 100 100 100 100 100 100
100 100 100 100 99 100 100 100 100 98 100 100 100 100 100 100 100 100 100 100 100 100 100 100 100 100 99 98 97 94 56 100 75 77 77 91 99 83 79 100 100 100 100 100 100 100 100 100 100 100 100 100 100 100

GFSWCAN_prec_cloud_054.txt.gz
Cloud_Cover
100 94 96 62 93 49 5 32 8 5 5 59 100 90 86 88 100 100 100 100 94 100 100 100 100 100 100 100 99 76 100 100 14 26 3 22 100 100 97 99 100 96 100 100 97 88 35 100 100 100 100 100 96 23
96 100 96 95 27 5 5 75 76 100 100 100 100 82 100 96 100 100 100 100 100 100 100 100 100 100 100 100 100 100 100 100 22 100 82 59 96 100 100 100 100 100 78 100 100 36 17 99 100 100 100 100 100 94
100 94 8 53 56 27 78 100 100 86 53 100 35 100 100 100 100 100 100 100 100 100 100 100 100 100 100 100 100 100 75 5 5 99 100 52 89 99 100 100 100 100 100 100 100 80 91 100 100 100 100 50 100 100
100 100 86 56 64 100 100 100 100 100 100 98 92 61 100 100 100 100 100 100 100 100 100 100 100 100 100 100 82 100 98 20 87 88 100 60 6 17 100 100 100 100 100 100 99 92 100 100 100 100 100 100 96 100
100 100 100 100 100 71 100 100 100 100 100 100 100 100 100 100 100 100 100 100 100 100 100 100 100 100 100 62 97 100 100 26 65 81 39 0 5 20 95 100 100 100 100 83 97 100 100 100 100 100 100 100 100 100
100 100 100 100 100 100 100 100 100 100 100 100 100 100 100 100 100 100 100 100 100 100 100 92 62 87 100 100 100 100 100 34 31 100 100 87 100 8 17 100 100 100 100 100 100 100 100 100 100 100 100 100 100 100
100 92 100 100 100 91 51 98 87 100 100 100 100 100 100 100 100 100 100 100 97 100 100 100 100 100 100 100 100 100 98 5 78 97 92 73 100 88 54 100 100 100 100 100 100 100 100 100 100 100 100 100 100 100
100 100 100 100 100 100 100 93 100 90 96 100 100 100 100 100 100 100 100 100 100 100 100 100 100 83 100 100 100 100 95 98 100 100 62 5 92 83 50 100 100 100 100 100 100 100 100 100 100 100 100 100 100 100
100 100 100 100 100 100 100 100 100 100 100 100 100 100 100 100 100 100 100 100 100 100 100 100 100 100 100 94 44 40 66 98 96 100 100 88 56 66 100 100 100 100 100 100 100 100 100 100 100 100 100 100 100 100
100 100 100 100 100 100 100 100 100 100 100 100 100 100 100 100 100 100 100 100 100 100 100 90 25 100 100 100 72 39 72 80 100 100 100 100 92 100 100 100 100 100 100 100 100 100 100 100 100 100 100 100 100 100
100 100 100 100 100 100 100 100 100 100 100 100 100 100 100 100 100 100 98 79 72 99 72 100 100 100 100 100 100 21 67 86 100 60 35 63 100 100 100 100 100 100 100 100 100 100 100 100 100 100 100 100 100 100
100 100 100 100 100 100 100 100 100 100 100 100 100 100 100 100 100 100 72 100 100 99 100 100 100 100 100 100 100 100 100 100 100 99 97 100 100 100 100 100 100 100 100 100 100 100 100 100 100 100 100 100 100 100
88 90 100 100 100 100 100 100 100 100 100 86 94 100 100 92 93 97 82 94 100 100 100 100 100 100 100 100 100 100 100 100 100 100 100 100 100 100 100 100 100 100 100 100 100 100 100 100 100 100 100 100 100 100
9 10 44 36 93 100 100 100 88 89 100 87 80 66 71 98 100 100 100 100 100 100 100 100 100 100 100 100 100 100 100 100 100 100 100 100 100 100 100 100 100 100 100 100 100 100 100 100 100 100 100 100 100 100
99 96 100 95 100 100 100 100 100 100 97 57 99 98 100 100 100 100 100 99 97 100 100 100 100 100 100 100 99 100 100 100 100 100 100 100 100 100 100 100 100 100 100 100 100 100 100 100 100 100 100 100 100 100
94 95 78 72 99 100 100 86 100 65 98 76 97 100 100 100 100 100 100 100 100 100 100 100 100 100 100 100 100 100 100 100 100 100 100 100 100 100 100 100 100 100 100 100 100 100 100 100 100 100 100 100 100 100
96 80 61 28 44 14 94 81 36 80 100 100 100 100 100 100 100 100 100 100 100 100 100 100 86 100 100 100 100 100 100 100 100 100 100 100 100 100 100 100 100 100 100 100 100 100 100 100 100 100 100 100 100 100
100 100 100 100 54 54 68 94 100 100 100 100 100 100 100 100 100 100 100 100 100 100 100 100 100 100 100 100 100 100 100 100 100 100 100 100 100 100 100 100 100 100 100 100 100 100 100 100 100 100 100 100 100 100
100 100 100 100 100 100 100 100 100 100 100 100 100 100 100 100 100 100 100 100 100 100 100 100 100 100 100 100 100 100 100 100 100 100 100 100 100 100 100 100 100 100 100 100 100 100 100 100 100 100 100 100 100 100
100 100 100 100 100 100 100 100 100 100 100 100 100 100 100 100 100 100 100 100 100 100 100 100 100 100 100 100 100 100 100 100 100 100 100 100 100 100 100 100 100 100 100 100 100 100 100 100 100 100 100 100 100 100
100 100 100 100 57 89 100 100 100 100 100 100 100 100 100 100 100 100 100 100 100 100 100 100 100 100 100 100 100 100 100 100 100 100 100 100 100 100 100 100 100 100 100 100 100 100 100 100 100 100 99 94 100 100
100 100 100 100 100 100 100 100 100 100 100 100 100 100 100 100 100 100 100 100 100 100 100 100 100 100 100 100 100 100 100 100 100 100 100 100 100 100 100 100 100 100 100 100 100 100 100 75 100 96 81 100 93 32
100 100 97 100 100 100 100 100 100 100 100 100 100 100 100 100 99 84 98 100 100 100 100 100 100 100 100 100 100 100 100 100 100 100 100 100 100 100 100 100 100 100 100 100 100 100 100 100 76 93 99 99 97 100
100 100 100 100 100 83 51 50 64 78 82 89 89 100 91 96 89 98 100 100 100 100 100 100 100 100 99 100 100 100 100 100 100 100 100 100 100 94 72 59 80 100 100 100 100 100 100 100 92 100 89 92 62 97
95 87 100 100 99 43 51 64 87 75 96 96 99 99 98 99 100 100 100 100 100 100 100 100 100 100 100 100 100 100 100 94 85 12 35 96 100 100 100 80 68 98 100 100 100 100 96 96 93 97 99 69 64 100
100 100 85 73 39 49 55 73 78 87 89 99 100 100 92 100 99 100 100 100 100 100 100 100 100 100 100 100 100 100 100 100 80 23 8 10 60 100 100 99 100 100 100 100 100 100 100 100 100 100 100 100 97 100
100 100 100 100 100 96 98 100 95 58 88 98 100 100 93 88 100 100 100 100 100 100 100 100 100 100 100 100 100 100 75 5 5 27 52 75 94 100 100 100 100 98 100 100 100 100 100 100 100 100 100 100 100 100
100 100 100 100 100 100 100 86 80 99 100 72 56 83 99 100 100 100 100 100 100 100 100 100 100 99 100 100 100 100 100 68 6 61 100 100 100 100 100 100 94 94 100 87 76 100 100 100 100 100 100 100 100 100
100 100 100 100 96 80 99 100 100 100 87 100 98 100 100 100 100 100 100 100 100 100 100 100 100 100 100 100 100 100 100 91 55 7 18 97 100 100 100 100 100 100 100 100 100 100 89 97 100 74 89 100 100 100
100 100 100 100 100 100 100 100 100 100 93 32 81 97 100 100 100 100 100 100 100 100 100 100 100 100 100 100 100 100 100 96 100 100 100 100 100 100 100 100 100 100 100 100 100 100 100 35 100 100 100 100 100 87
100 100 100 100 100 100 100 100 100 100 100 100 99 94 100 100 100 100 100 100 100 100 100 100 100 100 100 100 100 100 100 96 31 20 79 98 100 100 100 100 100 100 100 100 100 100 100 100 100 100 100 100 100 100
100 100 100 100 100 100 100 100 100 100 100 100 100 100 100 100 100 100 100 100 100 100 78 100 100 100 96 100 91 17 27 93 100 99 98 100 100 100 99 100 100 100 100 100 100 100 100 100 100 100 100 100 100 100
100 100 100 100 100 100 96 100 100 100 100 100 100 100 100 99 100 100 100 100 100 100 100 100 100 100 73 93 95 64 99 75 6 38 30 35 19 28 58 100 100 99 100 100 100 100 100 100 100 100 100 100 100 100

GFSWCAN_prec_cloud_057.txt.gz
Cloud_Cover
100 100 100 100 98 51 6 5 5 5 5 25 10 17 88 100 100 100 100 100 100 100 100 100 100 100 99 54 100 100 100 100 100 5 4 5 85 55 100 100 100 100 100 100 100 100 81 100 100 100 100 100 100 100
100 100 100 98 20 9 5 5 5 5 5 65 5 18 40 100 100 100 100 100 97 99 100 100 100 76 100 100 100 100 100 100 5 2 5 4 89 28 100 100 100 100 100 100 100 58 28 100 82 100 100 100 100 82
100 100 100 87 43 14 12 61 99 98 97 80 63 64 72 99 100 100 100 100 100 100 100 100 57 100 100 100 93 100 100 98 6 1 10 42 15 84 99 100 100 100 100 100 81 99 100 100 100 100 100 100 100 100
100 100 100 99 100 40 80 100 100 73 100 88 97 100 100 100 100 100 100 100 100 100 100 100 100 100 100 88 100 53 38 77 100 95 100 72 65 35 53 60 97 100 100 100 44 100 100 100 100 100 100 100 100 100
100 100 100 100 84 70 100 100 100 100 100 32 90 100 100 100 100 100 100 100 100 100 100 100 100 68 85 93 80 68 100 100 100 100 98 100 98 99 52 79 100 100 100 100 85 100 100 100 99 100 100 100 100 100
100 100 100 100 24 100 100 100 100 100 77 97 100 100 100 100 100 100 100 100 100 100 100 100 42 99 100 100 100 100 100 100 100 100 90 100 100 100 100 44 100 100 100 100 100 100 100 97 100 88 100 100 100 100
100 100 100 100 6 100 100 100 100 100 100 100 100 100 100 100 100 95 100 100 98 100 100 99 97 100 100 98 100 100 100 100 100 100 100 100 100 100 99 45 100 100 100 19 23 41 25 98 100 100 100 100 100 100
100 100 100 100 29 94 100 100 100 100 100 100 100 100 100 100 100 100 100 99 100 95 100 83 97 71 92 86 100 98 100 100 100 100 100 100 100 100 100 100 100 100 100 32 36 100 88 98 100 100 100 100 100 100
100 100 100 100 66 68 95 91 100 100 100 100 100 100 100 100 100 100 77 86 94 94 98 100 96 92 99 100 100 100 100 100 100 99 85 100 100 100 100 100 100 100 100 98 100 100 100 100 100 100 100 100 100 100
100 100 100 100 100 100 100 100 100 100 100 98 100 83 100 100 100 100 100 100 100 100 100 100 100 100 100 100 100 100 100 100 100 94 99 100 100 100 100 100 100 100 100 100 100 100 100 100 100 100 100 100 100 100
100 100 100 100 100 100 100 100 100 100 100 100 100 100 100 100 100 100 100 100 100 100 100 100 100 100 100 100 100 100 100 100 64 44 100 100 100 100 100 100 100 100 100 100 100 100 100 100 100 100 100 100 100 100
100 100 100 100 100 100 100 100 100 100 100 100 100 100 100 100 100 100 100 100 100 100 100 100 100 100 100 100 100 95 78 98 95 100 100 100 100 90 97 100 100 100 100 100 100 100 100 100 100 100 100 100 100 100
100 100 100 100 100 100 100 100 100 100 100 100 100 100 100 100 96 89 100 98 94 100 100 100 100 100 100 100 100 100 100 100 100 100 100 100 100 100 100 100 100 100 100 100 100 100 100 100 100 100 100 100 100 100
100 100 100 100 100 100 100 100 100 100 100 100 99 84 77 86 91 95 97 99 100 100 100 100 100 100 100 100 100 100 100 100 100 100 100 100 100 100 100 100 97 100 100 100 100 100 100 100 100 100 100 100 100 100
98 100 100 100 99 100 100 100 100 81 90 77 94 99 100 100 99 99 96 97 99 100 100 100 100 99 100 100 100 100 100 100 100 100 100 100 100 100 100 100 100 100 100 100 100 100 100 100 100 100 100 100 100 100
100 100 100 100 90 96 70 47 97 99 100 100 100 100 100 100 100 95 96 99 100 100 100 100 99 100 100 100 100 100 100 100 100 100 100 100 100 100 100 100 100 100 100 100 100 100 100 100 100 100 100 100 100 100
86 96 98 30 90 63 99 100 88 88 100 100 100 100 100 100 100 100 100 100 100 100 100 100 100 100 100 100 100 100 100 100 100 100 100 100 100 100 100 100 100 100 100 100 100 100 100 100 100 100 100 100 100 100
95 86 48 74 99 32 100 100 100 100 100 100 100 100 100 100 100 100 100 99 87 94 100 100 100 100 100 98 100 100 100 100 100 100 100 100 100 100 100 100 100 100 100 100 100 100 100 100 100 100 100 100 100 100
100 99 96 78 11 88 81 99 100 100 100 100 100 100 100 100 100 100 100 100 100 100 100 100 100 100 100 100 100 100 100 100 100 100 100 100 100 100 100 100 100 100 100 100 100 100 100 100 100 100 100 100 100 100
100 100 89 79 100 100 100 98 99 100 100 100 100 100 100 100 100 100 100 100 100 100 100 99 100 100 100 100 100 100 100 100 100 100 100 100 100 100 100 100 100 100 100 100 100 100 100 100 100 100 99 100 98 99
100 100 100 100 100 100 100 100 100 100 100 100 100 100 100 100 100 100 100 100 100 100 100 100 100 100 100 100 100 100 100 100 100 100 100 100 100 100 100 100 100 100 100 100 100 100 100 100 100 100 81 39 61 68
100 100 100 100 100 100 100 100 100 100 100 100 100 100 100 100 100 100 100 100 100 100 100 100 100 100 100 100 100 100 100 100 100 100 100 100 100 100 100 100 100 100 100 98 86 84 90 70 32 49 96 97 73 68
100 100 100 100 100 100 100 100 100 100 100 100 100 100 93 85 84 82 87 100 100 100 99 97 99 99 100 100 99 96 92 96 83 100 100 100 100 100 89 47 85 89 77 86 70 58 53 97 34 5 5 50 93 100
100 100 100 100 100 100 100 72 81 78 82 80 73 81 80 86 19 53 99 100 98 97 100 94 68 39 22 7 74 100 100 58 74 100 100 47 5 5 4 5 24 86 100 100 59 6 17 12 100 88 5 5 68 100
100 100 100 100 100 92 52 73 96 100 94 76 68 98 80 55 76 99 96 100 100 99 99 100 98 82 42 64 62 44 5 0 2 5 74 94 100 99 38 5 5 5 5 10 100 42 5 5 19 100 55 6 13 79
99 90 97 100 99 99 98 84 69 87 100 99 100 93 84 24 36 100 98 99 99 90 98 100 34 29 39 9 5 6 91 58 0 5 5 5 10 46 58 89 49 74 9 36 64 92 36 67 5 14 80 99 22 5
100 100 100 100 100 100 100 100 100 100 100 98 79 99 65 47 99 88 100 89 84 91 56 92 74 6 5 5 5 5 5 4 5 5 8 5 5 5 5 12 32 99 65 5 20 90 78 84 93 94 19 81 10 21
100 100 100 100 100 100 100 100 100 100 88 81 55 38 79 96 100 100 81 89 5 52 59 68 15 30 89 98 100 100 100 97 56 80 48 58 48 11 52 94 96 48 96 95 53 6 5 6 13 22 5 38 68 99
100 100 100 100 100 100 100 100 100 100 88 100 48 82 87 98 100 81 73 26 58 32 10 46 40 5 9 5 5 5 5 30 40 8 92 100 100 97 21 8 91 29 49 80 90 98 97 79 39 99 93 48 60 99
100 100 100 100 100 100 100 98 100 54 36 9 57 96 92 100 100 99 100 100 99 91 83 80 98 100 100 87 92 76 44 17 54 90 89 99 96 100 66 5 75 22 51 94 60 15 92 28 8 84 100 100 100 51
100 100 100 100 100 96 69 31 7 7 18 56 7 5 73 78 100 97 83 82 56 5 7 58 70 61 27 85 90 97 99 31 5 5 5 7 90 100 10 18 86 37 82 93 5 28 96 81 12 5 24 53 95 96
100 100 100 83 93 99 100 100 98 100 77 26 54 47 94 84 94 64 57 48 89 100 99 99 72 94 27 52 6 14 18 81 68 45 61 65 83 42 5 23 100 100 50 6 11 67 91 98 92 100 98 36 5 40
97 84 82 72 93 73 97 98 76 96 97 84 66 98 89 99 97 96 43 83 98 93 91 66 49 5 13 94 42 15 73 27 32 36 79 86 13 7 20 9 5 5 5 5 5 49 99 100 100 100 100 83 87 91

GFSWCAN_prec_cloud_060.txt.gz
Cloud_Cover
100 85 58 99 100 100 100 100 100 100 100 100 100 100 100 100 100 100 100 100 100 100 100 100 100 92 100 100 100 100 100 18 99 86 90 7 6 4 0 2 0 100 100 100 100 100 100 100 100 88 81 100 100 100
100 97 96 100 100 100 100 97 100 100 100 76 61 68 98 99 100 100 100 100 100 100 100 100 100 100 100 100 100 99 76 98 80 13 8 5 7 5 0 4 1 5 77 100 100 100 100 100 100 100 70 96 100 100
100 100 100 100 100 98 92 84 90 21 5 5 5 5 28 96 77 100 100 100 100 100 100 100 100 100 91 92 92 18 49 53 70 13 88 100 12 5 4 5 0 88 100 99 100 100 100 100 100 100 100 100 100 100
100 98 100 100 100 89 20 62 98 100 100 100 67 16 74 57 97 99 100 100 100 100 100 100 100 100 100 100 81 78 94 98 62 100 100 95 9 5 5 96 17 62 98 100 100 100 100 100 98 44 100 69 98 100
100 100 100 100 100 100 100 100 100 100 100 100 100 99 100 100 98 100 100 100 100 100 66 63 97 100 99 99 86 100 100 100 99 100 100 99 20 58 30 90 4 93 100 100 100 100 100 100 90 94 100 100 100 100
100 100 100 100 100 100 100 85 94 53 100 100 100 100 100 100 100 100 100 100 100 100 100 100 100 100 88 98 98 100 100 100 90 89 100 100 100 18 6 2 59 100 100 100 100 100 100 100 100 100 100 100 100 100
100 97 95 100 100 100 100 100 100 54 100 100 100 100 100 100 100 100 100 100 100 100 100 100 100 100 100 83 77 18 11 16 46 100 100 100 100 100 91 86 100 100 100 100 100 100 100 100 100 100 100 100 100 100
100 100 100 99 100 100 100 100 100 100 84 34 100 100 100 100 100 100 100 100 100 100 98 100 100 73 45 83 100 100 100 100 100 100 100 100 100 100 100 100 100 100 100 100 59 100 100 100 100 84 79 98 95 100
100 100 97 46 100 100 100 100 100 100 100 100 100 100 100 100 100 100 100 99 100 82 57 100 99 98 100 100 100 100 100 100 100 100 100 100 100 100 100 100 100 100 100 100 100 100 100 100 34 42 32 100 100 100
100 100 100 100 100 100 100 100 100 100 100 100 99 100 100 100 100 100 100 100 100 100 100 100 70 100 100 100 100 100 100 100 100 100 100 100 100 100 99 98 100 100 100 100 100 100 100 89 100 100 100 100 100 100
100 100 100 100 100 87 100 100 100 100 100 100 100 100 98 96 100 95 87 100 89 50 84 90 85 100 100 100 100 100 100 100 100 100 100 100 100 95 89 74 96 100 100 100 100 100 100 100 100 100 100 100 96 89
100 100 100 100 100 100 100 100 100 98 93 100 100 100 100 100 100 100 100 100 99 98 100 100 100 100 100 100 100 100 100 100 100 96 79 99 100 100 97 87 92 100 100 100 100 100 100 100 100 100 100 100 100 100
100 100 100 100 100 100 100 100 100 100 100 100 100 100 100 100 100 100 100 100 100 100 100 100 100 100 100 100 100 100 100 100 100 100 99 100 100 100 100 100 100 100 100 100 100 100 100 100 100 100 100 100 100 100
100 100 100 100 100 100 100 100 100 100 100 100 100 100 100 100 100 100 100 100 100 100 100 100 100 100 100 100 100 100 100 100 100 100 100 100 100 100 100 100 100 100 100 100 100 100 100 100 100 100 100 100 100 100
100 100 99 100 100 100 100 100 100 100 100 100 100 100 100 100 97 97 100 88 100 100 100 100 100 100 100 100 100 100 100 100 100 100 100 100 100 100 100 100 100 100 100 100 100 100 100 100 100 100 100 100 100 100
100 99 78 97 100 100 100 100 100 100 100 100 100 100 100 98 98 84 90 100 100 100 100 100 100 100 100 100 100 100 100 100 100 100 100 100 100 100 100 100 100 100 100 100 100 100 100 100 100 100 100 100 100 100
60 72 100 100 100 100 100 100 100 100 100 100 100 100 100 99 100 98 99 100 100 100 100 100 100 100 100 100 100 100 100 100 100 100 100 100 100 100 100 100 100 100 100 100 100 100 100 100 100 100 100 100 100 100
7 5 7 12 79 100 100 100 100 100 100 100 100 100 100 100 100 72 87 100 100 100 100 100 100 100 100 100 100 100 100 100 100 100 100 100 100 100 100 100 100 100 100 100 100 100 100 100 100 100 100 100 100 100
69 10 5 5 51 96 100 100 100 100 100 100 100 100 100 100 100 100 100 97 84 76 54 83 100 100 100 100 97 100 100 100 100 100 100 100 100 100 100 100 100 100 100 100 100 100 100 100 100 100 100 100 100 100
76 41 60 5 53 100 100 100 100 100 100 100 100 100 100 100 100 93 91 98 99 56 70 97 99 100 100 100 100 95 98 93 100 100 100 100 100 100 100 100 100 100 100 100 100 100 100 100 100 100 100 95 98 100
60 96 100 99 79 100 72 100 98 100 100 100 100 100 100 100 100 100 100 100 100 100 100 100 100 100 100 100 100 100 100 100 100 100 100 100 100 100 100 100 100 100 100 100 100 100 100 100 97 8 5 62 48 85
100 100 100 94 95 100 82 100 100 100 100 100 100 100 100 100 100 100 100 100 100 100 100 100 100 100 100 100 100 100 99 92 85 83 91 82 100 100 100 100 100 100 100 99 98 100 67 67 99 72 64 73 17 21
78 96 100 100 100 100 100 99 100 100 100 100 100 98 83 91 87 90 98 100 100 100 100 100 99 96 99 100 79 61 64 31 5 5 5 12 31 45 84 100 81 72 100 99 11 54 86 45 18 52 100 88 16 58
90 100 100 100 100 100 100 100 100 100 100 100 99 94 94 96 84 84 100 100 100 100 94 94 68 30 45 9 82 97 61 5 49 81 18 5 9 71 68 100 100 100 72 9 5 8 18 56 33 5 10 8 49 76
100 100 100 100 100 100 68 71 90 96 100 100 84 82 50 21 51 64 78 100 100 100 90 7 5 5 64 32 8 5 67 99 22 72 100 28 5 7 9 74 100 99 100 8 49 34 41 52 39 15 12 27 10 33
100 100 100 100 100 100 100 100 100 100 100 100 100 98 81 60 56 97 100 100 100 100 91 81 6 5 14 5 36 15 22 3 5 32 71 96 92 42 56 53 70 82 73 90 40 72 62 59 39 74 92 22 58 59
100 100 100 100 100 100 100 100 100 100 100 100 100 97 42 96 100 99 100 89 94 100 72 73 51 5 13 5 5 6 5 5 5 23 9 5 5 5 5 14 96 61 40 12 18 54 99 100 86 35 60 72 81 97
100 100 100 100 100 100 100 100 100 100 89 79 30 84 80 91 99 100 93 82 41 11 62 78 64 29 77 95 73 66 62 35 6 5 30 63 75 55 20 56 60 78 56 68 59 9 12 56 54 44 31 10 63 80
100 98 74 95 100 100 100 100 100 100 100 99 80 99 94 96 94 77 93 45 11 5 11 67 97 40 22 16 29 19 84 96 75 100 99 100 86 99 89 95 42 61 84 27 81 91 100 86 75 92 84 100 100 100
100 97 100 100 100 100 100 100 92 45 14 56 71 100 98 100 100 100 83 62 27 44 20 50 84 40 70 56 100 54 33 60 66 6 77 97 80 95 76 97 43 10 94 36 38 38 71 29 29 68 50 67 93 95
100 100 100 100 100 100 70 28 24 6 18 18 8 62 92 100 100 100 100 100 100 77 43 97 98 98 80 95 91 100 96 36 24 52 82 89 100 98 94 96 100 89 92 46 61 89 98 94 90 86 87 72 44 73
100 100 99 79 100 100 89 75 77 75 96 45 96 95 81 70 100 95 100 87 72 81 93 68 90 100 68 65 82 88 14 46 78 85 77 95 85 60 78 82 36 52 62 54 61 81 100 100 100 100 100 100 100 100
90 88 100 100 99 100 92 96 70 92 94 99 100 100 100 92 81 84 100 94 67 42 85 65 50 93 31 39 62 97 69 66 98 69 100 92 25 31 55 68 42 43 20 57 73 92 45 39 80 73 93 98 75 53

GFSWCAN_prec_cloud_063.txt.gz
Cloud_Cover
95 100 100 100 98 100 100 100 100 100 100 100 100 100 100 100 100 100 100 100 100 100 100 100 100 100 100 100 100 100 100 96 84 65 34 46 51 68 20 4 2 39 87 76 74 86 100 100 100 100 93 99 100 100
74 90 100 100 100 100 100 100 100 100 100 100 100 100 100 100 100 100 100 100 100 100 99 100 100 100 100 99 100 100 100 100 95 5 20 5 1 7 5 13 3 4 0 5 2 90 100 100 100 100 100 100 98 100
100 100 100 98 99 99 100 99 100 80 90 100 100 100 100 100 100 100 100 100 100 100 100 86 100 95 100 94 100 100 100 100 100 100 98 65 6 5 4 4 56 5 4 5 1 0 3 100 100 100 100 100 97 100
100 100 100 100 100 100 100 99 70 88 91 100 100 100 100 100 100 100 100 100 100 100 100 100 100 100 100 100 100 100 100 100 100 99 11 18 61 4 4 5 21 2 6 0 0 76 100 100 100 100 100 100 100 100
100 98 100 100 100 100 100 100 100 100 100 100 89 99 28 100 100 100 100 100 94 91 100 100 100 100 100 100 100 100 100 100 100 100 94 66 30 24 98 100 70 100 44 15 0 79 100 100 100 100 100 100 100 100
100 100 96 100 100 100 100 100 100 100 100 100 100 95 15 71 100 100 100 100 100 99 46 78 100 100 100 100 100 100 100 100 100 100 100 70 6 89 98 99 100 100 100 100 100 98 100 100 100 100 100 100 100 100
100 100 100 100 100 100 99 100 98 94 100 100 100 100 100 100 99 100 97 69 100 91 100 99 70 92 100 100 100 100 100 98 100 99 70 6 100 92 100 100 100 100 100 100 75 27 100 100 100 100 100 100 100 100
100 100 100 100 100 100 100 57 96 87 100 100 100 100 100 100 100 98 100 100 100 100 100 100 98 96 100 100 96 65 100 100 100 63 78 100 100 100 100 100 100 100 100 98 98 100 100 100 100 100 100 100 100 100
73 100 100 100 100 100 100 100 100 100 100 100 100 100 100 100 100 100 100 100 100 100 100 100 100 100 100 100 99 100 100 100 100 98 78 100 100 100 100 100 100 100 100 99 100 100 100 100 100 100 100 100 100 100
100 100 100 100 100 100 100 90 100 100 100 100 100 100 100 100 100 100 100 100 100 100 100 97 100 100 93 91 77 100 100 100 100 99 100 100 99 100 100 100 100 100 100 100 100 100 100 100 100 100 100 100 100 100
100 100 100 100 100 100 100 100 100 100 100 100 100 100 100 100 100 100 100 100 97 97 84 80 99 90 99 100 100 100 100 100 100 100 100 100 98 100 100 100 100 100 100 100 100 100 100 100 100 100 100 100 100 100
100 100 100 100 100 100 100 100 100 99 99 99 73 100 100 94 100 100 89 72 78 93 100 100 100 100 100 100 100 100 100 100 100 100 100 100 100 92 100 100 100 100 100 100 100 100 100 100 100 100 100 100 100 100
100 100 100 100 100 100 100 100 100 100 100 100 100 100 88 65 80 86 92 92 98 100 100 100 100 100 100 100 100 100 100 100 100 100 100 100 100 100 100 100 100 100 100 100 100 100 100 100 100 100 100 100 100 100
100 100 100 100 100 100 100 100 100 100 100 100 100 100 100 100 100 100 100 100 100 100 100 100 100 100 100 100 100 100 100 100 97 90 100 100 100 100 100 100 100 100 100 100 100 100 100 100 100 100 100 100 100 100
100 100 100 100 100 100 100 100 100 100 100 100 100 100 100 100 100 100 100 100 100 100 100 100 100 100 100 100 100 100 100 100 100 100 100 100 100 100 99 100 100 100 100 100 100 100 100 100 100 100 100 100 100 100
100 100 100 100 100 100 100 100 100 100 100 100 92 100 89 100 100 100 100 100 100 100 100 100 100 100 100 100 100 100 98 98 100 100 100 100 100 100 100 100 100 100 100 100 100 100 100 100 100 100 100 100 100 100
97 100 100 100 100 100 100 100 100 100 100 100 100 100 95 98 99 100 100 100 100 100 100 100 100 100 100 100 100 100 100 100 100 100 100 100 100 100 100 100 100 100 100 100 100 100 100 100 100 100 100 100 100 100
99 100 100 100 100 100 100 100 100 100 100 100 100 100 99 97 100 91 96 100 100 100 100 100 100 100 100 100 100 100 100 100 100 100 100 100 100 100 100 100 100 100 100 100 100 100 100 100 100 100 100 100 100 100
66 95 100 100 100 100 100 100 100 100 100 100 100 69 72 100 100 100 100 100 98 100 100 99 100 100 100 100 99 99 96 97 100 100 100 100 100 100 100 100 100 100 100 100 100 100 100 100 100 100 100 100 100 100
36 28 90 100 100 100 100 100 100 100 100 100 100 100 99 98 100 96 99 100 97 100 100 100 99 100 100 100 100 100 99 100 100 100 100 100 100 100 100 100 100 100 100 100 100 100 100 100 100 100 100 100 100 100
23 54 99 100 100 100 98 100 100 100 100 100 100 100 100 100 100 100 100 100 100 100 100 100 100 100 100 100 94 77 96 83 91 98 99 99 99 100 100 100 100 100 100 98 100 100 100 100 100 96 93 97 53 62
64 68 59 100 100 100 36 68 99 100 100 96 100 100 100 100 100 100 100 100 100 100 100 100 100 100 97 93 100 100 99 99 100 100 100 97 100 84 100 89 70 100 100 96 27 78 97 98 61 34 58 100 22 5
96 78 95 63 99 100 100 100 83 100 100 100 100 100 100 100 100 100 100 100 100 100 100 99 97 89 94 94 100 98 95 96 69 90 100 100 100 99 100 100 49 70 99 99 42 20 33 75 99 70 61 24 14 50
100 99 100 97 100 88 88 100 100 100 100 98 85 93 100 100 100 100 100 100 100 100 100 95 97 97 92 74 95 90 46 5 28 31 19 12 93 100 100 100 100 87 53 10 18 40 5 52 33 78 95 94 100 100
76 64 100 90 41 58 48 77 70 60 100 100 100 100 100 85 81 100 98 100 98 100 100 99 70 66 70 83 80 86 99 96 58 96 65 5 63 85 98 100 100 100 100 28 75 97 100 80 37 15 24 39 40 95
100 100 100 100 100 100 100 100 100 100 100 100 100 100 100 100 100 96 99 90 96 80 88 89 70 65 89 28 25 23 68 6 5 37 100 100 98 81 62 60 88 86 74 99 72 86 84 89 97 83 96 62 82 95
100 100 100 100 100 100 100 100 100 100 100 100 99 100 99 100 100 100 100 98 79 85 90 92 89 14 12 5 5 12 5 14 5 17 6 5 11 5 5 43 98 67 30 56 31 59 98 91 63 62 89 100 100 100
100 100 100 100 100 100 100 87 87 100 100 100 100 98 79 53 97 100 94 90 94 85 94 90 53 23 38 64 53 7 66 58 52 16 20 45 59 75 60 57 96 91 81 63 57 61 65 70 84 96 80 33 93 100
100 100 100 100 100 100 100 100 100 100 100 87 97 100 100 96 99 86 98 89 89 70 81 98 99 33 33 59 69 90 78 48 56 100 100 100 97 94 92 99 78 100 99 23 75 100 92 56 86 100 100 100 90 98
89 88 96 88 77 100 100 98 96 89 56 78 71 100 98 100 100 94 29 47 36 30 21 62 40 18 5 5 16 17 81 98 99 95 95 89 33 49 100 99 57 86 98 51 56 68 74 74 56 18 40 63 92 89
100 100 96 97 97 84 97 74 32 30 6 26 30 59 95 100 100 100 100 100 92 98 82 100 100 97 89 100 100 97 71 27 95 87 62 82 100 100 100 100 100 100 100 95 100 100 100 100 100 100 100 100 100 100
100 100 100 100 100 100 97 85 86 89 100 81 100 77 86 40 99 96 100 100 100 100 100 100 89 35 78 88 95 86 14 60 100 84 88 99 99 91 100 76 78 67 60 64 99 100 100 100 100 100 100 100 100 100
100 100 100 100 100 100 84 74 76 73 88 100 90 100 99 33 50 87 99 97 43 23 88 85 100 56 36 83 73 94 91 100 100 100 100 88 26 92 76 77 58 62 54 78 100 65 37 51 57 56 79 89 61 61

GFSWCAN_prec_cloud_066.txt.gz
Cloud_Cover
64 75 97 93 62 28 100 88 97 100 100 100 100 100 100 100 100 100 100 100 100 100 100 100 100 100 100 100 100 100 100 100 100 100 100 100 83 9 5 3 5 18 50 98 92 100 58 0 4 100 100 97 40 32
41 53 98 100 100 100 98 100 73 100 100 100 100 100 100 100 100 100 100 100 100 100 100 100 100 100 100 100 100 100 100 100 100 94 42 18 5 20 3 5 0 4 2 6 2 9 0 0 0 3 99 83 96 74
100 100 100 100 100 100 100 100 92 100 100 100 100 100 100 100 100 100 100 100 100 100 100 100 100 100 100 100 100 100 100 100 90 100 100 52 4 2 5 5 0 4 3 5 36 0 0 0 0 100 95 100 98 33
100 100 100 96 99 100 100 100 80 87 100 100 100 100 100 100 100 100 100 100 100 100 100 100 100 100 100 100 100 100 100 100 100 100 75 13 8 1 4 4 1 3 5 1 0 0 0 0 0 17 20 100 100 100
100 100 100 83 100 100 100 100 100 100 88 98 82 100 100 100 100 100 100 100 100 100 100 100 100 100 100 100 100 100 100 100 100 100 84 39 5 4 5 16 86 17 34 28 0 58 98 57 0 0 0 41 92 100
100 100 70 100 100 100 100 100 100 100 100 82 31 100 100 100 100 100 100 100 100 100 100 100 97 100 100 100 100 100 100 100 100 100 92 33 5 5 23 9 90 98 70 100 96 98 87 8 26 5 0 100 100 100
100 100 100 100 100 38 32 91 98 50 100 100 100 95 94 100 100 100 100 100 100 100 100 100 100 100 100 100 97 100 100 100 100 100 100 100 94 100 98 50 97 39 92 100 100 100 100 67 68 100 63 100 100 100
100 100 100 100 100 100 77 100 100 100 100 100 100 100 100 100 100 100 100 100 100 100 100 100 100 100 100 100 100 100 100 100 100 100 100 100 100 100 100 83 54 88 100 64 100 100 100 100 94 50 67 28 100 100
100 100 100 100 100 100 88 100 100 100 100 100 100 100 100 100 100 100 100 94 84 73 100 100 100 100 59 100 100 100 100 100 100 100 100 100 100 100 98 96 90 100 100 99 100 100 100 100 100 86 100 100 100 100
100 100 100 100 100 100 100 100 100 100 100 100 100 100 100 100 100 100 100 100 100 100 100 100 100 100 99 100 100 100 100 100 100 98 100 100 97 100 79 76 100 100 100 100 100 100 100 100 100 100 100 100 100 100
100 100 100 100 100 100 100 100 100 100 100 100 100 100 100 100 100 100 100 100 100 100 100 100 100 76 100 97 100 100 100 97 94 100 100 100 100 100 100 100 100 100 100 100 100 100 100 100 100 100 100 100 100 100
100 100 100 100 100 98 99 100 100 88 100 100 100 100 100 100 100 100 100 100 100 99 100 100 100 91 100 83 99 100 100 100 100 100 99 93 100 100 98 95 94 98 100 100 100 100 100 100 100 100 100 100 100 100
100 100 100 100 100 100 100 100 100 100 100 100 100 100 100 87 99 97 100 98 100 100 100 100 100 97 96 93 99 100 100 100 100 99 100 99 100 94 93 94 100 100 100 100 100 100 100 100 100 100 100 100 100 100
100 100 100 100 100 100 100 100 100 100 100 100 100 100 96 100 100 100 98 95 99 100 100 100 100 100 100 100 100 100 100 100 100 100 100 100 100 100 100 100 100 100 100 100 100 100 100 100 100 100 100 100 97 100
100 100 100 100 100 100 100 100 100 100 100 100 98 98 87 100 100 100 100 100 100 100 100 100 100 100 100 100 100 100 100 100 100 100 100 100 100 100 100 100 100 100 100 100 100 100 100 100 100 100 100 100 100 100
100 100 100 100 100 100 100 100 100 100 100 100 100 100 100 100 100 100 100 100 100 100 100 100 100 100 100 100 100 100 100 100 100 100 100 100 100 100 100 100 100 100 100 100 100 100 100 100 100 100 100 100 100 100
84 77 100 100 100 100 100 100 100 100 100 100 100 82 100 100 100 100 100 100 100 100 100 100 100 100 100 100 100 100 100 100 100 100 100 100 100 100 100 100 100 100 100 100 100 100 100 100 100 100 100 100 100 100
100 100 100 100 100 100 100 100 100 100 99 99 98 98 95 99 97 100 100 100 100 100 100 100 100 100 100 100 100 100 100 100 100 100 100 100 100 100 100 100 100 100 100 100 100 100 100 100 100 100 100 100 100 100
100 100 100 100 100 100 100 100 100 100 99 100 98 99 80 92 93 99 100 100 100 100 100 100 100 100 100 100 100 100 100 100 100 100 100 100 100 100 100 100 100 100 100 100 100 100 100 100 100 100 100 100 100 100
100 100 100 100 100 100 100 100 91 52 98 97 100 100 86 76 94 95 100 100 100 100 100 100 100 100 100 100 97 91 97 98 100 100 100 100 100 100 100 100 100 100 100 100 100 100 100 100 100 100 100 100 100 100
100 100 100 100 96 100 66 43 73 81 100 93 99 93 100 100 98 100 100 100 100 100 100 100 100 100 100 100 100 100 100 96 100 100 100 100 100 100 100 100 100 100 100 96 77 98 95 100 89 6 19 97 92 100
100 100 100 100 100 100 100 99 100 99 100 100 100 95 100 100 100 100 100 100 100 100 100 100 100 100 100 97 100 89 98 90 99 100 100 100 100 99 98 82 52 77 83 90 75 100 100 96 48 5 11 45 17 9
97 100 100 79 100 100 100 97 98 100 100 100 98 100 100 100 100 100 100 100 100 100 100 100 100 100 100 96 91 92 82 78 76 94 97 100 100 90 98 88 53 53 86 81 31 53 88 100 100 87 87 50 8 21
99 100 100 71 77 100 100 100 100 100 100 100 100 100 100 100 100 100 100 100 100 100 99 100 100 96 99 92 100 100 100 100 69 60 19 14 95 100 100 100 88 68 44 61 5 9 39 94 89 78 100 100 100 100
100 81 100 80 99 100 98 98 100 100 100 100 100 100 100 100 100 100 100 100 100 100 100 100 100 100 100 100 99 95 67 15 6 61 70 5 81 72 87 94 100 100 83 51 98 100 100 66 61 25 30 84 75 100
100 100 100 100 100 100 100 100 100 100 100 100 100 100 100 100 100 100 100 100 90 86 79 69 80 90 91 51 85 60 69 51 5 38 90 58 54 57 64 61 49 76 72 72 80 97 96 100 92 76 98 79 92 100
99 100 100 99 76 53 82 88 98 68 98 100 100 100 100 100 100 100 100 92 84 90 78 87 94 55 29 75 39 69 36 5 5 14 31 33 41 23 5 26 66 51 22 22 29 45 40 85 78 79 98 100 100 100
100 100 100 61 93 100 100 100 100 100 100 100 100 100 100 92 100 100 93 96 98 89 87 84 59 9 6 46 56 32 74 59 40 9 18 50 94 85 80 97 99 75 79 65 44 65 83 76 93 99 94 67 94 100
100 100 100 100 100 100 100 100 100 100 100 100 100 100 100 100 98 100 99 99 99 85 68 85 100 67 82 79 83 83 78 12 38 94 100 100 99 67 99 100 100 100 100 27 82 99 95 88 94 100 100 100 100 100
49 47 72 70 76 100 100 100 97 100 84 92 86 99 97 100 100 100 80 69 92 100 100 97 57 5 25 18 92 89 86 96 98 100 100 96 37 10 100 98 82 100 98 66 81 71 63 97 97 72 71 83 85 98
78 75 85 85 91 97 90 93 76 68 20 35 61 55 96 100 100 100 91 73 76 64 29 100 100 67 76 89 67 66 35 34 100 78 16 74 100 100 100 100 100 100 100 100 100 100 100 100 100 100 100 100 100 100
79 98 73 91 98 100 100 94 97 89 100 93 100 93 42 20 99 99 100 100 92 100 100 100 100 94 89 93 97 88 18 49 100 100 84 100 100 100 100 75 92 68 70 98 100 100 100 100 100 100 100 100 100 100
100 100 100 100 100 100 94 79 70 84 96 100 100 100 99 26 61 92 100 94 80 88 95 70 41 66 80 87 58 90 96 100 100 100 100 88 40 89 84 70 61 63 61 100 97 54 18 37 44 51 53 87 75 47

GFSWCAN_prec_cloud_069.txt.gz
Cloud_Cover
100 100 99 90 76 94 100 100 100 100 100 100 100 100 100 100 100 100 100 100 100 100 71 100 100 100 100 100 100 100 100 100 100 100 96 91 54 11 5 43 94 32 58 91 84 73 47 0 0 2 0 2 1 1
100 100 100 91 96 60 94 100 100 96 100 100 100 100 100 100 100 100 100 100 100 100 100 100 100 100 100 100 100 100 100 100 100 84 33 24 63 35 5 5 5 5 2 6 7 2 0 0 10 1 0 0 0 0
100 100 100 99 72 99 93 84 100 100 100 80 100 100 100 100 100 100 100 100 100 100 100 100 100 100 100 100 100 100 100 100 100 100 95 70 7 100 55 20 5 2 0 0 0 0 0 0 0 0 0 0 0 0
100 100 99 91 97 30 51 90 100 58 100 48 100 100 100 100 100 100 100 100 100 100 100 100 100 100 100 100 100 100 100 100 100 89 94 100 52 55 64 66 38 5 0 0 0 0 0 0 0 43 0 0 0 0
100 100 89 71 70 48 98 100 100 100 51 100 100 100 100 100 100 100 100 100 100 100 100 100 100 100 100 100 100 100 100 100 100 100 100 100 100 100 100 61 22 5 5 0 0 46 98 85 3 88 5 5 0 0
100 100 100 100 98 99 100 99 100 100 80 100 100 100 100 100 100 100 100 100 100 100 100 100 100 100 100 100 100 100 100 100 100 100 100 100 100 96 46 10 8 42 77 52 74 90 46 83 93 100 96 10 4 2
100 100 100 100 100 94 100 100 100 100 100 95 88 100 100 100 100 100 100 100 100 100 100 100 100 100 100 100 100 100 100 100 100 100 100 100 100 100 81 7 77 92 81 100 100 99 100 100 100 100 87 34 3 16
100 100 100 100 100 90 64 99 90 100 100 100 100 100 100 100 100 100 100 100 100 100 100 100 100 100 100 100 100 100 100 100 100 100 100 100 100 100 100 97 100 48 13 34 100 100 100 100 100 95 100 99 98 61
100 100 100 100 100 100 99 100 100 100 100 100 100 100 100 100 100 100 100 100 100 100 100 100 100 100 100 100 100 100 100 100 100 100 100 100 100 100 100 100 99 100 100 100 78 90 100 100 100 100 100 100 100 96
100 100 100 100 100 100 100 100 100 100 100 100 100 100 100 100 100 100 100 100 100 100 100 100 100 100 60 72 100 100 100 100 100 100 100 100 100 100 100 100 100 100 100 100 100 100 100 100 96 100 100 100 100 100
100 100 100 100 100 100 100 100 100 100 100 99 100 100 100 100 100 100 100 100 100 100 100 100 100 100 100 100 99 100 100 100 100 100 100 94 100 100 98 100 100 100 96 93 93 100 100 100 100 100 100 100 100 100
100 100 100 100 100 100 100 100 100 100 100 100 100 100 100 100 96 94 81 93 96 98 100 100 100 100 100 100 100 97 100 88 99 100 100 100 100 100 98 100 100 100 100 100 100 100 100 100 100 100 100 100 100 100
100 100 100 100 100 100 100 76 100 100 100 100 100 100 100 100 100 100 100 94 72 100 100 100 100 100 96 97 100 100 100 100 100 100 100 100 100 100 100 100 100 100 100 100 100 100 100 100 100 100 100 100 100 100
100 100 100 100 100 100 100 99 100 100 100 100 100 98 89 77 89 100 100 100 98 100 100 100 88 99 100 97 100 100 100 96 100 100 100 100 100 100 100 100 100 100 100 100 100 100 100 100 100 100 100 100 100 100
100 100 100 100 100 100 100 100 100 100 100 100 100 100 100 100 100 100 100 89 100 100 100 100 100 100 100 100 100 100 100 100 100 100 100 100 100 100 100 100 100 100 100 100 100 100 100 100 100 100 100 100 100 100
100 100 100 100 100 100 100 100 100 100 100 98 100 100 100 95 100 100 100 100 100 100 100 100 100 100 100 100 100 100 100 100 100 100 100 100 100 100 100 100 100 100 100 100 100 100 100 100 100 100 100 100 100 100
100 100 100 100 100 100 100 100 100 100 76 97 100 100 100 100 100 100 100 100 100 100 100 100 100 100 100 100 100 100 100 100 100 100 100 100 100 100 100 100 100 100 100 100 100 100 100 100 100 100 100 100 100 100
100 100 100 100 100 100 98 87 99 100 97 100 86 92 98 100 100 100 100 100 100 100 100 100 100 100 100 100 100 100 100 100 100 100 100 100 100 100 100 100 100 100 100 100 100 100 100 100 100 100 100 100 100 100
100 100 100 100 100 100 100 87 71 87 97 100 100 99 84 90 87 100 100 100 100 100 100 100 100 100 100 100 100 100 100 100 100 100 100 100 100 100 100 100 100 100 100 100 100 100 100 100 100 100 100 100 100 100
100 100 100 100 100 99 94 47 25 14 80 83 86 94 97 94 98 100 98 100 100 100 100 100 100 100 100 100 100 100 100 100 100 100 100 100 100 100 100 100 100 100 100 100 100 100 100 100 100 100 100 100 100 100
100 100 100 100 94 92 36 32 38 51 82 63 93 95 86 100 90 92 99 100 100 100 100 100 100 100 100 100 100 96 100 92 100 95 100 100 100 100 100 100 100 100 100 100 100 100 91 88 78 51 74 100 100 100
100 99 94 99 6 7 27 6 6 72 68 73 75 53 80 96 100 98 98 100 100 100 100 100 100 100 100 98 100 100 100 100 100 100 100 100 100 100 100 92 78 89 98 100 90 100 99 20 5 29 43 92 71 96
100 55 78 41 25 43 98 93 43 72 83 94 82 97 100 100 100 100 100 100 100 100 100 100 100 100 100 100 95 94 84 78 71 86 87 99 100 94 98 69 9 5 25 83 100 100 100 91 55 5 5 6 5 21
100 81 65 99 100 74 21 18 84 100 100 96 87 100 100 100 100 100 100 100 100 100 100 100 99 100 83 58 98 100 83 52 78 95 75 25 82 100 100 97 82 92 50 5 8 80 99 100 86 84 88 71 89 78
100 100 87 15 87 100 100 97 100 54 100 100 100 100 100 100 100 100 100 100 100 100 100 100 100 100 100 100 100 86 31 5 5 46 80 5 78 97 100 100 100 100 69 7 51 55 68 37 35 48 70 80 69 91
96 100 100 100 99 99 77 97 98 100 100 100 100 100 100 100 100 100 100 100 100 100 100 100 100 79 72 60 88 92 96 10 5 34 100 46 5 5 5 34 32 89 84 39 82 85 80 88 58 33 62 64 92 86
99 100 69 79 64 55 77 76 97 95 100 100 100 100 100 100 100 100 100 100 100 99 73 90 40 12 6 61 69 68 8 5 5 45 44 30 19 5 5 5 5 64 38 15 29 9 22 63 37 43 77 99 99 100
66 13 18 61 92 94 94 99 100 100 100 100 100 92 100 100 100 100 100 100 100 61 64 72 29 5 5 13 29 7 47 57 15 18 24 60 88 92 96 96 96 70 72 62 20 25 7 5 70 98 99 95 81 100
100 100 100 98 92 71 99 100 100 100 100 79 86 100 100 100 100 100 100 100 97 86 37 10 91 41 65 70 79 63 46 5 5 73 100 98 74 49 93 100 100 100 98 64 90 98 98 38 78 91 99 100 100 100
71 57 43 54 58 100 100 100 97 100 89 96 83 95 96 100 100 100 97 98 94 82 67 36 87 21 91 47 98 98 88 95 81 97 100 92 47 10 100 65 73 100 95 32 20 22 81 80 96 95 90 93 95 94
65 60 48 60 92 100 100 99 77 69 68 94 100 99 99 100 100 86 54 74 88 73 39 13 5 6 23 39 42 28 23 42 100 94 59 31 85 100 100 100 100 100 100 100 100 100 100 100 100 100 97 83 73 95
90 98 76 74 98 100 97 97 98 93 100 96 99 79 41 19 96 96 88 86 85 49 87 76 100 59 52 89 90 84 84 79 100 100 100 100 100 100 100 80 83 63 40 76 100 100 97 90 74 65 60 19 7 22
98 94 82 100 100 99 96 39 68 83 99 100 100 100 98 13 76 90 98 94 99 100 92 83 60 88 89 65 23 94 100 100 100 99 100 98 92 82 47 44 61 66 45 70 74 59 22 13 5 5 5 7 5 5

GFSWCAN_prec_cloud_072.txt.gz
Cloud_Cover
100 100 100 100 100 100 100 100 100 100 100 100 100 100 100 100 100 100 100 100 90 100 8 60 12 89 40 68 100 100 100 100 100 100 100 100 100 98 95 100 74 100 96 84 95 100 99 5 6 59 71 91 100 80
100 100 82 100 100 100 100 100 76 82 100 100 100 100 100 100 100 100 100 100 100 100 59 28 7 15 100 100 100 100 100 100 100 100 100 100 98 65 96 100 38 99 75 95 53 92 25 13 2 6 4 5 2 4
97 100 91 100 100 98 99 89 97 9 92 98 100 100 100 100 100 100 100 100 100 100 57 44 92 100 100 100 100 100 100 100 100 100 100 100 100 98 98 55 91 8 5 9 34 6 3 4 0 0 0 0 0 0
100 100 100 100 100 87 100 9 47 46 94 100 100 100 100 100 100 100 100 100 100 100 100 91 100 100 100 100 100 100 100 100 100 100 100 100 97 70 100 100 14 40 7 3 4 5 5 0 0 0 0 0 0 0
100 100 100 99 96 99 96 57 14 93 98 100 100 97 100 100 100 100 100 100 100 100 100 100 100 100 100 100 100 100 100 100 100 100 100 99 100 100 100 100 67 30 5 11 5 5 1 0 4 53 10 35 21 0
100 53 100 100 96 100 100 88 80 68 91 100 92 99 100 100 100 100 100 100 100 100 100 100 100 100 100 100 100 100 100 100 100 100 100 100 100 100 100 100 100 100 16 6 7 53 99 99 98 100 100 79 10 4
99 98 93 100 100 100 100 99 77 52 92 100 99 100 100 100 100 100 95 100 100 100 100 100 100 100 100 100 100 100 100 100 100 100 100 100 93 100 100 100 100 100 92 28 57 54 34 99 100 100 100 95 54 52
100 92 100 87 100 95 96 61 100 99 100 100 100 100 100 100 100 100 100 100 100 100 100 100 100 100 100 100 100 100 100 100 100 100 100 96 94 100 100 99 100 100 100 68 100 99 100 100 100 100 100 100 100 100
100 100 100 100 99 100 100 98 84 100 100 100 100 100 100 100 100 100 100 100 100 100 100 100 100 100 100 100 100 100 100 100 100 100 100 100 100 100 100 99 98 100 100 94 43 62 100 100 100 100 92 100 100 100
100 100 100 100 100 100 100 100 100 100 100 100 100 100 100 100 100 100 100 100 100 100 92 99 100 100 100 100 100 100 100 100 100 100 100 100 100 100 99 100 100 99 100 100 78 82 76 94 94 88 91 100 100 100
100 100 100 100 100 100 100 100 100 100 96 100 100 100 100 100 100 100 100 100 100 100 99 92 100 100 100 100 100 100 100 100 100 100 100 100 100 100 100 100 97 100 100 100 100 100 100 100 100 96 100 100 100 100
100 100 100 98 98 100 100 100 100 100 89 100 100 100 100 100 100 100 100 100 100 100 100 100 100 100 100 100 100 100 100 100 100 100 100 100 100 100 100 100 100 100 100 100 100 100 100 100 99 100 100 100 100 100
100 100 100 100 73 98 92 100 100 100 100 100 100 100 100 100 100 100 100 100 100 100 100 100 100 100 100 100 100 98 92 100 100 100 100 100 100 100 100 100 100 100 100 100 100 100 100 100 100 100 100 100 100 100
100 100 100 100 100 100 100 100 100 100 100 100 100 100 100 100 92 100 100 100 100 100 100 100 100 93 90 98 98 90 97 97 100 100 100 100 100 100 100 100 100 100 100 100 100 100 100 100 100 100 100 100 100 100
100 100 100 100 100 100 100 100 100 100 100 100 100 100 100 100 100 100 100 100 100 100 100 84 88 89 89 100 100 100 100 100 100 100 100 100 100 100 100 100 100 100 100 100 100 100 100 100 100 100 100 100 100 100
100 100 100 100 100 100 100 100 100 100 100 100 99 100 100 100 100 100 100 100 100 100 98 87 100 100 100 100 99 100 100 100 100 100 100 100 100 100 100 100 100 100 100 100 100 100 100 100 100 100 100 100 100 100
100 100 100 100 100 100 100 100 100 100 100 100 100 100 100 100 100 100 100 100 100 96 99 98 100 99 100 100 100 100 100 100 100 100 100 100 100 100 100 100 100 100 100 100 100 100 100 100 100 100 100 100 100 100
100 100 100 100 100 100 100 95 100 75 100 100 100 100 100 100 100 100 100 99 100 100 100 100 100 100 100 100 100 100 100 100 100 100 100 100 100 100 100 100 100 100 100 100 100 100 100 100 100 100 100 100 100 100
100 100 100 90 89 99 94 16 42 82 100 100 100 100 100 99 97 95 100 100 100 100 100 100 100 100 100 100 100 100 100 100 100 100 100 100 100 100 100 100 100 100 100 100 100 100 100 100 100 100 100 100 100 100
100 100 100 90 64 86 71 29 36 66 100 98 100 99 100 100 100 100 100 100 100 100 100 100 100 100 100 100 100 100 100 100 100 100 100 100 100 100 100 100 100 100 100 100 100 100 100 100 100 100 100 100 100 100
100 94 100 100 85 91 33 39 58 90 100 96 100 100 88 81 93 98 100 98 100 100 100 100 100 100 100 100 100 100 100 100 100 100 100 100 100 100 100 100 100 100 100 100 100 100 100 100 98 91 100 100 100 100
98 93 69 77 100 85 65 48 76 82 94 91 81 42 80 98 100 100 100 95 100 100 100 100 100 100 100 100 100 100 100 100 100 96 100 98 100 93 76 64 43 76 83 100 94 100 99 96 100 100 100 100 100 91
76 100 95 11 5 35 96 98 86 92 63 82 87 64 98 100 99 100 100 100 100 100 100 100 100 100 99 100 100 98 98 92 88 86 64 29 29 59 32 17 59 63 66 86 100 100 100 48 66 100 100 100 100 98
100 99 15 5 5 52 31 6 5 6 71 71 76 100 66 90 100 100 100 100 100 100 100 100 100 100 100 98 100 75 30 5 5 6 8 5 5 62 73 73 99 100 74 78 100 100 100 100 85 100 100 100 100 100
14 20 22 54 27 22 18 5 9 77 79 89 74 90 87 100 100 100 100 100 100 100 100 100 100 100 100 97 71 57 37 6 5 5 24 8 35 33 58 66 92 100 100 100 100 100 100 100 100 99 100 100 100 100
95 88 51 71 65 85 89 100 100 98 85 100 100 100 100 100 100 100 100 100 100 100 100 100 100 100 92 92 98 97 87 44 20 24 82 81 69 98 95 77 77 99 100 100 100 100 100 100 100 100 100 74 56 75
95 96 78 65 80 26 49 62 65 96 100 100 100 100 100 100 100 100 100 100 99 94 100 100 79 74 60 44 73 90 82 48 27 45 54 45 45 24 67 87 40 100 100 100 100 100 100 100 100 98 97 100 100 100
58 53 24 56 44 60 95 92 86 98 100 100 100 100 100 100 100 100 100 100 100 98 92 99 90 62 5 5 5 5 5 6 15 42 73 76 72 94 99 100 99 54 91 98 100 97 100 100 100 100 100 100 100 100
52 63 74 93 63 90 100 100 100 100 100 80 93 100 100 100 100 100 100 100 100 84 58 23 66 39 30 46 74 59 91 100 100 39 5 17 98 100 100 100 100 100 100 100 72 84 100 100 100 100 100 100 100 100
88 69 62 48 74 99 100 100 100 100 100 100 100 100 100 100 100 100 100 100 100 97 87 74 98 95 65 53 66 76 86 97 100 99 64 48 96 100 100 100 100 100 100 100 100 100 60 94 100 100 94 100 100 100
65 58 78 98 100 100 100 100 92 84 94 100 100 98 100 100 100 100 100 100 100 99 90 65 8 65 12 53 91 82 98 95 60 61 74 99 100 100 100 100 100 100 100 100 100 97 94 93 100 100 100 97 86 56
61 87 51 78 100 92 100 96 66 66 88 98 97 83 95 99 100 100 100 100 100 100 56 46 83 93 79 100 98 89 91 100 99 99 99 100 100 92 76 66 67 66 80 75 90 97 86 69 59 8 6 5 5 5
47 29 31 58 97 99 90 69 34 55 74 92 100 100 100 84 98 100 100 100 100 100 100 100 100 94 67 22 26 84 80 98 100 72 40 16 5 5 62 92 100 100 100 100 100 100 97 87 57 5 5 5 5 5

GFSWCAN_prec_cloud_075.txt.gz
Cloud_Cover
83 100 100 100 100 100 100 100 100 100 100 100 100 100 100 100 100 100 100 100 98 100 98 9 75 89 53 85 99 88 100 100 100 100 100 100 100 82 96 83 100 100 100 100 100 100 100 100 100 90 61 92 100 100
99 90 99 100 100 100 100 80 100 100 100 100 100 100 100 100 100 100 100 100 100 100 74 34 57 88 94 100 100 100 100 100 100 94 66 100 96 65 88 100 100 100 100 100 100 100 100 97 96 92 62 40 19 5
75 85 79 99 100 100 95 88 98 100 99 100 100 100 100 100 100 100 100 100 100 100 94 67 42 4 3 43 92 100 100 100 100 100 100 100 98 100 94 97 100 100 100 100 92 99 98 100 96 71 10 5 5 5
100 82 85 100 96 86 82 89 91 98 85 98 99 100 100 100 100 100 100 100 100 100 98 10 6 5 16 11 82 100 100 100 100 100 100 98 100 92 100 100 100 100 100 100 81 88 84 100 33 23 1 1 18 10
100 100 100 86 100 100 100 100 100 100 42 35 95 100 100 100 100 100 100 100 100 100 65 15 38 5 29 100 100 100 100 100 100 100 100 100 100 100 85 95 99 100 100 97 88 68 8 61 20 21 4 47 99 49
100 100 100 66 100 100 92 100 100 97 11 77 73 99 100 100 100 100 100 100 100 100 100 99 74 57 100 100 100 100 100 100 100 100 100 100 100 100 100 100 100 100 99 100 35 93 64 0 33 29 11 19 100 100
100 98 94 100 100 93 73 97 100 54 16 99 100 100 100 100 100 100 100 100 100 100 98 100 100 100 100 100 100 100 100 100 100 100 100 100 100 99 97 100 100 100 100 60 31 11 9 15 80 64 39 7 63 96
86 100 100 100 92 82 90 100 93 59 81 100 99 100 100 100 100 100 100 100 100 100 100 100 99 100 100 100 100 100 100 100 100 100 100 98 100 100 99 99 100 100 100 100 100 100 76 98 100 100 97 96 37 43
100 100 100 100 100 100 100 100 100 99 100 100 100 100 100 100 100 100 100 100 100 100 91 100 100 100 83 100 100 100 100 100 100 100 91 96 100 100 100 99 100 100 100 100 100 100 100 100 100 98 95 88 81 98
100 100 100 100 99 100 100 100 100 100 100 100 100 100 100 100 100 100 100 100 100 100 100 100 100 100 100 100 100 100 100 100 100 100 100 100 100 99 100 84 86 98 100 100 97 97 80 100 100 100 100 100 100 100
100 100 100 100 100 100 100 100 100 100 100 100 100 100 100 100 100 100 100 100 100 100 100 100 100 100 95 100 100 100 100 100 100 100 100 100 100 100 100 100 100 100 100 100 100 100 100 100 100 100 100 100 100 100
100 99 100 100 100 100 100 100 100 100 100 100 100 100 100 100 100 100 100 100 100 100 100 100 100 100 100 100 100 100 100 100 100 100 100 100 100 100 100 100 100 100 100 100 100 100 100 100 100 100 100 100 100 100
100 100 100 100 100 100 100 100 100 100 100 100 100 100 100 100 100 100 100 100 100 100 100 100 100 100 100 100 100 100 100 100 100 100 100 100 100 100 100 100 100 100 100 100 100 100 100 100 100 100 100 100 100 100
100 100 100 100 96 100 91 99 100 100 100 100 100 100 100 100 100 100 100 100 100 100 100 100 100 100 100 100 100 100 100 100 100 100 100 100 100 100 100 100 100 100 100 100 100 100 100 100 100 100 100 100 100 100
100 100 100 100 100 100 100 100 100 100 100 100 100 98 100 100 100 100 100 100 100 100 100 100 94 84 100 97 99 100 100 100 100 100 100 100 100 100 100 100 100 100 100 100 100 100 100 100 100 100 100 100 100 100
100 98 98 100 100 100 100 100 100 100 100 100 100 100 100 100 100 100 100 100 100 100 88 95 92 94 98 95 94 100 100 100 100 100 100 100 100 100 100 100 100 100 100 100 100 100 100 100 100 100 100 100 100 100
100 100 92 100 100 100 100 100 100 100 100 100 100 100 100 100 100 100 100 100 100 100 100 81 85 98 99 98 98 100 100 100 100 100 100 100 100 100 100 100 100 100 100 100 100 100 100 100 100 100 100 100 100 100
100 100 100 100 94 100 100 100 99 100 100 100 100 100 100 100 100 100 100 100 100 100 100 100 100 100 100 100 100 100 100 100 100 100 100 100 100 100 100 100 100 100 100 100 100 100 100 100 100 100 100 100 100 100
100 100 91 99 94 67 85 100 100 100 100 100 100 100 100 100 100 100 100 100 100 100 100 100 100 100 100 100 100 100 100 100 100 100 100 100 100 100 100 100 100 100 100 100 100 100 100 100 100 100 100 100 100 100
99 100 92 74 99 100 89 60 74 83 100 100 100 100 99 100 100 100 100 100 100 100 100 100 100 100 100 100 100 100 100 100 100 100 100 100 100 100 100 100 100 100 100 100 100 100 100 100 100 100 100 100 100 100
75 91 78 82 88 97 56 98 99 99 100 100 100 100 100 100 100 100 100 100 100 100 100 100 100 100 100 100 100 100 100 100 100 100 100 100 100 100 100 100 100 100 100 100 100 100 100 100 98 100 100 100 100 100
91 100 98 94 98 85 85 91 100 100 100 100 100 100 100 100 100 100 100 100 100 100 100 100 100 100 100 100 100 100 100 95 96 77 86 88 100 100 100 100 100 100 100 100 100 100 100 100 100 100 100 100 100 100
99 100 100 100 100 75 97 100 100 100 100 100 100 100 100 100 100 100 99 100 100 100 100 100 100 100 100 99 100 100 97 100 99 100 100 98 89 89 79 79 99 100 100 92 98 100 100 57 74 100 100 100 100 96
75 98 100 82 34 92 59 83 96 93 87 97 100 72 60 100 100 99 100 100 100 100 100 100 100 100 100 100 100 92 48 21 17 19 13 5 5 7 11 18 83 99 74 74 100 100 100 100 55 100 100 100 100 100
34 22 52 24 5 17 82 81 51 56 86 74 87 98 99 94 100 100 100 100 100 100 100 100 100 100 100 98 87 20 7 34 46 5 19 5 42 10 14 8 76 90 95 100 100 100 100 100 100 100 100 100 100 100
61 72 75 31 25 54 68 100 99 100 100 100 100 100 100 100 100 100 100 100 100 100 100 100 100 100 100 100 100 99 99 69 7 54 30 25 45 99 100 100 100 100 97 100 100 100 100 100 100 100 100 76 31 53
74 99 56 50 40 56 99 100 100 100 100 100 100 100 100 100 100 100 100 100 100 100 100 100 100 100 100 100 96 90 68 34 50 60 21 6 5 13 94 100 95 100 100 100 100 100 100 100 100 100 100 100 100 100
42 28 60 61 76 87 95 72 40 74 94 82 85 100 100 100 100 100 100 100 100 100 100 97 100 100 97 84 71 63 28 7 51 53 83 89 98 100 100 100 100 30 90 100 100 100 100 100 100 100 100 100 100 100
94 53 69 68 55 59 94 94 100 100 100 100 99 93 100 100 100 100 100 100 100 100 100 100 100 99 90 91 92 100 100 100 100 38 11 88 100 100 100 100 100 100 100 100 68 66 100 100 100 100 100 100 100 100
80 64 45 49 62 100 100 100 100 100 99 100 97 100 100 100 100 100 100 100 100 100 100 100 100 100 100 100 96 100 100 100 100 100 100 100 100 100 100 100 100 100 100 100 100 100 98 94 100 100 94 100 100 100
86 88 59 98 100 100 100 100 100 100 100 100 100 97 100 100 100 100 100 100 100 100 100 100 100 100 100 100 100 100 100 100 63 66 72 100 100 100 100 100 100 100 100 100 100 100 100 95 100 100 100 100 96 84
97 65 48 79 100 100 100 100 100 100 100 100 100 98 100 100 100 100 100 100 100 100 100 100 100 100 100 100 92 57 40 100 100 100 99 100 100 100 99 100 99 100 100 100 100 100 100 100 100 99 87 72 52 7
99 53 55 49 87 89 76 70 17 55 92 100 100 100 100 98 100 100 100 100 100 100 100 100 100 100 80 66 83 85 99 96 79 30 6 20 5 37 90 100 100 100 100 100 100 100 100 96 66 48 5 5 5 5

GFSWCAN_prec_cloud_078.txt.gz
Cloud_Cover
46 21 20 83 100 100 100 100 100 100 100 100 100 100 100 100 100 100 100 100 100 100 100 38 96 98 65 70 57 87 69 100 100 98 43 69 52 75 100 100 100 100 100 100 100 90 100 100 100 100 100 100 100 100
5 20 95 100 91 100 100 100 100 100 100 100 100 100 100 100 100 100 100 100 100 100 86 65 33 8 100 70 90 100 72 100 100 43 69 79 97 99 97 99 100 100 100 100 100 100 100 100 100 100 100 100 100 99
36 85 80 53 73 85 98 100 100 100 100 100 100 100 100 100 100 100 100 100 100 100 100 42 1 3 4 29 71 99 100 99 100 100 100 98 100 100 100 100 100 99 100 100 100 100 100 100 100 100 100 100 100 100
90 45 100 100 100 100 92 100 96 79 92 100 100 100 100 100 100 100 100 100 100 100 94 58 8 2 0 94 79 100 100 100 100 100 100 100 100 100 100 100 83 100 99 100 100 100 100 100 100 100 100 100 100 100
86 100 100 100 100 92 98 100 100 100 98 98 100 100 100 100 100 100 100 100 100 100 92 55 70 44 15 1 98 64 98 100 100 100 100 100 100 100 100 100 100 99 100 100 100 100 100 100 100 100 100 61 32 66
100 100 100 100 100 99 88 96 100 100 100 100 100 99 100 100 100 100 100 100 100 100 100 99 84 44 98 40 5 13 100 100 100 100 100 76 100 100 100 100 100 100 93 55 100 100 100 94 100 100 100 100 86 10
100 100 100 98 100 100 100 100 100 99 100 97 87 96 100 100 100 100 100 100 100 100 100 100 99 31 99 81 100 100 100 100 100 100 100 100 100 100 100 100 100 100 100 100 100 100 57 98 79 69 85 81 56 44
100 97 96 100 100 100 100 71 95 100 100 41 97 99 100 100 100 100 100 100 100 100 100 100 93 58 88 87 100 91 100 100 100 100 100 100 99 67 100 100 100 100 100 100 100 100 100 100 100 100 65 9 61 49
100 99 100 100 100 100 100 100 100 100 80 96 100 100 100 100 100 100 100 100 100 100 51 84 100 100 58 100 100 100 100 100 100 100 95 93 100 100 100 100 100 100 100 100 100 100 100 100 100 95 87 99 97 100
100 100 100 88 87 100 100 100 100 100 100 100 100 100 100 100 100 100 100 100 100 100 100 100 100 100 100 100 100 100 100 100 100 100 91 97 96 93 99 100 100 100 100 100 100 100 100 100 100 100 100 100 100 100
100 100 95 100 100 100 100 100 100 100 100 100 100 100 100 100 100 100 100 100 100 100 89 100 100 100 99 100 98 96 100 95 93 100 98 100 100 100 100 100 100 100 100 100 99 94 100 100 100 100 100 100 100 100
100 100 100 100 100 100 100 100 100 100 100 100 100 100 100 100 100 100 100 100 87 100 97 100 100 100 100 100 100 100 100 100 100 100 100 100 100 100 100 100 99 100 100 100 100 100 100 100 100 100 100 100 100 100
100 100 100 100 100 100 100 100 100 100 100 100 100 100 100 100 100 100 100 100 97 100 100 99 100 100 100 100 100 100 100 100 100 100 100 100 100 97 99 100 99 100 100 100 100 100 100 100 100 100 99 100 99 98
100 100 100 100 100 100 100 100 100 100 100 100 100 100 100 100 100 100 100 100 100 100 100 100 100 100 100 100 100 100 100 100 100 100 100 100 96 100 100 100 99 90 96 90 99 99 100 99 88 92 100 97 95 100
100 100 100 100 100 100 100 100 100 100 100 100 100 100 100 100 100 100 100 100 100 100 100 100 100 100 100 100 100 100 100 100 100 100 100 100 100 100 100 100 100 100 97 99 100 100 98 96 100 99 99 100 100 100
100 100 100 100 94 100 100 100 100 100 100 96 100 100 100 100 100 100 100 100 100 100 100 100 100 100 100 100 100 100 100 100 100 100 100 100 100 100 100 100 100 100 99 95 100 100 99 100 99 100 100 100 100 100
100 100 100 100 100 100 100 98 98 100 100 100 93 97 100 92 100 100 100 100 100 100 100 100 100 98 97 100 97 100 100 100 100 100 100 100 100 100 100 100 100 100 100 100 100 100 100 100 100 100 100 100 100 100
99 90 100 100 100 100 100 100 98 100 100 100 100 100 93 100 100 100 95 72 70 100 72 78 98 99 100 100 100 100 100 100 100 100 100 100 100 100 100 100 99 100 100 100 96 94 96 99 100 100 100 100 100 100
100 95 81 100 100 100 100 100 100 100 100 100 100 100 100 100 100 100 100 100 100 100 100 100 100 100 100 100 100 100 100 100 100 100 100 100 100 97 93 85 95 95 98 100 100 100 99 95 100 100 100 100 100 100
97 94 97 94 100 100 99 92 87 98 100 100 100 100 100 100 100 100 100 100 100 100 100 100 100 100 100 100 100 100 100 95 100 100 100 100 100 100 100 100 100 99 99 99 99 100 100 100 100 100 100 100 100 100
76 94 52 70 77 82 99 100 100 98 100 100 100 100 100 100 100 100 100 100 100 100 100 100 100 100 100 100 100 100 100 100 100 100 100 99 100 100 100 100 100 100 100 100 100 100 99 98 100 100 100 100 82 76
98 85 82 86 100 89 90 100 100 100 100 100 100 100 100 100 100 100 100 100 100 100 100 100 100 100 100 97 98 77 96 84 87 70 88 78 100 100 100 100 100 98 100 94 100 99 99 99 98 100 100 88 100 92
97 99 100 100 100 100 100 100 100 100 100 100 100 100 100 100 100 96 98 100 100 100 100 100 100 100 100 100 100 100 100 100 100 100 100 100 100 100 100 96 99 99 100 96 94 100 84 16 31 86 26 98 80 29
100 100 100 100 96 99 74 98 100 100 100 100 100 100 100 100 100 100 100 100 100 100 100 100 100 100 100 100 100 99 70 81 98 100 90 99 100 90 88 95 93 81 76 95 100 100 98 92 28 99 73 100 48 99
96 48 30 57 38 64 86 96 94 100 98 100 97 100 100 100 100 100 100 100 100 100 100 100 100 100 100 100 100 45 59 97 100 77 62 76 68 82 78 26 66 39 54 100 100 100 84 92 100 99 100 100 96 71
33 35 86 73 20 48 26 98 100 100 100 100 100 100 100 100 100 100 100 100 100 100 100 100 100 100 100 100 100 100 99 59 76 93 57 57 67 86 97 99 98 100 88 68 93 100 99 35 95 15 95 87 40 1
64 99 56 13 77 92 100 100 100 100 100 100 97 98 100 100 100 100 100 100 100 100 100 98 100 100 100 99 99 97 69 23 16 31 6 5 47 82 99 100 100 99 100 69 87 82 100 100 99 100 100 98 100 95
72 69 99 95 100 100 100 100 84 95 100 100 100 61 47 87 100 100 100 100 100 100 100 98 98 100 99 100 100 98 56 29 5 24 75 93 90 83 71 81 14 4 14 26 47 88 90 98 100 100 100 98 94 27
97 83 73 82 100 99 99 100 100 99 76 68 64 92 100 100 100 100 100 99 100 100 100 100 100 100 100 100 100 100 100 92 99 50 12 88 100 100 97 82 100 89 99 100 43 22 54 50 95 91 79 77 90 83
79 72 98 96 89 100 100 100 100 99 100 59 98 100 100 100 100 100 100 100 100 100 100 100 100 100 100 100 100 100 100 100 94 100 100 100 100 95 96 100 100 100 84 100 100 100 99 80 100 97 86 98 100 100
96 82 79 99 100 100 100 100 100 100 100 99 100 86 100 100 100 100 100 100 100 100 100 100 100 100 97 97 100 100 100 96 18 10 59 94 100 100 99 83 100 99 100 100 98 100 100 64 99 100 100 100 76 56
97 74 41 90 100 100 100 100 100 100 100 100 100 100 100 100 100 100 100 100 100 100 96 100 100 100 96 100 74 18 21 85 99 94 97 100 100 77 100 100 99 100 100 100 100 100 100 100 99 96 89 96 69 31
100 63 45 60 98 95 90 99 90 98 98 100 100 100 93 100 99 100 100 100 100 100 100 100 100 100 94 87 90 93 95 60 6 5 5 18 5 5 72 100 100 100 100 100 100 100 100 100 86 50 5 5 6 5

GFSWCAN_prec_cloud_084.txt.gz
Cloud_Cover
95 90 91 92 96 41 5 5 5 5 100 100 87 100 100 100 100 100 100 100 8 16 69 5 11 5 13 38 96 66 98 95 90 93 24 73 5 2 0 1 5 13 100 86 78 85 60 100 100 100 100 100 100 100
78 25 100 95 23 5 5 6 95 100 100 100 99 95 95 100 100 100 100 100 98 100 85 6 5 5 5 100 20 36 100 100 100 100 47 92 47 9 5 75 91 93 85 100 100 4 97 100 100 100 100 100 100 100
53 95 70 8 18 5 18 100 100 100 92 100 99 100 79 100 100 100 100 100 100 100 100 61 98 90 3 51 97 15 58 100 100 100 100 74 100 93 100 100 100 100 100 100 88 100 100 100 99 100 100 100 100 100
100 97 12 5 5 28 100 100 100 100 100 93 100 100 100 100 100 100 100 100 100 97 88 99 80 47 8 7 5 11 100 100 100 100 100 92 85 23 100 100 100 100 100 100 100 100 100 100 100 100 100 100 100 100
80 20 5 5 100 100 100 100 100 100 100 100 90 100 100 100 100 100 100 100 100 100 67 91 72 100 5 1 3 14 100 98 100 100 100 89 11 100 100 100 100 100 100 100 100 100 100 100 100 100 100 100 100 100
48 5 5 100 100 100 100 100 100 100 100 100 95 97 100 100 100 100 100 100 100 100 91 100 100 100 5 5 3 6 100 100 100 100 100 94 100 100 100 100 100 100 100 100 100 100 100 100 100 100 100 100 100 100
5 40 100 99 100 100 100 100 100 100 100 100 100 100 100 100 100 100 99 86 100 100 99 100 100 96 77 5 70 10 97 100 100 80 100 100 100 100 100 100 100 100 100 100 100 100 100 100 100 100 100 100 100 100
36 97 100 100 100 100 100 100 100 100 100 100 100 100 100 100 100 93 100 94 100 100 100 100 93 79 55 94 94 98 76 94 92 100 100 100 100 100 100 100 100 100 100 100 100 100 100 100 100 100 100 100 100 100
73 100 100 100 98 97 100 100 100 100 100 100 100 100 100 100 100 100 100 100 100 86 100 100 82 74 100 40 98 91 71 100 96 100 100 100 99 99 100 99 98 82 92 100 96 100 100 100 100 95 80 100 100 100
100 100 100 100 100 100 100 100 100 95 100 100 100 100 100 100 100 100 100 100 100 100 100 100 66 100 100 98 99 100 100 100 100 100 100 100 98 100 100 93 99 96 100 73 82 93 100 100 100 100 94 84 88 100
100 100 100 100 100 100 83 100 100 99 100 100 100 100 100 100 100 100 100 100 100 100 100 89 100 99 100 100 100 100 100 100 100 99 91 100 100 100 100 100 100 100 100 100 93 98 100 100 100 100 100 100 100 98
100 100 100 94 74 81 91 99 100 100 100 100 100 100 100 100 100 100 100 100 100 80 70 74 93 100 100 100 100 100 100 100 95 100 100 100 100 100 94 97 99 96 64 93 95 100 100 99 100 100 100 98 98 100
100 100 100 100 100 100 100 100 100 100 100 100 100 100 100 100 100 86 100 100 100 100 100 100 100 100 100 96 100 100 100 100 99 100 98 99 100 91 80 92 72 86 94 97 100 100 100 100 97 93 93 95 92 91
100 100 100 100 100 100 100 100 100 100 100 100 100 100 91 60 70 96 100 100 100 100 100 87 100 81 100 100 99 99 67 100 100 100 100 95 100 100 100 100 100 100 99 83 97 76 85 80 89 88 87 82 79 88
100 100 100 100 100 100 100 100 100 100 100 100 89 86 61 56 85 99 100 95 100 100 100 100 91 100 100 100 100 100 100 100 99 100 100 100 100 100 98 67 84 91 93 100 98 100 100 98 91 100 98 100 100 100
100 100 100 100 100 100 100 100 100 100 100 100 100 100 100 100 100 100 100 100 100 100 100 100 100 100 99 100 100 100 100 100 100 100 97 100 100 100 100 98 99 100 98 97 99 83 52 60 68 92 93 100 100 100
100 100 100 100 100 100 100 100 100 100 100 100 100 100 100 98 100 100 100 99 100 100 100 100 90 98 100 100 100 100 90 75 100 100 100 100 100 100 100 100 100 100 100 100 99 92 70 45 75 90 97 100 100 100
74 67 100 100 95 100 100 100 100 100 100 100 100 100 100 99 100 100 100 100 98 100 100 67 66 100 100 85 99 98 100 100 98 100 100 100 100 100 100 100 100 100 100 89 61 73 73 85 95 100 100 100 100 100
100 87 71 100 100 65 85 96 69 89 100 100 100 100 100 100 100 100 100 100 100 98 72 92 100 95 100 98 100 100 100 100 100 100 100 100 98 87 91 70 64 68 78 85 91 86 92 94 92 100 100 100 100 100
99 91 62 75 100 100 100 100 98 96 90 88 100 100 100 100 80 92 100 93 72 68 88 72 99 100 100 100 100 100 100 89 58 78 99 98 87 58 55 64 74 89 94 93 96 96 100 100 100 92 91 100 100 100
96 97 100 100 100 100 100 100 100 83 35 57 82 88 61 79 80 83 92 67 97 100 100 100 100 100 100 98 33 16 64 67 35 6 63 96 74 82 100 97 97 100 86 99 57 86 86 92 91 8 14 93 50 64
100 100 100 100 100 100 100 100 100 100 92 76 91 94 97 100 100 100 100 100 100 100 100 96 98 74 70 74 94 90 86 86 98 26 48 63 98 82 73 87 68 90 98 99 100 100 100 95 85 64 67 74 61 64
100 100 100 100 100 100 100 100 100 100 100 100 100 100 100 100 100 100 100 86 100 96 42 54 56 60 83 98 90 85 91 91 95 98 85 83 80 80 58 43 82 82 56 93 26 8 31 59 39 97 40 23 84 43
96 99 100 100 100 100 100 100 100 100 100 100 100 100 100 100 83 92 98 94 75 97 43 49 50 24 10 36 29 46 96 71 72 28 24 5 5 5 5 5 5 46 31 47 36 56 14 5 36 62 75 68 96 100
99 82 97 97 94 100 100 100 100 100 100 100 100 100 100 100 100 98 78 100 93 38 64 28 11 62 100 100 98 81 74 96 87 19 5 33 33 29 5 5 22 56 39 62 98 85 85 28 5 42 44 80 95 100
100 100 100 100 100 100 100 100 100 100 100 100 100 100 100 100 92 99 76 98 98 100 100 100 98 96 91 100 100 100 95 57 52 5 18 7 27 73 76 67 72 67 59 41 78 96 86 96 27 17 5 5 21 21
100 100 100 100 100 100 100 100 100 100 100 100 90 67 13 92 100 100 100 100 99 100 99 82 68 53 75 83 79 74 78 42 5 5 9 5 5 12 7 70 98 92 73 12 19 41 100 95 55 56 43 97 87 70
74 84 97 100 100 41 84 100 100 100 76 69 54 75 99 100 100 100 100 100 100 88 56 34 82 98 100 76 74 43 52 19 6 5 5 11 53 14 11 9 17 53 8 5 18 27 43 85 100 100 97 73 94 99
54 100 100 100 99 100 91 100 100 83 75 60 67 94 99 93 91 86 98 92 89 79 58 65 99 97 90 78 44 57 62 64 66 100 98 98 96 70 74 50 5 5 53 86 74 54 84 49 29 8 10 15 25 86
98 100 100 100 100 99 100 80 88 89 56 78 71 100 95 100 100 100 98 98 98 72 80 67 60 36 59 56 100 45 53 78 80 41 75 88 62 93 91 95 87 60 62 30 32 48 46 28 11 7 14 55 75 83
90 86 74 70 96 100 100 100 75 51 24 70 60 64 99 100 100 100 94 98 78 71 60 89 88 67 57 92 94 100 94 43 86 89 83 89 93 99 78 38 10 64 37 45 75 67 12 39 65 63 58 44 42 38
76 100 100 67 100 100 99 61 70 100 96 78 99 91 100 86 92 100 100 100 98 65 90 54 77 99 92 99 73 90 58 88 94 99 91 97 100 99 99 96 98 32 22 59 58 77 91 91 64 55 52 5 11 27
96 100 100 100 100 99 100 100 100 100 100 100 100 100 99 65 97 90 98 90 68 93 68 55 89 69 97 81 100 82 55 63 92 71 96 91 46 82 48 19 9 6 9 38 67 81 93 98 90 95 88 67 58 61

GFSWCAN_prec_cloud_087.txt.gz
Cloud_Cover
100 100 100 38 34 50 100 84 5 5 5 5 33 65 100 100 90 100 100 100 100 78 77 5 12 100 100 100 100 100 100 100 100 100 100 100 100 54 100 100 99 18 66 60 85 98 72 100 8 100 47 96 100 100
100 100 100 95 6 99 100 21 5 5 5 100 73 96 100 100 97 100 100 100 100 100 87 7 5 0 4 62 98 100 100 100 100 100 100 99 92 28 38 30 6 12 84 100 100 100 65 40 98 97 100 89 100 100
100 100 85 39 62 100 8 5 5 20 100 100 75 100 100 99 63 100 100 100 100 100 93 70 83 82 1 4 5 16 60 79 100 100 100 100 100 100 68 13 96 50 98 100 100 96 100 100 100 98 100 100 97 100
100 79 17 100 100 50 5 5 93 100 100 100 100 100 100 94 100 100 100 100 100 100 95 100 90 9 19 0 0 4 94 79 100 99 100 100 84 68 87 51 99 100 100 100 100 100 100 100 100 100 99 100 100 100
100 100 100 100 100 5 5 94 100 100 100 100 100 100 100 100 100 100 100 100 100 100 100 100 38 74 55 0 0 4 42 100 100 100 100 90 66 81 72 100 100 100 100 100 100 100 100 100 100 100 100 100 100 100
95 99 100 99 5 4 96 100 100 100 100 97 100 100 100 100 100 100 100 100 100 100 99 93 65 85 100 18 0 1 98 100 100 100 100 97 100 97 100 100 100 100 100 100 100 100 100 100 100 100 100 100 100 100
100 100 100 5 5 90 100 100 100 100 100 100 100 100 100 100 100 100 100 99 100 100 99 77 97 100 100 14 5 11 88 96 87 100 100 98 60 90 100 100 100 100 100 100 100 100 100 100 100 100 100 100 100 100
100 100 28 68 80 100 100 100 100 100 100 100 100 100 100 100 100 100 100 100 100 100 92 100 100 100 80 60 92 90 96 93 98 100 98 100 52 100 100 100 100 100 100 100 100 100 100 100 100 99 100 100 100 100
100 69 94 100 100 100 100 100 100 100 100 100 100 100 100 100 100 100 100 100 100 70 100 100 100 100 92 96 98 96 87 100 88 77 82 84 92 100 100 100 100 100 100 100 100 100 100 100 100 89 100 100 100 100
100 94 91 100 100 100 100 100 100 100 100 100 100 100 100 100 100 100 100 100 100 100 100 95 56 100 98 100 100 100 100 8 98 99 100 100 100 100 100 100 100 100 100 100 100 100 100 72 78 66 97 100 96 100
100 100 100 100 100 100 100 100 100 100 100 100 100 100 100 100 100 100 100 96 99 99 100 95 100 82 95 100 78 58 83 94 100 100 99 100 100 100 100 99 100 99 100 100 100 100 100 100 97 97 100 100 100 100
100 100 100 100 100 99 100 86 100 100 100 100 100 100 100 100 100 100 99 93 100 91 100 97 98 99 100 100 100 100 100 100 100 100 100 100 100 100 100 100 100 62 60 82 100 100 95 99 100 98 100 99 99 95
100 100 100 75 82 90 100 100 100 100 100 100 100 100 100 100 100 35 79 100 100 100 89 100 100 99 100 100 100 100 100 99 92 100 100 100 93 99 72 60 79 89 99 100 100 100 100 100 96 82 98 88 82 81
100 100 100 100 100 98 95 100 100 100 100 100 100 100 100 91 58 46 47 63 96 100 95 100 100 91 100 86 100 99 75 88 92 74 74 100 100 100 100 100 100 100 95 85 95 77 81 80 98 80 75 76 83 87
100 100 100 100 100 100 100 100 100 100 100 100 97 70 68 68 70 100 84 98 100 100 100 100 100 99 100 99 100 85 92 100 99 94 100 100 100 99 92 53 57 72 76 88 80 100 100 100 100 100 100 100 90 63
100 100 100 100 100 100 100 100 100 100 100 99 97 99 96 88 100 99 98 100 100 100 94 100 100 96 99 100 100 100 94 80 100 99 99 99 100 100 98 85 99 100 100 100 99 90 77 64 64 97 81 59 70 58
100 100 100 100 100 100 100 100 100 100 100 100 100 100 80 78 89 100 100 94 100 100 99 49 100 100 86 85 99 100 86 49 99 100 100 99 99 100 100 100 100 83 82 81 75 59 75 70 67 64 84 91 67 67
100 100 100 100 100 100 100 100 100 100 100 100 100 98 88 86 95 100 100 100 100 74 100 98 71 77 100 100 88 91 99 100 99 99 100 100 100 100 100 100 99 80 72 74 51 64 67 82 93 100 100 98 99 98
100 100 100 100 100 100 100 100 99 94 100 100 100 100 100 95 96 95 97 99 87 85 100 99 82 92 94 94 100 99 93 99 100 100 100 97 72 74 98 81 85 87 78 82 88 84 95 100 100 98 88 90 98 100
100 100 100 100 100 97 100 100 100 100 100 100 100 100 100 100 82 97 94 81 87 73 86 78 99 100 99 96 76 92 73 35 89 100 100 100 99 74 79 78 85 77 78 85 81 80 83 91 93 97 94 93 100 100
98 100 100 100 100 100 100 55 100 100 100 100 100 100 95 100 100 92 96 89 94 72 99 100 99 100 99 82 30 68 91 99 99 100 92 97 100 80 86 85 73 86 88 77 94 78 74 88 75 31 43 96 74 84
100 100 100 100 100 100 100 52 89 97 100 100 98 92 100 100 99 97 90 99 100 100 86 90 100 94 82 88 100 96 80 31 53 75 93 100 96 84 85 82 62 95 100 100 100 99 92 82 73 80 96 56 61 96
100 100 100 100 100 100 86 89 7 47 55 89 94 91 85 81 48 42 96 89 96 88 89 77 86 74 84 46 46 94 100 100 100 95 100 98 38 55 42 38 56 46 84 64 65 64 38 67 74 81 67 81 83 43
100 100 100 100 100 100 97 98 54 12 78 80 37 48 24 36 67 80 89 100 96 86 58 18 51 32 59 61 81 100 100 100 100 100 100 38 5 14 31 52 70 73 62 58 40 50 7 5 90 53 98 100 100 92
100 100 100 100 100 100 100 98 70 88 100 100 100 100 100 70 90 78 60 100 96 92 56 23 9 34 100 100 100 100 100 100 100 60 35 25 60 32 55 54 52 67 47 52 75 98 88 75 62 49 71 72 82 99
100 100 100 96 94 100 100 100 100 100 100 100 100 100 97 51 49 97 55 86 94 74 79 91 100 100 100 100 100 100 89 96 72 55 74 14 30 79 100 100 91 80 64 42 79 94 98 100 97 44 28 14 22 93
92 100 96 94 100 100 100 100 100 100 100 97 86 90 70 96 100 98 100 100 92 82 94 100 100 100 100 96 93 73 44 62 80 29 54 6 5 11 23 88 100 100 100 25 42 63 73 100 100 100 88 100 100 82
93 98 100 81 85 92 64 84 82 91 94 95 65 69 88 100 100 100 100 96 84 96 75 87 84 87 77 88 53 12 54 67 70 64 5 5 38 5 5 34 78 54 40 38 42 64 77 97 91 100 100 100 100 100
100 100 93 91 76 85 94 100 100 100 98 77 65 99 100 100 100 88 100 78 53 58 78 75 100 73 86 68 61 72 74 97 90 100 97 99 98 60 73 55 59 76 96 99 90 96 91 99 77 76 67 94 98 99
100 100 100 100 100 99 100 100 96 99 86 72 62 95 97 100 100 100 100 99 94 74 82 79 95 93 73 8 60 88 91 96 85 85 94 95 36 70 100 89 85 92 75 56 70 23 54 43 59 26 62 66 86 58
64 59 47 79 98 97 100 100 98 79 57 81 61 97 100 100 100 100 100 98 69 65 86 98 100 77 26 93 91 91 90 90 100 84 45 83 100 98 76 62 81 99 67 97 100 97 98 90 91 91 79 46 43 67
56 28 38 46 91 100 94 63 85 100 100 97 100 100 95 100 100 100 100 84 86 100 93 89 77 95 86 92 97 100 99 99 100 58 86 100 100 100 100 100 98 71 78 78 100 100 100 100 100 100 100 100 95 68
99 59 83 100 100 100 96 97 100 100 93 100 100 99 98 93 97 86 100 99 100 100 100 64 54 72 31 90 100 100 93 85 100 100 100 100 65 95 12 48 54 51 10 52 67 76 74 18 66 78 63 65 63 63

GFSWCAN_prec_cloud_090.txt.gz
Cloud_Cover
100 100 89 100 100 100 5 20 92 100 61 4 4 5 54 98 100 100 100 100 100 86 52 46 5 70 28 100 100 100 100 100 100 100 100 89 24 21 72 80 59 67 100 99 100 100 100 100 97 92 56 100 98 100
96 83 91 100 100 23 5 66 100 96 5 5 5 5 67 76 100 100 100 100 100 100 59 15 5 20 5 50 100 100 100 100 99 86 100 100 100 58 93 73 8 40 83 93 66 91 100 99 100 100 100 100 100 100
100 70 93 100 100 73 6 92 100 5 5 5 22 82 99 100 100 100 92 100 100 100 97 48 96 62 65 11 35 96 97 100 96 92 91 100 100 100 100 100 100 100 94 100 100 100 100 100 100 100 100 100 100 98
97 51 100 100 98 17 14 95 13 5 5 60 100 100 96 90 100 100 100 100 100 100 92 93 34 9 3 2 2 1 4 22 78 100 98 81 95 96 100 100 100 100 100 99 100 100 100 100 100 100 100 100 99 100
98 44 100 98 21 72 100 34 5 3 61 98 100 100 92 98 100 100 100 100 100 100 100 100 62 12 99 7 2 4 5 36 85 100 100 100 100 95 100 100 98 98 100 100 100 100 100 100 100 100 100 100 100 100
100 100 90 89 100 100 93 5 3 97 98 100 100 98 92 100 100 100 100 100 100 100 100 100 94 100 25 5 5 1 5 5 100 100 100 100 96 72 100 96 94 100 100 100 100 100 100 100 100 100 100 100 100 100
99 56 83 66 100 94 100 99 78 100 100 100 100 100 100 100 100 100 100 100 100 100 100 100 100 71 28 26 8 0 5 96 100 99 100 97 73 58 100 100 75 100 100 100 100 100 100 100 100 100 100 100 92 98
97 11 45 25 100 100 100 91 94 97 100 100 100 100 100 100 100 100 100 100 100 100 95 100 100 87 70 44 56 87 20 99 93 100 100 99 100 100 99 85 100 100 100 100 100 100 100 100 100 100 100 100 100 98
40 5 97 100 97 100 100 100 98 100 100 100 100 100 100 100 100 100 100 100 100 100 95 87 100 100 99 100 100 100 100 99 40 100 91 83 84 90 97 81 100 100 100 100 100 100 100 100 100 100 100 100 99 100
6 6 64 30 100 100 100 88 100 100 100 100 100 100 100 100 100 100 100 100 100 100 99 88 100 100 92 100 100 100 58 44 98 84 89 95 100 100 100 78 100 100 100 100 100 100 100 100 100 100 100 100 100 100
49 86 29 100 100 100 100 100 100 100 100 100 100 100 100 100 100 100 100 100 97 97 85 97 100 100 80 100 97 47 78 19 95 84 70 100 100 95 97 92 100 100 100 100 100 100 100 100 100 100 100 100 100 100
76 98 100 100 100 100 100 100 100 100 100 100 100 100 100 100 100 99 83 100 98 100 100 100 99 97 99 100 95 98 100 93 91 96 100 100 100 100 100 100 98 100 100 90 78 100 99 100 99 97 100 100 100 97
100 100 100 100 100 100 100 100 100 100 100 100 100 100 100 100 99 18 87 100 100 100 59 100 100 100 100 100 100 100 100 100 100 100 100 100 100 100 57 72 96 100 74 18 26 32 20 87 58 56 98 85 71 78
100 100 100 100 100 97 99 100 100 100 100 100 100 100 96 96 47 17 100 100 53 97 99 100 100 99 100 100 100 100 100 100 100 100 100 100 100 100 100 90 100 100 100 98 100 96 87 79 100 86 87 60 44 84
100 100 100 89 86 95 100 100 100 100 100 100 100 77 82 34 53 91 100 100 100 100 80 95 94 89 98 94 96 100 99 100 97 100 100 100 97 100 100 100 98 100 94 96 68 88 94 81 100 100 100 100 100 100
100 100 100 100 100 100 100 100 100 100 100 100 100 95 99 93 94 100 100 100 100 100 36 58 95 83 60 50 99 100 100 100 100 100 100 98 92 97 93 67 80 94 100 100 99 100 88 86 82 97 80 70 78 62
100 100 100 100 100 100 100 100 100 100 100 100 100 100 100 100 100 100 100 100 100 100 35 7 7 41 96 100 100 100 100 100 100 100 96 100 100 100 90 88 82 75 83 76 74 58 80 69 64 60 65 83 59 60
100 100 100 100 100 100 100 100 100 100 100 100 100 100 100 100 98 97 100 100 100 100 19 81 95 97 77 100 99 100 100 100 100 90 99 100 96 91 59 85 86 37 62 69 48 68 67 70 56 71 8 14 33 52
100 100 100 100 100 100 100 100 100 100 97 91 100 97 92 86 83 91 95 93 95 99 100 84 56 99 100 100 100 100 99 78 82 100 100 99 84 77 84 82 75 76 68 79 78 84 88 100 88 93 87 90 90 81
100 100 100 100 92 100 100 100 99 98 47 100 100 100 91 92 94 96 95 90 91 72 100 97 100 100 100 100 76 58 68 51 93 99 100 100 99 99 99 83 85 98 98 98 89 67 75 77 78 83 74 84 100 100
100 100 99 100 100 100 100 100 96 85 100 99 98 98 99 99 100 97 97 96 93 78 91 100 100 100 96 79 70 98 63 38 65 74 82 100 100 73 100 92 91 100 81 89 86 94 77 70 66 64 61 98 100 100
99 100 98 75 99 100 100 100 100 100 100 96 100 96 92 98 99 100 100 100 100 100 96 89 99 94 87 62 78 77 93 89 100 96 92 78 98 92 92 96 94 93 94 94 95 79 70 76 68 23 7 39 50 97
100 100 64 77 100 100 100 100 100 100 100 100 98 100 98 100 100 94 100 100 99 86 85 94 84 36 86 96 87 41 48 61 85 99 92 98 100 75 79 58 63 79 87 64 62 65 44 79 72 96 81 64 68 60
100 100 98 95 85 92 85 93 100 100 100 89 100 64 79 62 36 99 92 92 100 100 73 51 65 77 60 26 68 86 95 100 100 98 94 90 93 79 90 76 77 79 69 59 20 42 6 9 98 47 100 100 100 91
100 100 100 100 98 89 91 84 63 14 57 62 37 67 60 70 95 62 55 96 100 99 76 29 78 63 21 88 76 100 100 100 100 90 82 84 100 61 67 56 52 69 47 53 99 100 99 100 97 92 88 100 83 96
100 100 89 63 82 72 44 57 29 47 24 7 66 94 68 27 11 68 37 77 92 74 80 82 39 63 100 100 100 100 100 100 53 32 99 99 99 62 50 71 92 78 79 86 91 100 90 100 100 100 93 74 32 15
100 100 100 100 88 31 21 5 6 16 40 62 81 82 8 84 97 95 97 100 100 99 50 84 89 100 100 99 100 100 100 93 41 47 100 100 93 40 34 53 98 97 100 77 67 94 100 94 100 100 100 100 100 96
97 95 84 64 36 7 41 54 76 85 99 99 11 39 98 100 100 100 100 100 100 71 78 100 80 86 93 96 100 100 86 71 24 44 100 99 68 35 51 91 93 55 62 56 66 78 100 100 100 100 100 100 74 93
49 93 77 37 34 51 96 100 99 100 98 88 63 100 100 99 100 100 100 100 69 100 100 93 100 92 98 97 100 97 58 55 67 79 100 100 97 70 77 79 92 88 100 99 99 98 95 100 99 100 99 95 92 96
70 46 55 29 44 99 100 100 97 99 95 82 65 91 96 100 100 100 100 98 100 100 92 81 95 100 96 100 98 94 93 98 94 100 98 94 72 45 100 100 97 100 74 84 98 63 59 72 62 57 48 66 92 92
18 6 20 20 97 97 100 100 100 94 38 69 64 76 91 100 100 100 100 100 100 100 97 98 100 100 94 99 91 63 10 49 100 95 100 82 100 99 76 88 100 100 88 100 100 100 100 100 100 98 100 95 63 86
6 38 31 66 90 90 88 57 78 99 100 99 85 84 91 100 100 100 100 100 100 99 100 100 100 100 97 82 33 91 16 74 100 95 100 100 100 100 100 100 100 99 100 100 100 100 100 100 100 100 100 100 100 98
72 74 100 100 97 100 86 58 55 64 96 82 98 94 99 98 98 99 99 100 100 100 100 100 96 95 89 49 82 100 100 100 100 100 100 100 78 100 30 57 53 28 6 35 62 64 9 5 11 5 5 16 5 5

GFSWCAN_prec_cloud_093.txt.gz
Cloud_Cover
100 100 100 100 100 100 100 100 100 38 42 99 10 0 5 5 17 99 100 83 100 68 5 5 5 5 5 93 100 100 100 100 100 100 100 100 100 100 100 100 100 100 100 100 100 100 100 100 7 30 77 100 100 100
100 100 100 100 100 100 98 95 8 6 100 95 40 2 1 5 5 89 100 100 100 100 50 5 5 3 5 19 95 100 100 100 100 100 100 100 100 100 100 100 100 100 100 100 100 100 100 100 100 100 100 100 100 100
66 97 91 44 84 75 98 16 5 13 100 39 5 5 5 15 36 72 100 100 100 100 100 97 6 4 5 7 51 89 100 100 96 100 100 100 94 97 92 91 98 99 99 99 100 100 100 100 100 100 100 100 100 100
88 42 99 100 54 40 99 14 5 100 82 5 5 5 75 99 98 98 93 100 100 100 100 58 23 5 5 4 5 21 92 100 100 100 100 100 100 99 99 85 99 83 62 96 100 100 100 99 100 100 100 100 100 100
56 100 100 89 9 95 84 9 6 98 11 5 36 100 100 100 100 99 90 87 90 100 79 67 11 5 5 5 5 2 5 5 6 31 100 100 100 100 100 100 88 93 100 100 100 100 100 100 100 100 100 100 100 100
92 100 100 91 100 95 5 55 100 57 5 45 97 89 100 100 100 100 100 100 100 100 100 100 100 81 70 6 5 5 5 5 5 25 100 100 60 93 99 100 100 100 100 100 100 100 100 100 100 99 100 100 100 84
100 100 100 100 59 43 18 100 65 5 20 100 100 100 100 100 97 100 100 64 100 100 100 100 100 71 78 58 6 5 5 7 10 100 100 99 35 57 93 100 100 100 100 100 100 100 100 100 97 100 100 98 76 89
44 73 97 82 18 5 61 100 5 10 100 100 100 100 100 100 100 100 100 100 100 100 100 100 99 95 96 52 28 14 38 88 95 94 100 99 99 100 80 86 72 88 98 100 100 100 99 99 100 100 100 100 83 98
11 100 94 16 5 5 89 85 5 100 100 100 100 100 100 100 100 100 100 100 100 100 100 98 84 100 100 100 99 99 88 90 61 96 100 100 100 100 79 100 88 80 67 100 100 100 100 100 100 100 100 100 98 100
65 100 100 5 73 100 97 74 100 100 100 100 100 100 100 100 100 100 100 100 100 100 100 100 73 100 100 100 100 100 63 70 100 85 81 99 73 96 96 85 94 91 91 100 100 100 100 100 100 100 100 100 100 100
5 5 5 5 89 100 96 100 100 100 100 100 100 100 100 100 100 100 100 100 100 99 100 100 78 100 85 98 100 62 84 12 48 27 59 100 100 100 100 100 98 78 100 100 100 100 100 100 100 100 100 100 100 100
5 9 60 67 100 97 100 100 100 100 100 100 100 100 100 100 100 80 96 100 100 83 63 100 100 55 79 100 99 100 97 80 79 96 100 100 100 100 100 100 97 74 84 100 100 100 100 100 100 100 100 100 99 98
73 88 100 100 100 100 100 100 100 100 100 100 100 100 100 100 100 56 100 100 98 96 77 99 83 100 98 100 99 100 100 96 97 99 97 71 100 99 80 100 89 89 99 81 98 98 100 100 92 68 99 93 72 91
100 95 96 100 100 100 100 100 100 100 100 100 100 100 59 79 39 96 100 91 12 61 41 89 100 93 100 100 100 100 98 94 97 94 100 100 100 100 100 100 100 80 60 69 87 73 86 99 100 88 75 45 63 76
100 100 100 100 100 100 100 100 100 100 100 100 100 82 82 14 39 99 100 100 100 57 69 74 92 70 99 100 98 100 100 100 100 100 100 100 100 100 100 100 100 100 100 100 100 100 100 89 89 100 76 56 88 98
100 100 100 100 100 100 100 100 100 100 100 100 95 52 81 94 100 100 100 99 100 99 80 52 63 78 74 82 100 100 100 100 100 100 100 100 100 100 100 100 100 93 94 74 76 69 73 74 64 96 94 73 88 97
100 100 100 100 100 100 100 100 100 100 100 100 100 76 91 64 77 80 84 100 100 100 84 49 66 15 22 52 100 100 100 100 100 100 100 100 91 98 100 100 95 84 66 67 78 55 51 76 87 98 71 92 78 84
100 100 100 100 100 100 100 100 100 100 100 100 100 100 100 100 100 99 77 100 100 100 82 63 5 44 55 100 100 100 100 100 100 93 90 97 81 86 40 60 67 60 67 57 99 85 78 86 96 84 65 70 67 72
100 100 100 100 100 100 100 100 100 100 90 100 100 100 100 100 96 68 73 86 100 100 100 79 27 88 96 100 100 100 98 85 92 100 100 98 81 100 78 55 54 63 56 62 78 79 83 96 100 100 100 100 100 100
100 100 100 100 97 100 100 100 100 100 100 100 100 100 89 86 96 92 93 97 100 93 99 100 100 93 99 96 79 76 97 99 81 99 100 100 99 76 76 81 98 81 79 89 99 91 100 100 100 89 55 35 92 100
100 100 100 100 100 100 100 98 76 82 97 98 100 99 95 99 100 100 100 98 100 100 100 100 100 100 96 81 100 100 66 72 100 100 100 98 86 92 99 100 85 97 98 99 99 98 99 88 65 5 5 28 70 91
100 100 100 100 100 100 98 19 22 35 68 92 100 95 84 92 93 99 99 100 99 100 88 96 96 97 99 89 62 62 59 97 72 70 76 66 100 93 99 94 98 95 100 98 99 97 82 68 54 22 5 5 39 86
100 100 100 100 100 100 100 95 47 65 83 96 92 100 99 99 99 98 100 95 94 99 92 96 88 76 89 52 39 37 57 36 44 71 90 99 75 48 40 100 86 97 68 70 35 21 8 59 68 84 96 82 61 49
74 97 100 100 100 100 100 100 100 67 94 100 100 88 100 100 74 93 70 86 97 100 91 90 77 97 88 51 89 95 52 57 96 100 100 85 80 20 27 92 100 55 27 5 5 5 5 9 66 52 100 100 100 100
70 46 84 100 100 93 99 100 100 80 94 96 100 100 99 63 49 48 38 94 100 100 96 75 94 63 56 99 99 78 68 99 97 69 74 63 74 44 72 79 100 21 62 20 26 88 92 98 100 97 78 89 40 76
99 91 99 88 80 54 99 88 50 54 28 56 93 99 59 70 23 46 37 69 81 81 96 82 60 72 94 91 88 82 89 96 89 98 98 84 66 40 11 99 68 46 25 34 5 16 41 90 99 98 97 91 90 74
78 94 81 89 67 23 7 5 6 12 33 80 95 97 57 53 64 92 94 79 89 98 77 84 71 100 100 91 70 74 87 84 100 100 92 61 39 21 13 35 58 76 83 20 5 36 62 89 96 90 92 92 97 99
74 73 60 58 34 5 60 50 83 98 96 100 45 49 9 26 76 99 100 100 100 98 79 87 100 100 100 88 80 71 100 100 100 98 59 59 53 51 29 72 86 76 9 42 14 18 30 63 65 87 95 82 63 97
36 65 6 27 5 25 98 100 97 100 100 68 20 99 100 100 100 100 100 100 76 95 99 100 100 100 87 92 96 99 93 100 100 88 62 95 69 72 74 81 80 78 88 78 90 99 96 98 93 98 98 99 99 100
66 16 21 29 42 99 100 100 99 100 96 94 44 77 93 100 100 100 100 100 100 100 99 84 76 76 90 100 92 92 100 100 81 100 82 89 52 61 100 97 72 96 74 56 41 29 71 43 54 26 35 50 67 71
21 5 24 10 93 98 100 100 99 49 26 43 74 74 85 99 100 100 100 100 100 100 100 84 92 86 95 100 84 96 70 92 100 100 80 77 100 92 71 97 100 90 84 97 100 100 98 93 100 100 97 82 48 71
5 57 41 70 83 88 85 59 86 93 100 97 99 71 95 100 100 100 100 100 100 100 100 99 100 100 100 100 98 94 100 100 100 100 84 97 100 100 100 100 100 100 60 50 33 72 90 74 19 6 5 5 5 5
77 60 93 93 99 100 84 54 69 68 98 100 100 100 99 100 100 100 100 100 99 100 100 100 100 100 100 100 100 100 100 100 100 100 100 100 100 59 16 35 33 52 35 52 54 69 24 48 5 5 5 5 5 5

GFSWCAN_prec_cloud_096.txt.gz
Cloud_Cover
100 100 100 100 100 100 100 100 100 100 100 100 100 100 100 100 15 61 100 100 97 96 70 21 5 25 62 50 86 100 100 75 98 100 99 99 95 98 100 100 100 100 100 100 100 100 100 100 59 99 100 100 100 100
100 100 100 100 100 100 100 100 100 100 100 100 100 100 100 65 5 80 100 100 100 100 99 57 9 5 5 8 21 100 57 48 100 100 87 100 100 99 100 100 100 100 84 100 100 100 100 100 100 100 100 100 100 100
100 100 100 100 100 100 100 100 100 100 100 100 100 99 6 4 4 84 100 100 100 100 83 92 17 5 3 52 79 100 100 20 90 86 97 100 100 59 100 100 100 100 100 99 100 100 100 100 100 100 100 100 100 100
100 100 100 100 100 100 100 100 100 100 100 100 97 5 4 4 4 97 98 94 100 100 99 68 5 4 5 6 62 79 100 56 10 81 99 100 100 58 100 91 100 100 100 100 100 100 100 100 100 100 100 100 100 100
100 100 99 35 99 82 29 25 22 6 10 99 25 5 5 12 38 87 100 97 94 80 100 89 62 5 5 5 10 57 77 100 100 90 93 98 86 84 72 59 99 100 100 100 100 100 100 100 100 100 96 95 100 100
100 98 66 68 96 88 5 5 5 12 53 80 5 5 75 100 99 100 100 94 99 98 100 91 12 59 28 5 5 9 20 75 100 92 76 98 35 99 99 100 100 100 100 100 100 100 100 96 99 100 100 97 99 90
92 96 96 100 95 78 25 5 37 66 94 95 11 92 81 99 100 100 71 96 90 100 100 98 100 100 100 100 87 42 72 92 74 92 42 73 87 31 75 100 100 100 100 100 100 100 100 100 100 100 88 93 78 89
100 100 100 100 42 91 8 5 18 100 12 28 66 100 100 100 100 100 99 100 100 100 100 100 76 98 100 100 93 58 86 72 95 81 87 74 87 99 100 93 92 92 100 100 100 100 100 100 90 97 90 89 98 98
100 100 100 100 91 5 5 2 56 22 11 100 100 100 100 100 100 100 100 100 100 100 100 100 86 99 88 94 100 76 97 93 70 100 86 42 100 99 98 89 99 91 81 71 100 100 100 100 99 99 100 100 100 100
100 100 40 38 16 5 5 11 89 5 100 100 100 100 100 100 100 100 100 100 100 100 83 100 67 85 72 100 100 98 55 87 89 78 100 100 100 100 100 100 100 84 61 51 99 100 100 100 100 99 97 100 100 100
99 8 18 91 61 5 5 98 23 15 100 100 100 100 100 100 100 100 100 100 98 92 100 100 78 81 77 100 93 76 70 54 92 78 98 100 100 100 100 100 100 84 63 70 80 99 100 100 100 100 100 100 100 100
68 5 72 97 5 32 100 83 5 79 100 100 100 100 100 100 100 96 100 100 100 54 91 100 99 99 90 91 88 100 87 85 88 87 96 100 100 100 100 100 100 89 93 96 91 99 99 100 100 100 100 100 100 100
27 41 5 5 5 44 100 39 94 100 100 100 100 100 100 100 94 90 100 100 91 59 80 79 94 86 67 100 100 96 99 96 63 100 98 100 100 100 99 100 95 94 100 100 96 96 100 97 93 97 100 100 100 100
75 5 54 7 24 31 90 100 100 100 100 100 100 100 98 92 94 100 100 31 17 41 82 100 72 100 100 100 100 98 96 86 100 98 99 100 100 100 100 100 100 100 100 100 100 100 100 100 100 100 100 100 100 100
5 5 10 8 100 100 100 100 100 100 100 100 100 86 94 98 100 100 85 36 100 28 99 99 89 80 97 97 94 98 100 100 100 100 100 100 100 100 100 100 99 99 100 100 100 100 100 100 100 100 100 100 93 87
61 89 99 91 100 100 100 100 100 100 100 86 53 85 86 97 100 99 96 97 99 100 61 41 78 99 98 100 98 100 100 100 100 100 100 100 100 95 98 91 94 100 100 100 100 100 100 100 100 100 100 100 100 98
100 100 100 100 100 100 100 100 100 100 100 63 96 77 100 94 92 100 100 95 100 75 84 68 94 97 73 81 80 100 100 100 100 100 100 99 86 89 92 90 94 100 100 100 100 93 97 100 100 99 100 100 99 61
100 100 100 100 100 100 100 100 100 94 92 98 85 100 85 92 100 100 100 96 98 99 54 72 6 65 62 56 100 100 100 100 100 100 100 100 100 93 91 89 95 93 95 89 97 98 99 100 98 99 97 100 98 100
100 100 100 100 100 100 100 100 100 100 100 93 100 95 96 98 93 95 83 100 83 93 92 38 28 31 90 100 97 100 99 100 96 100 93 98 100 88 95 98 96 100 99 96 100 99 100 100 100 100 100 100 100 100
100 100 100 100 100 100 100 100 100 100 100 100 100 100 100 100 94 100 98 100 100 100 100 95 52 96 100 96 83 94 99 98 93 100 100 100 96 98 100 97 100 97 97 97 98 66 100 100 100 100 92 94 100 100
100 100 100 100 96 98 100 100 100 100 100 95 99 98 100 93 98 100 100 100 100 98 84 76 100 100 86 84 87 72 97 93 100 92 93 96 98 100 96 100 98 100 100 100 100 100 74 100 100 100 100 100 100 100
100 100 100 93 77 82 100 100 75 91 93 100 100 96 100 100 100 100 100 100 100 96 100 99 94 82 71 55 45 55 52 75 67 69 96 85 100 99 100 100 100 100 100 100 100 100 100 100 100 100 100 100 75 100
100 100 100 100 100 99 76 84 74 75 89 99 99 98 100 100 91 98 100 92 100 98 93 98 95 89 59 25 8 13 11 33 46 88 97 98 100 100 100 100 99 96 100 100 100 100 100 74 69 92 100 99 100 100
100 100 100 100 100 100 71 72 88 89 99 100 98 99 95 92 88 93 84 99 99 99 100 93 96 96 78 34 65 72 48 58 65 99 100 100 98 92 71 46 42 14 73 62 100 100 99 100 64 93 100 100 100 100
100 100 100 100 100 100 100 90 71 51 99 73 80 89 86 32 50 42 45 100 100 100 98 96 87 60 96 89 100 85 76 99 100 100 93 94 82 94 77 68 45 36 61 100 100 100 100 100 100 100 100 100 100 100
100 100 100 100 100 98 99 55 22 40 5 63 92 96 78 49 13 6 22 100 100 100 99 96 98 97 97 87 89 99 100 100 100 99 84 67 83 80 76 61 88 99 88 97 100 100 98 89 95 100 100 100 90 80
90 99 98 77 82 88 68 36 17 52 37 89 97 95 48 5 6 79 100 100 97 98 99 95 64 48 58 84 100 100 98 91 87 98 100 100 84 65 61 68 62 98 100 70 71 67 79 85 97 100 100 100 100 100
98 96 98 84 88 47 41 38 37 67 100 93 59 39 5 6 65 100 100 99 100 93 61 58 65 86 92 100 100 100 92 99 98 100 100 99 76 78 100 89 63 38 79 73 88 81 100 100 100 100 100 100 100 100
58 34 31 29 24 75 100 98 100 100 100 92 65 89 100 100 100 100 100 100 94 65 76 85 98 95 97 100 100 99 98 99 100 100 100 100 93 100 100 96 100 100 100 100 71 84 100 100 100 100 100 96 97 100
27 23 5 10 26 95 100 100 100 100 100 99 97 99 100 100 100 100 100 100 100 96 100 100 100 98 100 100 94 98 100 100 100 100 100 91 98 100 100 100 100 93 87 94 72 77 43 63 89 99 87 99 99 97
33 5 45 93 100 100 100 100 93 76 96 93 96 96 100 100 100 100 100 100 100 100 100 98 98 99 97 89 98 99 100 94 100 100 99 98 100 100 99 90 97 100 91 63 12 5 5 9 45 41 6 5 5 5
32 35 35 78 100 100 100 72 97 100 100 100 100 99 100 100 100 100 100 100 100 100 98 85 100 90 84 100 100 98 100 100 100 100 84 100 96 97 97 78 25 44 26 9 37 12 5 5 5 5 5 5 5 5
77 77 91 92 100 100 93 68 62 100 98 100 100 96 95 95 99 100 100 100 100 95 83 96 99 97 100 100 100 100 100 100 100 100 100 93 67 44 52 86 73 21 5 5 5 5 5 5 5 5 5 5 5 34

GFSWCAN_prec_cloud_099.txt.gz
Cloud_Cover
100 100 100 100 100 100 100 100 100 100 100 100 100 100 94 99 100 100 100 100 100 96 78 88 97 98 100 100 100 88 90 88 95 100 98 100 100 100 100 72 100 100 100 100 98 84 99 97 91 82 100 100 100 100
100 100 100 100 100 100 100 100 100 100 100 100 100 100 100 100 100 100 100 100 100 100 43 38 8 5 8 82 88 100 38 99 100 96 90 98 100 100 100 100 83 100 100 100 94 100 100 100 100 100 100 100 100 100
100 100 100 100 100 100 100 100 100 100 100 100 100 100 100 100 100 100 100 100 100 100 23 36 31 62 5 5 13 92 93 70 100 98 84 100 99 100 100 100 100 100 100 100 100 100 100 100 100 100 100 100 100 100
100 100 100 100 100 100 100 100 100 100 100 100 100 100 100 100 100 100 100 100 94 97 80 89 4 9 5 5 81 100 93 50 100 100 100 100 97 96 90 100 100 100 100 100 100 100 100 100 100 100 100 100 100 100
100 100 100 100 100 100 100 100 100 100 100 100 100 100 100 100 90 61 98 100 90 69 100 44 24 67 5 5 100 100 100 75 83 100 100 99 81 71 84 84 100 86 100 100 100 100 94 100 100 95 74 74 73 81
100 100 100 100 100 100 100 100 96 100 100 92 59 40 18 6 4 88 98 48 91 100 90 50 89 30 20 5 19 100 100 100 91 92 55 16 43 94 100 98 96 99 100 100 100 100 100 100 100 100 95 90 100 100
100 100 100 98 99 79 97 84 39 31 5 5 30 5 5 8 94 99 85 100 89 100 99 72 100 75 49 100 100 100 100 100 100 99 84 96 100 70 79 97 100 100 100 100 100 100 100 100 99 92 85 92 96 30
96 100 62 100 100 99 98 55 10 6 4 5 5 5 20 97 93 90 70 100 100 100 100 90 100 100 100 100 100 100 100 100 100 91 100 33 84 68 98 99 100 100 100 100 100 100 100 96 94 95 100 100 96 93
98 92 100 100 97 100 100 98 5 5 60 15 96 100 100 100 100 100 86 100 100 100 100 94 85 100 100 100 91 81 100 100 75 63 75 69 82 67 99 100 89 93 100 100 100 100 100 98 100 80 89 92 79 100
56 95 100 100 96 96 96 52 5 27 62 53 100 100 100 100 100 100 100 100 100 100 91 100 67 99 72 91 98 95 99 94 100 97 49 94 100 92 98 94 98 90 95 85 100 100 100 100 100 100 100 96 100 100
99 100 100 92 94 100 100 4 4 65 26 100 100 100 100 100 100 100 99 92 100 100 87 92 79 100 77 75 98 77 77 41 91 90 87 100 100 100 95 100 97 95 81 57 60 77 93 97 100 100 100 100 100 100
100 100 100 98 98 70 15 5 88 61 55 98 99 100 100 100 100 100 91 84 100 100 89 98 83 100 65 51 92 42 80 61 96 60 80 100 100 100 100 100 100 100 94 76 94 95 99 99 100 100 100 100 100 100
99 99 52 87 76 5 5 58 97 44 100 100 100 100 100 100 99 92 100 100 100 71 83 89 92 90 54 66 93 96 89 95 38 100 95 98 100 100 99 100 100 100 100 100 94 93 100 100 100 100 100 100 100 100
85 52 100 100 97 5 60 100 55 98 100 100 100 100 97 96 100 100 98 54 97 72 100 100 87 94 97 90 100 99 68 80 94 100 91 99 100 100 100 100 100 100 100 100 100 100 100 100 100 100 100 100 100 100
100 46 51 81 7 5 99 99 70 100 100 100 100 81 100 100 100 100 99 100 99 83 97 97 79 72 92 87 95 96 98 99 100 100 100 100 100 100 100 100 100 100 100 100 100 100 100 100 100 100 100 100 100 100
79 80 98 34 92 47 100 91 100 100 100 100 93 100 100 100 100 100 100 100 100 100 69 80 99 100 97 94 91 100 100 100 100 100 100 100 100 96 100 100 100 100 100 100 100 100 100 100 100 100 100 100 100 100
95 87 51 74 100 100 98 96 100 100 100 100 100 100 100 100 100 100 100 100 100 75 100 99 99 99 90 100 100 100 100 100 100 100 100 100 100 100 100 100 100 100 100 100 100 100 100 100 100 100 100 100 100 98
60 41 19 92 100 100 100 100 100 100 100 100 100 100 100 100 100 100 100 98 100 100 93 91 70 48 98 94 100 100 100 100 100 100 100 100 100 100 100 99 100 100 100 100 100 100 100 100 99 100 94 100 100 100
71 43 45 88 99 100 100 100 100 100 100 100 100 100 100 97 98 98 97 96 52 40 86 48 37 76 94 96 100 100 100 100 100 100 100 100 100 100 100 99 100 100 100 100 100 100 100 98 100 100 100 100 100 100
100 100 100 100 100 100 100 100 100 97 100 100 100 100 100 100 100 100 98 67 97 99 99 46 90 100 100 100 98 100 100 100 98 99 100 100 96 98 93 98 100 100 100 100 98 47 100 100 100 100 100 92 100 100
100 100 100 100 100 100 100 100 100 90 96 100 100 92 100 100 100 96 100 94 97 99 90 77 99 96 100 95 100 92 100 94 99 91 91 99 100 100 100 100 98 100 100 100 100 100 69 100 100 100 100 100 100 100
100 100 100 100 100 100 100 99 81 87 100 100 100 100 100 100 100 98 79 98 97 96 83 78 84 99 82 95 89 95 84 59 53 56 94 92 100 100 100 100 100 100 100 100 100 100 100 100 95 100 100 100 100 100
100 100 100 100 100 100 99 87 80 91 96 100 100 99 100 100 94 29 89 85 99 90 77 83 54 86 88 89 51 29 51 53 89 98 98 100 100 100 100 100 100 100 100 100 100 100 100 80 83 92 100 100 100 100
100 97 86 100 99 100 100 98 96 85 91 98 100 99 100 100 75 79 99 98 100 99 97 91 96 86 51 16 56 72 78 96 99 100 100 100 100 100 100 100 100 93 98 95 95 100 100 100 97 98 100 100 100 100
100 100 100 100 100 100 100 100 100 100 100 100 99 96 91 77 93 86 90 99 100 97 98 100 99 70 68 100 92 83 83 98 82 95 100 100 100 100 100 100 82 58 61 100 100 100 100 100 100 100 100 100 100 100
100 100 100 100 100 95 99 96 97 95 98 95 93 89 70 88 83 84 85 100 100 100 100 97 98 95 95 98 94 98 94 97 96 100 100 99 100 100 100 87 97 100 96 99 100 100 100 100 100 100 100 100 87 78
100 100 100 100 100 89 93 82 81 73 90 97 96 98 86 90 94 97 100 100 100 100 100 100 100 100 98 99 100 100 100 100 84 78 83 99 98 78 82 98 98 100 99 100 100 100 100 100 100 100 100 100 100 100
100 100 100 100 100 95 79 63 57 76 92 78 86 88 92 92 100 100 100 100 100 100 100 100 100 100 100 100 100 100 99 89 98 84 100 94 56 76 60 73 40 63 76 36 78 100 100 100 100 100 100 100 100 100
100 100 100 100 99 94 100 94 95 97 91 100 97 99 98 100 100 100 100 100 98 99 98 100 100 100 100 100 100 94 93 100 85 78 70 64 99 100 100 100 100 100 100 100 61 53 98 100 100 100 100 100 100 100
100 97 93 97 95 100 100 100 100 100 100 100 99 94 100 100 100 100 100 100 100 100 100 100 100 100 100 100 100 100 99 100 100 85 67 89 98 100 100 100 100 96 91 97 92 92 76 76 96 100 100 100 100 99
93 92 94 99 100 100 100 100 100 100 100 100 100 96 100 100 100 100 100 100 100 100 100 100 100 100 100 100 84 97 98 95 88 84 95 91 100 100 100 82 87 88 86 80 72 85 68 18 68 86 100 96 94 92
98 98 77 100 100 100 100 100 100 100 100 100 100 100 100 100 100 100 100 100 100 100 100 100 100 100 100 100 100 100 100 92 93 100 92 92 100 100 94 44 67 95 71 58 91 89 68 6 37 47 71 82 99 95
99 100 100 99 100 100 98 100 97 100 100 100 100 100 100 100 100 100 100 100 100 100 100 100 100 100 100 100 100 100 97 100 100 89 81 80 100 92 89 98 77 68 18 36 59 77 76 71 22 52 92 100 100 100

GFSWCAN_prec_cloud_102.txt.gz
Cloud_Cover
100 100 100 100 100 100 100 100 100 100 100 100 100 100 100 89 86 43 58 66 84 96 64 80 82 35 85 76 92 43 32 95 33 100 100 100 100 100 100 100 100 100 100 100 100 94 100 100 100 100 100 100 100 100
100 100 100 100 100 100 100 100 100 100 100 100 100 100 100 98 100 14 96 65 72 100 25 16 11 7 5 6 59 10 62 94 24 100 100 100 100 100 100 100 100 100 100 100 100 100 100 100 100 100 100 100 100 100
100 100 100 100 100 100 100 100 100 100 100 100 100 100 100 100 100 22 99 78 100 100 100 100 54 20 5 7 5 45 98 52 82 100 100 100 100 100 100 100 100 100 100 97 100 100 100 100 100 100 100 100 100 100
100 100 100 100 100 100 100 100 100 100 100 100 100 100 100 100 83 9 65 100 93 100 100 93 33 37 5 5 5 9 18 68 100 100 100 100 100 100 100 100 100 100 96 100 100 100 100 100 100 100 100 100 100 100
100 100 100 100 100 100 100 100 100 100 100 100 100 100 100 100 90 76 100 100 100 100 90 40 28 5 12 23 5 34 98 100 100 98 98 89 60 46 100 100 100 100 99 100 100 100 89 100 100 99 85 81 81 84
100 100 100 100 100 100 100 100 100 100 100 100 100 100 100 100 100 100 100 100 74 19 62 87 91 33 19 5 85 100 100 100 100 100 57 100 100 91 69 98 100 100 100 100 100 98 75 86 100 100 96 90 86 96
100 100 100 100 100 100 100 100 100 100 100 100 100 100 100 100 97 97 74 100 100 92 78 68 94 96 5 51 67 100 100 100 100 100 96 68 100 100 100 99 100 100 100 100 100 100 99 97 100 100 100 100 100 100
93 98 100 100 100 100 100 100 100 100 100 100 100 100 72 24 50 66 100 100 100 100 76 89 71 98 100 91 82 73 66 78 34 45 59 46 31 70 100 99 100 100 100 100 100 99 100 79 90 99 100 100 100 100
13 100 100 99 100 100 98 100 100 100 97 88 98 77 78 42 72 25 79 100 98 100 100 90 100 100 100 100 100 100 88 72 64 72 79 34 60 95 100 100 99 99 100 100 94 99 86 86 100 99 98 89 86 95
55 92 68 100 99 45 100 99 98 49 92 65 90 100 100 98 24 50 94 100 100 100 100 90 100 92 99 100 100 80 87 97 100 37 58 79 100 100 82 90 100 68 85 86 100 100 99 100 100 94 86 100 99 99
5 16 98 100 99 99 100 100 100 100 98 98 100 100 100 94 100 100 100 100 95 100 64 94 100 98 90 79 99 67 93 66 74 90 63 95 100 100 100 97 97 98 98 97 85 73 91 96 99 99 100 100 100 100
5 37 100 100 98 96 100 100 100 92 74 60 97 100 100 100 100 100 62 60 92 64 96 100 100 98 100 99 100 55 39 20 80 77 100 100 100 100 100 99 100 100 96 80 97 98 100 100 100 100 100 100 100 100
94 36 95 98 99 95 100 54 6 77 99 100 100 100 100 100 100 97 98 92 85 66 100 100 91 96 50 61 86 94 76 64 18 98 89 100 100 100 100 99 100 95 99 100 100 100 100 96 92 100 99 99 99 99
93 63 95 38 24 93 99 33 5 95 100 100 100 100 100 95 38 6 83 55 25 81 100 100 98 77 50 70 98 86 29 28 95 85 98 100 100 98 100 100 100 99 86 84 90 80 87 100 96 68 79 45 78 94
100 94 97 98 98 20 9 38 78 100 100 100 100 100 76 63 84 100 100 99 66 100 100 97 93 94 63 76 85 97 56 81 99 100 100 100 100 100 100 100 100 100 94 100 99 96 72 78 100 99 99 96 44 11
100 100 100 94 100 100 100 100 100 100 100 100 100 100 79 100 100 100 100 100 100 100 100 78 89 99 82 68 88 99 98 100 100 100 100 100 100 100 100 99 98 99 100 98 98 97 88 46 67 72 38 5 5 5
98 99 90 98 70 22 99 100 100 100 100 100 100 100 100 100 100 100 90 100 100 100 94 84 96 100 71 100 100 100 100 100 100 100 100 100 100 100 99 99 94 94 96 90 96 96 92 85 12 74 97 87 12 85
100 100 80 100 95 83 100 100 99 100 100 100 100 100 100 100 100 99 100 100 100 100 74 94 91 95 95 98 98 99 100 100 100 100 100 100 89 95 94 99 100 99 94 90 94 81 59 51 100 100 80 97 73 100
100 76 79 87 82 83 98 98 100 100 100 100 100 100 100 100 100 86 65 100 100 93 86 88 56 92 95 100 100 100 100 100 99 100 100 100 100 100 100 100 96 95 98 87 93 100 100 68 50 55 79 98 100 88
100 66 63 100 98 100 100 100 97 100 100 100 100 100 100 100 100 98 93 99 100 89 85 99 96 97 100 100 100 100 100 99 94 98 100 100 100 100 95 94 100 99 99 100 100 100 100 82 100 100 88 5 23 81
42 48 100 100 100 100 90 100 100 100 100 100 100 100 100 100 100 100 100 88 69 83 94 100 100 100 100 100 100 100 98 81 80 93 94 100 97 100 98 100 100 100 100 100 96 100 93 74 84 98 10 60 64 42
81 52 100 100 100 100 100 100 100 100 100 100 98 100 100 100 100 100 93 100 100 95 92 100 94 86 86 84 90 93 84 74 87 92 97 100 100 100 100 100 100 100 98 100 100 93 72 98 56 5 9 93 59 12
100 100 100 100 100 100 100 100 100 100 100 100 97 100 99 98 100 81 99 98 86 86 78 56 19 79 87 99 72 46 6 37 96 98 100 100 95 99 100 100 95 61 94 100 94 33 96 37 68 62 18 18 90 98
100 100 99 100 100 100 93 99 100 96 100 94 100 100 100 100 96 100 98 98 84 92 89 71 85 86 61 44 35 56 92 99 89 98 99 79 98 100 100 76 83 85 69 33 64 49 46 92 94 100 96 100 100 100
100 100 100 100 100 100 100 92 97 89 100 100 85 99 97 90 100 100 100 99 86 100 100 96 99 61 52 97 100 90 65 74 98 100 95 80 98 72 88 94 99 46 61 72 99 97 49 88 74 77 76 28 78 92
100 100 100 100 100 89 98 100 99 100 100 98 100 92 81 100 100 99 98 99 91 100 100 96 92 96 100 98 96 100 100 100 99 100 82 64 69 100 100 100 98 100 95 93 86 79 67 79 20 39 70 87 100 80
100 100 100 100 100 100 96 98 100 97 100 100 100 100 100 97 89 99 99 100 100 99 100 100 100 100 100 98 100 100 100 100 100 93 67 80 96 97 88 86 93 94 75 71 79 86 84 79 88 88 93 88 99 100
100 100 100 100 100 98 100 99 96 100 98 96 92 99 90 96 100 100 100 100 100 100 100 100 100 97 88 97 100 100 100 100 100 89 100 99 100 94 75 93 85 23 59 72 46 68 78 83 92 94 100 92 76 94
100 100 99 100 100 96 99 100 100 92 75 95 100 100 98 100 100 100 99 100 100 100 81 78 96 95 98 100 100 100 91 69 75 99 100 100 100 99 94 94 99 79 85 99 58 58 72 55 50 61 31 98 76 92
100 100 100 100 100 100 100 100 100 97 100 92 47 92 97 100 100 100 100 100 100 100 100 96 100 100 99 100 100 100 99 100 100 100 88 91 100 95 98 96 96 84 96 94 92 90 98 77 7 63 90 97 100 99
100 100 100 99 100 100 100 98 100 99 100 100 100 98 100 100 100 99 100 100 95 99 100 100 100 100 100 100 100 100 99 100 100 100 98 100 100 99 89 89 84 98 100 92 82 91 79 66 76 77 95 95 94 100
100 99 86 100 100 98 100 100 100 100 100 100 100 100 100 100 100 100 100 100 100 100 100 100 100 100 100 100 100 71 91 100 100 100 100 100 100 98 91 94 100 92 63 58 74 77 86 91 100 100 100 100 100 100
100 100 100 100 100 100 93 100 99 100 100 100 100 100 100 100 100 100 100 100 100 98 100 100 100 100 100 100 96 100 100 100 100 100 100 100 100 94 98 100 80 73 48 40 67 95 100 100 100 100 100 100 100 100

GFSWCAN_prec_cloud_105.txt.gz
Cloud_Cover
100 100 100 100 100 100 100 100 100 100 100 100 100 99 100 100 55 8 84 80 52 62 30 5 5 5 5 3 5 1 3 31 4 25 90 100 100 100 100 100 100 100 100 100 100 100 100 100 100 100 100 100 100 100
100 100 100 100 100 100 100 100 100 100 100 100 100 100 100 100 100 100 93 75 42 7 5 5 5 0 1 3 5 5 21 99 62 7 100 100 100 100 100 100 100 100 100 100 100 100 100 100 100 100 100 100 100 100
100 100 100 100 100 100 100 100 100 100 100 100 100 100 100 100 100 100 100 85 86 94 58 5 12 4 5 7 5 16 87 19 19 5 60 100 100 100 100 100 100 100 100 100 100 100 100 100 100 99 98 100 100 100
100 100 100 100 100 100 100 100 100 100 100 100 100 100 100 100 100 96 99 53 52 88 47 88 72 71 5 1 5 5 9 21 1 5 23 99 100 100 100 100 100 100 100 100 100 100 100 100 100 93 58 86 100 100
100 100 100 100 100 100 100 100 100 100 100 100 100 100 100 100 96 72 99 39 70 88 88 66 100 16 36 9 5 5 5 31 23 10 100 100 100 100 100 100 100 100 100 100 99 99 97 100 100 86 72 98 100 100
100 100 100 100 100 100 100 100 100 100 100 100 100 100 100 100 100 100 100 98 90 83 100 100 12 4 5 2 5 5 99 100 100 98 100 97 100 100 100 100 100 100 100 99 98 100 68 87 81 100 95 98 79 98
100 100 100 100 100 100 100 100 100 100 100 100 100 100 100 100 100 100 99 100 72 100 96 86 60 32 88 18 7 99 100 100 100 100 100 100 57 100 100 100 100 100 100 100 100 94 100 100 94 97 99 93 100 100
100 100 100 100 100 100 100 100 100 100 100 100 100 100 100 100 100 100 100 100 100 80 52 98 52 54 15 22 9 40 67 94 100 100 100 100 100 96 95 99 100 100 100 100 100 97 99 98 100 100 99 96 92 66
100 100 100 100 100 100 100 100 100 100 100 100 100 100 100 100 100 100 100 99 98 95 82 99 97 91 21 94 96 70 97 98 91 64 24 76 74 100 100 98 96 100 100 100 100 100 92 98 48 55 82 48 35 54
100 100 100 100 100 100 100 100 100 100 100 100 100 100 100 100 100 81 98 98 100 100 100 88 17 24 64 99 100 95 100 100 99 48 37 84 100 99 100 100 100 100 100 100 100 100 100 80 35 6 5 5 53 97
73 92 100 100 100 100 100 100 100 100 100 100 100 100 100 89 95 100 100 100 99 94 43 12 5 34 64 68 57 10 62 39 64 99 43 64 98 100 100 100 99 95 60 5 96 99 93 90 70 9 81 94 59 35
5 38 90 99 82 96 100 98 100 94 87 67 51 100 100 100 100 100 76 31 52 5 17 5 77 79 44 78 95 79 57 6 66 72 70 70 100 100 100 100 98 82 46 10 5 5 5 8 40 9 7 22 44 26
83 52 31 65 21 6 63 88 100 93 35 65 99 100 100 100 100 91 88 96 75 5 53 10 91 84 99 86 69 21 16 6 93 62 81 92 100 100 100 66 35 80 99 61 42 39 11 30 7 5 56 20 12 67
100 100 95 100 95 100 98 100 100 67 100 100 100 100 100 100 58 5 25 5 24 14 6 99 97 81 58 30 100 97 46 9 34 50 95 96 100 99 100 100 100 100 100 77 45 6 5 14 56 31 6 38 36 50
93 94 99 100 100 100 99 96 94 87 100 100 100 100 73 93 80 100 96 86 62 14 44 94 97 75 72 50 97 95 63 45 93 97 96 100 100 100 100 100 96 45 30 12 21 42 58 52 52 68 79 24 11 12
73 97 99 100 100 100 100 72 84 85 100 100 100 89 99 100 100 100 100 99 55 8 47 88 100 55 84 99 92 29 92 100 96 100 100 100 100 100 95 23 9 85 99 25 18 39 24 28 79 16 7 12 24 8
79 55 97 100 71 100 100 94 100 100 100 85 97 100 100 95 99 100 88 100 100 100 100 100 95 94 86 53 100 96 100 98 99 100 100 100 100 30 29 80 100 100 82 59 47 63 69 98 80 16 22 62 33 5
100 100 100 100 85 100 100 100 91 85 61 98 100 100 100 100 100 100 100 100 100 100 100 95 79 42 100 90 92 94 100 100 100 100 99 82 73 48 52 56 100 100 100 100 98 36 28 70 58 100 100 90 81 99
100 100 100 100 98 100 96 60 94 92 100 100 100 100 100 100 100 100 100 100 100 100 100 100 100 73 67 98 100 100 100 100 96 99 98 94 40 49 72 98 100 100 100 90 74 100 99 94 100 90 25 13 28 56
100 100 100 100 88 41 13 34 99 100 100 100 100 100 100 100 100 100 100 100 100 100 100 84 77 97 82 86 100 92 100 95 56 92 98 100 100 100 100 100 100 100 73 83 97 78 67 98 96 99 71 18 10 45
100 97 100 52 100 100 89 36 100 100 100 100 100 100 100 100 100 100 99 100 100 100 83 41 33 99 100 100 100 96 72 49 21 5 44 81 88 100 100 100 100 100 100 100 100 99 100 89 72 96 77 70 23 5
100 74 99 100 100 97 94 84 86 98 100 100 100 100 100 100 100 100 99 100 99 88 89 74 99 100 96 81 79 64 63 83 100 69 31 62 88 69 88 100 96 97 72 51 48 80 77 53 26 34 67 29 5 17
74 63 73 100 100 83 74 100 100 100 100 100 99 97 98 98 99 93 99 100 100 67 17 44 10 27 61 68 50 62 86 56 36 12 57 74 97 100 100 100 67 93 79 77 88 97 76 68 52 58 24 22 29 43
92 93 91 96 100 100 100 100 91 96 100 99 94 99 96 100 100 100 100 100 88 34 83 64 9 65 73 62 48 44 56 54 66 62 70 90 100 100 85 98 82 23 48 83 99 86 59 48 58 61 63 46 19 60
99 96 99 99 92 95 98 100 99 84 82 94 100 100 96 47 91 100 100 84 8 56 93 94 52 5 5 7 13 49 74 88 76 99 100 100 97 76 86 100 100 100 100 80 49 76 75 68 66 64 18 27 38 9
100 100 100 89 67 66 100 100 100 100 100 100 100 91 84 100 95 98 95 83 81 87 99 95 78 30 37 10 52 88 80 100 100 100 99 76 74 89 100 100 100 100 97 83 73 80 72 66 49 31 21 20 18 95
100 100 98 99 88 88 62 89 85 88 99 100 100 94 100 100 99 93 100 99 76 93 100 100 98 100 84 87 89 98 97 100 100 100 93 100 100 89 100 99 87 76 86 75 70 73 57 49 53 39 12 7 42 55
100 100 100 100 100 100 99 97 84 61 84 97 45 100 99 89 97 94 83 100 94 91 100 98 100 99 79 90 89 74 100 100 100 99 99 100 100 99 62 77 94 58 73 65 74 65 48 53 29 28 10 8 5 5
100 100 100 100 100 100 100 84 79 42 38 94 98 97 98 88 98 98 100 100 100 91 100 100 100 100 96 96 94 100 100 98 94 100 100 100 100 97 70 71 97 77 95 99 95 82 81 51 16 12 98 100 100 100
100 100 100 100 100 100 97 87 81 71 57 70 61 58 71 98 98 95 100 100 99 92 100 100 100 100 100 100 100 100 98 98 100 100 100 100 100 95 79 100 98 92 86 95 98 71 64 26 7 5 5 5 5 5
100 100 100 100 100 100 89 61 54 84 96 100 84 62 37 79 100 100 72 100 100 99 100 100 100 100 100 100 100 100 100 100 100 100 100 100 100 78 86 98 98 81 96 100 73 67 81 22 44 9 5 38 94 73
100 100 100 100 100 100 100 98 94 81 100 94 86 40 39 88 89 96 100 100 100 99 98 99 100 100 100 100 100 100 100 100 100 89 79 99 100 81 94 100 99 99 100 69 18 69 76 94 80 22 90 82 30 5
100 100 87 79 93 100 95 89 92 100 100 95 61 62 100 87 88 88 100 100 95 89 100 100 100 100 100 99 100 100 98 63 63 100 100 100 100 97 100 100 100 100 77 28 56 78 88 37 43 48 5 5 5 5

GFSWCAN_prec_cloud_108.txt.gz
Cloud_Cover
100 100 100 100 100 100 100 100 100 100 100 100 100 100 100 100 100 100 100 24 61 74 5 5 5 0 3 0 5 1 17 5 4 9 5 80 100 100 100 100 100 100 100 100 100 100 96 100 77 83 100 100 100 100
100 100 100 100 100 100 100 100 100 100 100 100 100 100 100 100 100 100 100 40 6 6 5 5 5 0 0 0 1 5 26 22 6 5 6 54 100 99 100 100 100 100 100 100 100 100 100 100 100 100 100 100 100 100
100 100 100 100 100 100 100 100 100 100 100 100 100 100 100 100 100 100 82 91 12 10 8 5 5 5 0 1 4 5 6 5 5 5 22 41 100 100 100 100 100 100 100 100 100 100 100 100 100 100 100 100 100 100
100 100 100 100 100 100 100 100 100 100 100 100 100 100 100 100 100 100 56 99 29 30 10 44 8 5 5 5 3 5 2 5 5 5 5 26 100 100 100 100 100 100 100 100 100 100 100 100 100 100 100 100 100 100
100 100 100 100 100 100 100 100 100 100 100 100 100 100 100 100 100 100 100 97 38 70 72 19 3 28 5 14 5 5 5 5 4 4 5 5 100 100 100 100 100 100 100 100 100 100 100 100 100 99 85 86 75 77
100 100 100 100 100 100 100 100 100 100 100 100 100 100 100 100 100 100 100 99 97 8 96 36 9 5 17 5 9 5 5 5 5 87 5 5 96 100 100 100 100 100 100 100 100 100 100 100 62 34 47 91 96 75
100 100 100 100 100 100 100 100 100 100 100 100 100 100 100 100 100 100 98 99 82 26 71 26 38 34 100 70 26 43 100 48 17 82 85 6 20 49 100 100 100 100 100 100 100 100 99 79 58 72 28 58 9 33
100 100 100 100 100 100 100 100 100 100 100 100 100 100 100 100 100 100 100 100 99 34 10 87 65 92 30 36 5 5 6 33 90 97 100 98 97 77 100 100 100 100 100 100 100 100 98 39 5 5 22 33 75 5
100 100 100 100 100 100 100 100 100 100 100 100 100 100 96 87 99 89 99 100 79 87 66 94 58 99 45 56 5 10 5 10 16 27 55 55 95 100 100 100 100 100 82 94 100 100 100 98 91 69 17 6 38 98
100 100 100 100 100 100 100 100 100 100 100 100 100 100 100 100 100 52 87 97 94 100 96 80 7 5 5 12 42 80 14 32 62 56 13 100 99 100 100 91 100 89 95 90 82 88 81 5 24 5 61 64 61 42
100 100 100 100 100 100 100 100 100 100 100 100 100 100 100 92 94 98 100 95 100 66 72 41 5 24 37 31 10 18 36 49 60 93 93 80 97 86 94 99 72 78 97 51 37 100 100 73 13 60 90 81 40 7
100 100 100 100 100 100 100 100 100 100 100 100 100 100 100 100 100 100 100 100 92 6 5 12 5 5 58 57 51 33 63 10 60 78 100 88 96 87 100 100 99 52 5 5 41 5 5 5 5 5 27 48 57 40
100 100 100 100 100 100 100 100 100 100 100 100 100 100 100 100 100 100 100 50 72 5 27 5 63 57 29 61 89 60 17 38 76 96 89 57 79 99 100 93 48 38 49 72 17 7 5 5 5 5 60 64 58 44
97 100 100 100 100 100 100 100 100 100 100 100 100 100 100 100 99 76 5 5 5 5 5 15 23 64 44 58 78 75 35 28 78 49 20 87 73 99 100 100 100 99 70 7 49 17 31 34 87 66 55 61 36 5
100 100 100 90 33 20 45 98 99 93 99 100 98 82 99 58 92 100 100 69 70 7 6 54 38 42 10 64 99 100 98 83 15 24 69 100 100 100 96 62 37 58 63 61 58 36 75 71 74 100 84 54 5 43
100 96 100 74 58 44 100 99 98 100 100 97 100 99 98 100 100 100 100 100 50 8 12 5 33 12 66 88 100 95 97 40 64 99 100 100 91 77 72 59 40 20 28 43 56 50 73 73 56 33 62 47 55 21
100 96 99 100 90 97 100 82 86 100 100 86 98 100 98 99 100 100 100 97 94 5 78 12 10 20 51 96 99 54 92 94 89 99 100 100 78 56 40 46 55 86 99 100 90 92 99 89 62 54 55 74 45 6
51 89 100 98 89 84 98 54 42 97 99 91 100 100 100 100 100 100 100 99 19 71 63 57 80 40 15 46 82 100 96 100 100 100 100 58 32 30 60 75 92 100 100 100 98 100 100 90 91 71 86 19 93 25
93 68 96 100 100 66 68 86 92 90 91 100 100 100 100 100 100 100 100 100 37 66 91 100 56 7 79 88 100 100 100 100 100 99 83 56 6 55 44 78 100 100 100 100 100 100 80 70 38 78 66 32 54 83
100 100 100 99 81 82 86 25 53 79 46 100 100 100 100 100 100 100 100 100 100 100 100 100 54 42 75 91 100 100 100 100 90 100 98 92 20 59 60 79 100 100 100 100 100 94 67 83 92 95 99 99 100 100
93 100 100 58 82 100 67 23 74 96 100 100 100 100 100 100 99 100 100 100 100 100 100 98 64 59 92 61 100 100 100 83 67 50 39 92 86 47 59 100 100 100 100 81 67 84 100 88 99 100 100 100 100 72
79 91 100 88 100 100 100 91 76 100 100 100 100 100 100 100 100 99 98 100 100 97 71 85 46 50 86 29 73 92 48 48 51 23 28 45 69 80 98 100 84 90 96 98 99 100 100 95 94 96 88 81 60 38
45 86 100 100 100 100 100 96 100 100 100 100 100 100 100 96 65 94 98 100 100 80 79 74 25 5 22 12 14 5 53 46 27 53 54 29 65 96 90 80 95 100 82 95 100 100 100 75 54 56 47 33 38 35
100 99 99 100 84 100 100 100 89 89 95 100 89 75 100 99 100 97 88 38 22 34 69 16 5 5 46 54 9 17 14 46 55 42 47 36 82 100 94 82 74 94 100 87 90 68 68 94 74 45 39 43 28 47
100 100 91 100 100 83 94 100 100 96 59 67 100 82 80 89 97 97 93 44 78 56 22 99 58 5 5 55 88 84 47 7 20 68 96 96 100 100 99 74 83 100 79 77 81 44 44 48 66 60 52 17 6 18
77 61 82 27 91 88 48 84 57 53 82 40 34 59 63 92 91 61 46 76 73 38 5 13 52 86 90 34 5 26 55 70 66 67 73 89 100 100 100 100 100 89 70 64 55 63 58 56 42 37 64 24 81 72
100 100 100 100 100 94 93 59 14 10 5 21 87 91 89 96 85 49 86 95 87 80 94 98 99 96 94 63 40 80 100 94 66 68 93 100 97 100 100 100 100 100 75 68 84 63 51 65 69 96 100 61 36 63
100 100 100 100 98 100 88 88 62 59 23 29 28 83 86 95 71 73 86 94 96 47 92 89 96 98 100 100 100 92 88 89 98 100 100 89 100 100 97 99 98 67 45 70 78 70 64 74 100 98 74 96 99 94
100 100 100 100 100 100 100 91 79 56 73 88 97 89 89 85 85 87 86 99 96 67 89 100 100 100 100 100 99 96 100 100 100 100 100 100 100 79 100 86 65 55 91 90 86 77 91 94 100 72 59 69 90 100
72 99 100 100 100 100 100 100 87 97 100 98 82 54 61 91 87 99 97 96 99 78 86 100 100 100 100 100 100 100 100 100 100 100 98 94 95 100 74 49 61 92 100 100 100 100 100 100 65 14 21 15 10 22
100 97 100 100 100 100 100 100 99 96 93 75 96 100 99 85 100 100 96 89 100 92 96 100 100 100 100 100 100 100 100 100 100 100 100 100 100 57 49 98 100 100 100 100 100 100 100 69 62 78 6 46 25 53
100 100 100 100 100 100 100 100 100 100 100 100 99 99 94 88 91 84 98 100 96 99 93 97 100 100 100 100 100 100 100 100 100 100 100 74 82 97 100 100 100 100 100 100 100 100 66 89 63 25 51 53 57 55
100 100 100 100 100 100 100 100 100 100 100 87 70 51 99 49 52 96 100 99 78 62 92 100 100 100 100 100 100 100 100 100 100 80 74 86 100 100 100 100 100 95 100 100 99 60 7 5 15 7 40 50 47 37

GFSWCAN_prec_cloud_111.txt.gz
Cloud_Cover
100 100 100 100 100 100 100 100 100 100 100 100 100 100 100 100 100 100 100 100 100 100 100 100 100 53 5 5 5 21 5 4 5 17 5 5 14 98 99 98 100 100 100 100 100 100 100 95 92 98 100 100 99 96
100 100 100 100 100 100 100 100 100 100 100 100 100 100 100 100 100 100 100 100 100 100 100 100 36 8 5 5 5 23 5 8 5 10 6 13 54 100 100 100 100 100 100 100 100 100 100 100 100 100 100 98 100 100
100 100 100 100 100 100 100 100 100 100 100 100 100 100 100 100 100 100 96 100 96 100 100 100 85 5 4 13 52 5 5 5 5 5 5 22 8 99 100 100 100 100 100 100 100 100 100 100 100 92 86 100 100 100
100 100 100 100 100 100 100 100 100 100 100 100 100 100 100 100 100 100 100 100 100 100 100 83 5 5 5 5 5 5 4 5 5 2 5 15 6 60 100 100 100 100 100 100 100 100 100 100 100 100 97 87 100 72
100 100 100 100 100 100 100 100 100 100 100 100 100 100 100 100 100 100 100 100 100 100 100 37 5 5 5 5 5 5 5 5 3 5 5 5 5 18 100 100 100 100 100 100 100 100 100 100 100 97 98 100 96 78
100 100 100 100 100 100 100 100 100 100 100 100 100 100 100 100 100 100 100 100 100 100 82 6 6 5 16 5 5 5 5 5 5 5 5 7 1 7 100 100 100 100 100 100 100 100 100 100 100 100 100 61 60 51
100 100 100 100 100 100 100 100 100 100 100 100 100 100 100 100 100 100 100 100 100 100 89 64 11 16 93 68 78 27 68 42 36 5 5 5 61 82 99 100 100 100 100 100 100 100 100 100 100 100 100 97 56 5
100 100 100 100 100 100 100 100 100 100 100 100 100 100 100 100 100 100 100 100 100 100 46 28 83 100 94 100 60 5 25 16 5 5 6 84 93 61 96 100 100 100 100 100 100 100 99 90 100 100 76 47 17 20
100 100 100 100 100 100 100 100 100 100 100 100 100 100 100 100 100 100 100 100 100 100 94 71 60 93 41 77 5 19 5 5 5 5 5 64 100 100 99 99 100 100 100 100 100 100 100 99 97 88 76 12 40 96
100 100 100 100 100 100 100 100 100 100 100 100 100 100 100 100 100 100 100 100 99 63 82 32 8 77 5 24 23 51 10 12 68 62 54 100 100 96 98 96 100 91 83 100 100 97 100 99 98 94 70 5 5 5
100 100 100 100 100 100 100 100 100 100 100 100 100 100 100 100 100 100 100 100 68 53 33 27 5 33 32 10 10 20 58 42 63 77 84 82 82 85 83 90 100 100 95 96 84 88 99 94 75 46 70 55 5 5
100 100 100 100 100 100 100 100 100 100 100 100 100 91 100 100 98 100 100 95 71 43 18 40 16 26 79 34 5 49 45 33 69 95 98 76 61 10 69 100 100 81 7 5 5 8 11 5 5 5 5 13 53 24
100 100 100 100 100 100 100 100 100 100 100 100 100 100 96 96 100 100 100 80 90 10 22 7 71 11 21 75 74 99 87 37 92 100 30 11 85 24 92 100 66 10 20 59 5 5 5 5 5 5 50 62 52 62
100 100 100 100 100 100 100 100 100 100 100 100 100 100 88 100 100 100 82 30 9 56 68 15 67 90 45 42 34 10 22 94 100 67 30 63 59 77 100 100 100 72 42 8 57 23 27 11 94 67 53 63 34 5
100 100 100 100 100 100 100 100 100 100 100 99 100 100 100 100 100 68 63 100 100 28 5 16 42 9 30 63 99 82 100 89 20 5 42 97 91 100 90 70 61 59 57 62 60 53 82 65 59 95 93 61 15 8
100 100 100 100 100 100 100 100 100 100 100 99 98 98 100 100 100 100 100 100 89 36 99 49 17 5 5 41 84 100 98 33 56 99 99 100 99 58 58 63 53 41 58 46 55 49 67 84 68 55 60 41 64 34
62 46 100 100 100 100 100 100 100 100 100 100 100 100 100 100 100 100 100 100 100 91 76 9 5 5 36 89 84 98 90 99 100 100 100 100 81 80 61 46 52 57 47 30 59 95 99 81 34 58 70 9 26 54
7 36 100 100 41 95 100 100 88 78 96 98 100 100 100 95 100 100 100 100 99 56 18 40 5 64 50 6 51 100 100 100 100 100 100 97 68 55 33 50 67 59 66 76 100 100 47 79 59 51 6 36 34 65
62 36 100 100 93 20 15 64 95 73 82 92 89 78 83 98 100 100 100 100 97 17 68 24 81 48 67 75 100 100 100 100 100 100 100 64 19 10 26 43 54 54 46 100 82 56 47 60 40 48 57 78 72 66
92 100 100 99 84 79 24 43 65 53 64 50 97 98 98 74 100 100 100 100 100 93 97 92 85 54 34 58 95 100 100 100 100 99 100 94 66 10 15 42 56 46 65 59 56 56 69 71 65 52 27 90 100 100
100 100 100 97 89 87 47 100 100 96 60 95 100 100 100 99 100 100 100 100 100 100 94 94 96 82 60 63 66 72 93 90 90 40 42 92 83 5 34 68 42 67 69 76 75 72 75 66 58 84 100 100 100 62
100 73 97 82 82 98 98 22 56 62 80 100 100 84 100 100 100 99 98 98 100 98 100 100 98 29 33 40 50 9 11 34 45 35 53 44 89 80 70 71 79 93 84 76 90 75 81 100 100 95 83 62 61 56
72 98 100 99 100 100 100 97 91 100 100 100 98 82 100 100 89 88 90 95 100 99 100 98 32 5 7 6 13 5 12 23 38 53 36 41 55 70 75 79 66 93 69 66 70 87 99 85 84 60 71 65 66 69
11 68 98 100 100 100 100 98 92 100 100 100 100 100 100 100 85 97 99 100 82 56 100 88 61 20 5 5 38 36 8 6 27 60 28 26 72 81 71 61 90 90 100 100 100 100 92 98 68 89 96 70 71 82
78 100 95 37 76 89 96 100 99 99 100 100 100 100 100 81 74 72 100 100 85 72 65 12 9 17 25 81 80 73 5 19 36 51 73 58 59 74 100 100 93 100 100 100 100 97 87 60 60 45 39 80 88 100
92 52 76 76 95 99 75 83 95 94 79 97 97 62 38 65 98 99 94 82 87 74 82 8 30 47 92 84 57 54 36 23 82 67 76 80 96 100 98 85 98 100 85 91 98 90 68 70 57 44 94 75 98 94
86 60 64 23 80 85 74 58 14 21 31 90 98 69 72 98 100 100 92 99 98 83 56 97 96 46 79 93 86 67 70 80 92 88 94 100 100 100 95 100 100 81 73 97 86 62 58 71 85 98 100 98 100 100
95 84 71 46 87 87 88 97 98 100 94 36 62 99 100 100 89 75 90 82 100 81 72 88 88 100 87 95 99 100 100 100 100 100 100 100 100 100 100 100 87 100 95 94 74 71 64 66 77 95 100 100 100 96
100 100 100 100 100 100 100 100 100 88 70 52 72 77 64 95 90 93 72 92 100 100 100 100 100 97 85 96 100 100 100 100 100 100 100 100 100 100 100 94 100 100 94 87 97 65 67 73 68 76 82 79 89 21
96 100 100 100 100 100 100 98 98 72 73 59 43 48 53 77 92 98 98 92 96 98 93 98 100 100 97 100 100 100 99 100 100 100 100 100 100 100 100 100 100 94 100 98 40 64 81 83 96 78 27 6 28 13
99 100 100 91 70 100 100 100 94 86 86 83 90 92 81 82 94 95 100 98 77 98 74 79 82 98 100 100 100 100 100 100 100 100 100 100 100 100 100 100 100 100 95 86 74 95 95 96 61 42 5 15 52 62
95 80 100 100 100 98 100 100 99 91 100 98 85 87 82 87 94 94 90 100 99 75 79 77 97 100 100 100 100 100 100 100 100 100 100 100 100 100 100 100 100 100 99 96 100 100 94 32 54 46 49 53 48 37
97 99 100 100 100 100 100 100 100 97 82 83 93 91 98 97 97 74 79 87 83 78 96 98 98 99 99 99 97 100 100 100 100 100 100 100 100 100 100 100 100 100 99 100 90 82 45 26 41 30 27 16 52 52

GFSWCAN_prec_cloud_114.txt.gz
Cloud_Cover
100 100 100 100 100 100 100 100 100 100 100 100 100 100 100 100 100 100 100 100 100 100 100 100 100 100 100 100 100 88 99 96 28 27 5 5 24 30 96 55 99 96 100 100 100 100 100 100 100 100 100 100 36 75
100 100 100 100 100 100 100 100 100 100 100 100 100 100 100 100 100 100 100 100 100 100 100 100 100 100 100 100 76 98 72 5 8 11 12 8 33 62 94 100 68 100 100 100 100 100 100 100 100 100 100 100 100 89
100 100 100 100 100 100 100 100 100 100 100 100 100 100 100 100 100 100 100 100 100 100 100 100 100 100 100 58 85 77 9 53 15 5 5 35 47 72 97 100 100 100 100 100 100 100 100 100 100 100 100 100 100 100
100 100 100 100 100 100 100 100 100 100 100 100 100 100 100 100 100 100 100 100 100 100 100 100 100 100 78 94 66 5 47 18 5 5 5 16 16 36 98 99 87 100 100 100 100 100 100 100 100 100 100 100 100 100
100 100 100 100 100 100 100 100 100 100 100 100 100 100 100 100 100 100 100 100 100 100 100 100 100 99 47 34 9 43 12 14 5 5 5 5 8 8 98 94 100 100 100 100 100 100 100 100 100 100 100 100 100 100
100 100 100 100 100 100 100 100 100 100 100 100 100 100 100 100 100 100 100 100 100 100 100 100 100 32 97 38 61 10 24 6 5 5 3 7 1 5 73 100 100 100 100 100 100 100 100 100 100 100 100 100 100 100
100 100 100 100 100 100 100 100 100 100 100 100 100 100 100 100 100 100 100 100 100 100 100 100 100 95 78 75 56 62 85 14 5 5 5 4 6 5 80 89 100 100 100 100 100 100 100 100 100 100 100 100 98 62
100 100 100 100 100 100 100 100 100 100 100 100 100 100 100 100 100 100 100 100 100 100 100 100 96 94 95 100 97 64 57 13 5 5 4 5 5 63 95 100 98 100 100 100 100 100 100 100 100 100 100 100 79 46
100 100 100 100 100 100 100 100 100 100 100 100 100 100 100 100 100 100 100 100 100 100 100 74 47 99 100 99 80 26 26 5 5 9 5 8 50 71 94 100 99 100 100 100 100 100 100 100 100 100 77 16 18 85
100 100 100 100 100 100 100 100 100 100 100 100 100 100 100 100 100 100 100 100 100 99 85 99 91 100 94 100 54 17 14 16 58 52 7 100 98 76 87 88 57 47 100 100 100 100 100 100 100 100 99 35 5 5
100 100 100 100 100 100 100 100 100 100 100 100 100 100 100 100 100 100 100 100 100 86 86 100 98 100 78 81 8 5 51 24 57 69 69 70 71 98 78 80 96 99 79 69 93 100 100 100 100 100 86 38 65 37
100 100 100 100 100 100 100 100 100 100 100 100 100 100 100 100 100 100 100 97 96 100 100 100 87 53 93 22 7 70 60 55 77 92 97 80 5 28 19 87 100 99 80 55 28 6 39 30 18 26 48 49 36 5
100 100 100 100 100 100 100 100 100 100 100 100 100 100 100 100 100 100 100 99 100 95 90 85 84 28 84 98 88 99 37 47 88 91 37 5 22 5 5 50 97 72 5 5 5 5 5 5 5 5 51 69 52 72
100 100 100 100 100 100 100 100 100 100 100 100 100 100 100 100 100 100 90 95 92 67 87 65 85 74 60 50 61 12 18 99 100 63 30 60 19 7 67 94 50 70 10 14 54 21 5 5 68 59 53 59 38 27
100 100 100 100 100 100 100 100 100 100 100 100 100 100 100 100 100 78 67 85 100 86 40 5 6 17 75 41 57 64 99 91 41 5 5 66 85 92 77 59 70 90 60 63 69 64 82 78 32 98 95 57 26 17
100 100 100 100 100 100 100 100 100 100 100 100 100 100 100 100 100 100 100 100 91 62 66 42 59 31 11 8 24 39 85 36 5 69 76 93 89 100 97 100 68 56 39 44 39 29 54 66 49 43 75 53 67 39
100 100 100 100 100 100 100 100 100 100 100 100 100 100 100 100 100 100 100 100 91 100 50 64 6 5 5 5 32 89 53 5 85 100 96 74 100 100 100 81 22 50 28 5 59 60 55 38 53 59 10 5 18 5
100 100 100 100 100 100 100 100 100 100 100 100 100 100 100 100 100 98 100 100 84 100 86 61 5 6 25 5 6 34 99 100 100 100 100 100 100 85 39 19 52 20 5 29 14 55 55 63 61 69 38 49 51 37
100 100 100 100 100 100 100 100 100 100 100 100 100 100 100 97 92 94 100 100 99 86 95 16 5 5 11 35 48 91 99 91 100 100 100 97 50 12 5 26 30 29 44 29 55 59 52 27 60 78 67 80 98 70
100 100 100 100 100 100 100 100 99 100 100 100 100 100 100 100 100 83 88 100 100 98 78 22 5 6 62 59 45 89 70 40 60 94 100 90 65 30 58 35 39 40 48 58 54 70 68 74 90 79 74 42 33 60
74 100 90 78 98 85 72 100 100 99 95 99 90 21 41 56 73 70 84 100 94 100 96 44 44 78 98 82 91 90 29 6 10 30 32 89 91 5 68 70 58 67 69 80 75 72 68 99 81 84 59 66 68 53
100 76 93 62 53 95 92 36 81 75 66 69 78 89 90 73 97 76 90 94 100 93 48 35 44 100 49 36 58 42 19 5 19 22 32 5 96 81 86 88 78 98 80 72 65 73 78 98 86 70 68 62 59 48
88 92 66 62 15 7 73 94 98 86 82 98 95 100 95 66 98 59 98 100 100 53 20 59 48 100 65 49 42 26 42 19 24 57 61 60 53 49 61 81 74 79 85 60 73 89 100 85 100 97 99 54 53 33
91 13 5 38 8 98 100 97 83 100 100 95 100 100 91 74 63 98 100 100 63 60 62 100 100 100 78 6 65 60 42 13 51 72 33 7 75 97 74 96 79 74 56 68 91 100 100 100 100 99 73 71 98 100
42 10 34 19 73 98 85 97 92 94 100 100 100 100 97 70 100 100 100 100 98 100 94 100 98 100 87 92 92 88 6 6 7 71 95 5 76 84 92 99 99 100 100 100 100 100 100 100 100 99 70 100 20 100
21 41 43 9 88 83 78 91 94 100 100 100 84 80 80 86 98 100 100 100 100 79 93 59 95 90 87 90 85 77 71 56 94 72 87 73 94 100 96 100 100 100 100 100 100 100 100 100 100 78 100 65 98 100
74 53 83 15 71 81 88 90 83 100 100 100 100 100 100 100 97 100 99 98 97 97 94 71 97 89 97 100 100 98 94 78 62 80 95 100 100 100 100 100 100 100 100 100 100 100 100 99 99 100 100 100 100 100
52 63 31 69 100 90 98 96 100 100 85 78 59 68 68 55 76 94 95 79 100 91 75 86 99 88 50 71 96 100 100 100 100 100 100 100 100 100 99 100 100 100 100 100 100 98 99 97 81 100 99 100 100 80
87 76 72 82 86 88 72 73 84 52 64 56 77 56 100 100 72 87 66 90 100 100 93 88 100 98 96 82 71 98 99 100 100 100 100 100 100 97 100 100 100 100 100 100 100 100 100 100 99 54 43 42 38 19
100 100 100 100 100 100 100 100 99 83 88 65 62 87 99 82 91 97 93 84 99 98 98 98 99 74 92 72 94 96 96 98 100 100 100 100 100 100 100 100 100 100 100 100 100 100 100 100 84 37 46 10 32 6
100 100 100 100 100 100 93 88 86 80 71 99 85 94 90 84 81 93 99 98 97 94 87 93 98 97 95 86 80 89 92 94 100 100 100 100 100 100 100 100 100 100 100 100 100 100 100 99 88 44 30 23 24 43
100 97 89 100 98 100 100 100 100 92 86 97 92 90 96 80 100 95 91 98 100 100 99 100 93 89 100 100 97 99 100 98 99 100 100 100 100 100 100 100 100 100 100 100 100 100 100 100 68 42 42 7 28 25
98 100 100 100 91 83 98 99 79 73 85 91 80 71 71 90 96 80 91 88 98 100 90 92 94 97 99 96 98 100 100 99 100 100 100 100 100 100 100 100 100 100 100 100 100 100 84 74 21 37 31 39 11 17

GFSWCAN_prec_cloud_117.txt.gz
Cloud_Cover
100 100 100 100 100 100 100 100 100 100 100 100 100 100 100 100 100 100 100 100 100 100 100 100 100 100 100 100 100 100 100 100 100 100 94 80 10 21 82 56 100 34 91 98 98 100 100 100 100 100 100 94 94 85
100 100 100 100 100 100 100 100 100 100 100 100 100 100 100 100 100 100 100 100 100 100 100 100 100 100 100 100 100 100 100 100 95 98 88 23 18 7 68 100 63 78 29 89 100 100 100 100 100 100 100 100 98 80
100 100 100 100 100 100 100 100 100 100 100 100 100 100 100 100 100 100 100 100 100 100 100 100 100 100 100 100 100 100 100 100 100 76 83 45 5 9 76 93 100 100 100 100 100 100 100 100 100 100 100 100 100 95
100 100 100 100 100 100 100 100 100 100 100 100 100 100 100 100 100 100 100 100 100 100 100 100 100 100 100 100 100 100 100 100 94 97 28 5 5 11 73 73 79 92 100 100 100 100 100 100 100 100 100 100 100 100
100 100 100 100 100 100 100 100 100 100 100 100 100 100 100 100 100 100 100 100 100 100 100 100 100 100 100 100 100 100 100 93 98 28 11 5 5 17 98 43 100 74 100 100 100 100 100 100 100 100 100 100 100 100
100 100 100 100 100 100 100 100 100 100 100 100 100 100 100 100 100 100 100 100 100 100 100 100 100 100 100 100 100 100 88 81 18 26 5 5 5 5 56 100 78 100 97 100 100 100 100 100 100 100 100 100 100 100
100 100 100 100 100 100 100 100 100 100 100 100 100 100 100 100 100 100 100 100 100 100 100 100 100 100 100 100 100 95 98 47 40 15 5 5 5 13 81 99 96 100 100 100 100 100 100 100 100 100 100 100 100 100
100 100 100 100 100 100 100 100 100 100 100 100 100 100 100 100 100 100 100 100 100 100 100 100 100 100 100 100 100 100 70 51 32 11 5 5 5 62 86 99 98 100 99 100 100 100 100 100 100 100 100 100 100 100
100 100 100 100 100 100 100 100 100 100 100 100 100 100 100 100 100 100 100 100 100 100 100 100 100 100 100 100 100 96 40 91 56 5 5 5 59 87 55 97 79 100 100 100 100 100 100 100 100 100 100 100 100 100
100 100 100 100 100 100 100 100 100 100 100 100 100 100 100 100 100 100 100 100 100 100 100 100 100 100 100 100 100 87 69 70 5 17 6 96 19 16 77 80 62 100 34 97 100 100 100 100 100 100 100 100 100 100
100 100 100 100 100 100 100 100 100 100 100 100 100 100 100 100 100 100 100 100 100 100 100 100 100 100 100 100 94 79 58 27 44 76 59 47 32 32 98 90 18 10 78 19 100 100 100 100 100 100 100 100 100 100
100 100 100 100 100 100 100 100 100 100 100 100 100 100 100 100 100 100 100 100 100 100 100 100 100 100 98 84 76 71 58 22 45 93 98 30 5 38 48 100 68 96 89 55 25 39 80 97 100 100 100 100 100 94
100 100 100 100 100 100 100 100 100 100 100 100 100 100 99 100 100 100 100 100 100 100 100 100 100 99 92 93 76 80 63 16 92 92 29 5 53 80 38 34 99 82 25 24 28 45 34 19 6 5 25 16 5 33
100 100 100 100 100 100 100 100 100 100 100 100 100 100 100 100 100 100 100 100 100 100 100 100 98 94 88 83 84 11 84 88 97 43 5 6 54 67 19 8 5 43 13 9 42 6 5 5 27 17 9 25 26 37
100 100 100 100 100 100 100 100 100 100 100 100 100 100 100 100 100 100 100 100 100 100 98 89 99 80 56 32 9 35 91 94 46 5 5 8 7 6 5 25 61 36 59 96 50 52 52 52 69 74 69 71 77 80
100 100 100 100 100 100 100 100 100 100 100 100 100 100 100 100 100 100 100 100 100 100 100 85 44 11 52 14 5 5 12 5 5 5 38 76 49 24 58 39 60 94 62 77 69 36 29 22 39 79 81 74 78 77
100 100 100 100 100 100 100 100 100 100 100 100 100 100 100 100 100 100 100 100 96 71 65 36 8 79 5 5 19 5 5 5 57 100 96 50 7 30 45 97 91 70 58 54 32 20 30 61 63 75 92 88 44 9
100 100 100 100 100 100 100 100 100 100 100 100 100 100 100 100 100 100 100 97 92 74 54 70 31 5 5 6 5 5 87 100 100 100 95 46 6 30 58 67 60 60 73 65 27 22 64 74 69 53 15 5 31 51
100 100 100 100 100 100 100 100 100 100 100 100 100 100 100 100 100 100 100 100 95 99 71 16 5 18 25 5 6 63 100 100 93 96 94 62 26 61 52 25 34 45 42 62 50 56 56 41 25 12 28 41 55 47
100 100 100 100 100 100 100 100 100 100 100 100 100 100 100 90 76 96 86 100 100 57 19 5 60 14 6 5 5 5 5 20 61 88 100 96 55 60 50 21 22 45 76 67 49 36 39 28 43 55 57 71 53 57
100 100 100 100 100 100 100 100 100 100 100 100 100 100 100 78 90 84 75 94 100 79 99 44 5 5 92 85 99 6 5 6 78 79 79 100 77 67 67 56 48 54 50 71 47 62 63 67 74 87 100 100 94 81
100 100 100 100 100 100 100 100 100 100 100 100 87 79 78 76 44 40 32 46 16 5 5 5 6 100 29 5 5 5 30 88 98 100 100 100 86 98 96 76 58 67 5 43 31 60 76 80 93 99 100 100 82 97
100 100 100 100 100 99 100 100 99 92 58 82 84 58 73 78 78 64 73 45 79 63 19 5 6 5 11 7 5 16 80 99 100 100 99 55 8 9 53 66 14 62 94 99 100 98 96 90 98 100 100 100 100 92
42 46 25 48 24 68 60 88 80 78 74 96 83 79 90 81 50 25 49 88 14 28 48 10 18 52 44 99 55 37 59 92 100 94 52 13 49 60 5 13 62 90 97 93 94 99 100 100 100 100 100 100 100 100
100 44 6 51 87 71 97 98 81 69 91 98 99 96 100 90 46 83 100 98 64 87 83 74 96 78 90 100 92 78 77 57 34 74 72 5 84 99 97 85 83 96 92 83 98 96 100 100 100 100 100 100 100 100
6 21 26 10 90 38 62 83 100 89 100 100 100 100 100 98 98 100 100 88 91 88 96 77 92 99 85 95 100 71 24 11 46 40 81 6 5 59 90 96 92 78 91 88 86 100 100 100 100 100 100 100 100 100
46 64 88 29 71 80 70 82 48 76 100 100 100 100 100 100 100 100 100 100 98 95 99 89 92 94 54 90 97 95 88 83 88 80 76 70 97 100 100 96 85 85 84 90 100 100 100 100 100 100 100 100 100 100
24 69 82 77 100 93 100 85 78 60 78 99 100 100 100 100 100 100 99 87 100 95 88 92 100 86 49 72 97 98 99 99 100 100 100 99 99 100 100 98 95 95 98 100 100 100 100 100 100 100 100 100 100 100
100 83 72 99 98 96 95 72 74 54 99 100 100 95 100 100 99 49 45 90 100 99 83 83 98 100 100 88 96 98 95 99 97 93 99 99 99 98 100 100 100 100 100 100 100 100 100 100 100 100 100 99 99 81
86 96 71 82 57 57 52 85 96 100 97 79 83 96 90 83 90 88 86 73 80 96 99 96 99 100 100 85 94 93 96 95 92 91 98 99 98 100 100 100 100 100 100 100 100 100 100 100 100 100 100 100 98 55
80 99 100 100 100 100 100 100 91 76 68 90 92 89 81 67 64 85 86 90 95 99 94 92 90 99 91 88 87 90 93 94 83 78 86 99 100 100 100 100 100 100 100 100 100 100 100 100 100 100 100 92 63 17
100 100 100 100 100 100 100 99 95 75 72 78 81 76 76 87 97 94 95 100 100 100 92 97 100 99 97 100 100 100 99 96 91 81 98 100 100 99 100 100 100 100 100 100 100 100 100 100 100 100 95 29 5 11
95 100 100 100 100 98 100 98 78 84 99 94 93 90 100 100 96 78 89 93 92 100 100 100 100 100 100 100 100 100 100 100 100 100 100 100 100 100 100 100 100 100 100 100 100 100 100 100 100 57 8 5 5 42

GFSWCAN_prec_cloud_120.txt.gz
Cloud_Cover
100 100 100 100 100 100 100 100 100 100 100 100 100 100 100 100 100 100 100 100 100 100 100 100 100 100 100 100 100 100 100 100 100 100 100 100 100 100 100 92 97 96 91 100 100 100 100 95 100 100 100 100 99 90
100 100 100 100 100 100 100 100 100 100 100 100 100 100 100 100 100 100 100 100 100 100 100 100 100 100 100 100 100 100 100 100 100 100 100 100 100 100 97 99 66 95 88 100 98 99 99 100 100 100 100 100 100 100
100 100 100 100 100 100 100 100 100 100 100 100 100 100 100 100 100 100 100 100 100 100 100 100 100 100 100 100 100 100 100 100 100 100 100 100 100 100 91 95 83 95 87 99 91 100 100 100 100 100 100 100 100 100
100 100 100 100 100 100 100 100 100 100 100 100 100 100 100 100 100 100 100 100 100 100 100 100 100 100 100 100 100 100 100 100 100 100 100 100 100 83 100 80 99 98 99 100 100 100 100 100 100 100 100 100 100 100
100 100 100 100 100 100 100 100 100 100 100 100 100 100 100 100 100 100 100 100 100 100 100 100 100 100 100 100 100 100 100 100 100 100 100 100 72 70 98 84 100 100 100 100 100 100 100 100 100 100 100 100 100 100
100 100 100 100 100 100 100 100 100 100 100 100 100 100 100 100 100 100 100 100 100 100 100 100 100 100 100 100 100 100 100 100 100 100 100 89 20 68 91 100 66 93 100 99 100 100 100 100 100 100 100 100 100 100
100 100 100 100 100 100 100 100 100 100 100 100 100 100 100 100 100 100 100 100 100 100 100 100 100 100 100 100 100 100 100 100 100 100 81 51 35 71 97 100 77 100 99 99 100 100 100 100 100 100 100 100 100 100
100 100 100 100 100 100 100 100 100 100 100 100 100 100 100 100 100 100 100 100 100 100 100 100 100 100 100 100 100 100 100 100 100 93 33 25 12 73 99 86 64 86 97 100 100 100 100 100 100 100 100 100 100 100
100 100 100 100 100 100 100 100 100 100 100 100 100 100 100 100 96 88 96 92 95 100 100 100 100 100 100 100 100 100 100 100 73 79 60 20 66 64 63 48 68 72 52 86 100 100 100 100 100 100 100 100 100 100
100 100 100 100 100 100 100 100 100 100 100 100 100 99 100 100 100 100 97 100 100 100 100 100 100 100 100 100 100 100 100 95 91 98 15 48 98 14 57 78 72 78 5 49 99 100 100 100 100 100 100 100 100 100
100 100 100 100 100 100 100 100 100 100 95 92 93 100 100 100 100 99 100 100 100 100 100 100 100 100 100 100 100 100 100 100 100 89 98 97 90 33 82 99 90 33 5 79 36 99 100 100 100 100 100 100 100 100
100 100 100 100 100 100 100 100 100 100 100 100 100 100 100 100 100 100 100 100 100 100 100 100 100 100 100 100 100 100 100 92 100 78 93 98 60 51 81 81 43 25 10 8 39 27 100 100 100 100 100 100 100 100
100 100 100 100 100 100 100 100 100 100 91 100 99 100 100 64 98 100 100 100 100 100 100 100 100 100 100 100 100 100 88 93 94 95 87 51 32 62 83 100 64 84 82 8 5 41 82 38 89 100 100 100 100 100
100 100 100 100 100 100 100 100 100 100 100 100 100 98 97 100 100 100 100 100 100 100 100 100 100 100 100 100 100 88 80 70 94 83 28 12 67 100 91 60 12 46 9 22 74 67 56 39 64 22 9 5 5 5
100 100 100 100 100 100 100 100 100 100 100 100 100 100 100 100 100 100 100 100 100 100 100 100 100 100 100 99 82 65 77 86 50 17 20 55 100 100 82 50 68 76 86 94 95 90 5 28 66 73 46 46 36 61
100 100 100 100 100 100 100 100 100 100 100 100 100 100 100 100 100 100 100 100 100 100 100 100 100 100 98 88 69 38 6 5 59 39 93 86 100 97 85 74 96 96 99 100 76 36 52 48 41 47 58 83 100 74
100 100 100 100 100 100 100 100 100 100 100 100 100 100 100 100 100 100 100 100 100 100 100 100 100 99 82 51 5 6 31 50 91 100 100 100 79 85 63 98 100 98 85 87 61 29 58 66 71 81 85 70 45 25
100 100 100 100 100 100 100 100 100 100 100 100 100 100 100 100 100 100 100 100 100 100 100 100 94 87 37 8 10 5 50 100 100 100 100 99 88 69 59 90 99 68 71 68 65 62 65 68 58 57 72 71 83 100
100 100 100 100 100 100 100 100 100 100 100 100 100 100 100 100 100 100 100 100 100 100 98 69 47 47 27 32 30 67 100 98 81 94 83 87 89 80 77 89 71 70 84 79 75 69 52 49 85 78 75 75 99 100
100 100 100 100 100 100 100 100 100 100 100 100 100 100 100 100 100 100 100 100 100 98 54 65 17 16 35 40 36 45 69 64 32 72 86 98 78 82 74 69 63 65 94 89 74 64 58 72 64 83 99 98 100 100
100 100 100 100 100 100 100 100 100 100 100 100 100 100 100 100 100 100 100 100 100 51 78 54 47 38 63 70 47 9 31 6 13 8 56 80 91 100 98 86 37 53 52 70 87 66 64 100 100 98 85 100 98 98
100 100 100 100 100 100 100 100 100 100 100 100 100 100 100 100 100 100 100 100 79 66 54 27 8 74 7 6 5 5 7 5 5 46 73 100 100 100 87 79 68 95 100 98 100 100 100 100 100 100 100 100 100 98
100 100 100 100 100 94 100 100 100 100 100 100 100 100 100 100 100 100 96 42 50 78 58 40 47 12 5 5 5 5 5 5 16 75 98 100 100 98 98 97 96 98 99 94 100 100 100 98 97 100 100 100 100 100
96 99 100 100 100 100 100 100 100 100 100 100 100 100 100 98 78 70 68 70 34 29 80 68 49 27 9 5 5 84 32 7 88 100 100 100 96 94 99 98 100 98 98 90 93 97 100 100 99 100 100 100 98 99
100 100 100 100 100 100 100 100 100 100 100 99 92 83 98 81 93 70 62 75 80 100 88 98 79 76 69 65 61 100 98 47 100 100 100 91 84 99 92 99 92 97 96 95 100 100 100 100 100 100 100 100 100 99
95 100 100 100 93 90 63 73 97 89 82 96 92 82 74 87 74 20 29 100 99 98 100 100 100 88 96 88 90 100 100 65 42 39 69 80 88 98 92 99 96 93 91 97 100 100 100 100 100 100 100 99 100 100
6 54 76 70 88 80 85 73 41 76 85 36 86 93 93 100 79 23 92 100 96 95 93 97 95 84 38 78 100 100 100 100 88 31 96 90 75 86 94 95 95 92 90 97 100 100 100 100 100 100 99 100 100 100
5 58 32 68 100 96 99 82 79 30 54 71 95 96 100 75 58 86 99 92 100 94 98 96 100 96 69 90 96 100 99 98 100 93 94 94 100 99 93 87 97 100 100 100 100 100 100 100 100 100 100 100 100 100
98 98 72 99 100 99 94 59 34 16 5 35 74 60 100 64 90 85 89 91 97 100 98 99 100 100 100 100 100 100 100 100 98 99 100 100 100 100 100 89 98 100 100 100 100 100 100 100 97 100 99 100 100 100
69 81 88 88 86 49 32 72 84 96 28 55 22 43 36 85 99 100 97 97 98 98 94 100 100 100 100 100 100 100 100 100 100 100 100 100 100 100 98 96 100 100 100 100 100 100 100 100 100 99 98 100 100 76
91 100 90 78 88 95 96 98 98 94 93 82 94 92 89 96 100 100 100 100 100 100 100 100 100 100 100 100 100 100 100 95 85 93 98 100 100 99 91 91 100 100 100 100 100 98 99 100 100 99 96 95 70 52
91 92 89 76 91 97 100 100 100 100 100 100 100 99 100 100 98 100 100 100 100 100 100 98 100 100 100 100 100 100 100 97 100 100 100 100 100 100 100 100 100 100 100 100 99 99 100 100 100 95 81 21 30 6
99 99 100 100 100 100 100 100 98 100 100 100 100 100 100 100 100 100 100 99 100 100 100 100 100 100 100 100 100 100 100 100 100 100 100 100 99 100 100 100 100 100 100 100 100 100 100 100 81 30 5 5 26 52

GFSWCAN_prec_cloud_123.txt.gz
Cloud_Cover
100 100 100 100 100 100 100 100 100 100 100 100 100 100 100 100 100 100 100 100 100 100 100 100 100 100 100 100 100 100 100 100 100 100 100 100 100 100 100 100 100 100 100 100 99 88 100 95 100 98 97 100 100 100
100 100 100 100 100 100 100 100 100 100 100 100 100 100 100 100 100 100 100 100 100 100 100 100 100 100 100 100 100 100 100 100 100 100 100 100 100 100 100 100 100 100 100 98 48 96 95 100 100 86 100 100 100 100
100 100 100 100 100 100 100 100 100 100 100 100 100 100 100 100 100 64 82 97 100 100 100 100 100 100 100 100 100 100 100 100 100 100 100 100 100 100 100 100 100 100 92 90 80 100 100 98 100 100 100 100 100 100
100 100 100 100 100 100 100 100 100 100 100 100 100 100 100 100 100 100 100 100 100 100 100 100 100 100 100 100 100 100 100 100 100 100 100 100 100 100 100 100 100 100 98 98 97 100 93 100 100 100 100 100 100 100
100 100 100 100 100 100 100 100 100 100 100 100 100 100 100 100 100 100 100 100 100 100 100 100 100 100 100 100 100 100 100 100 100 100 100 100 100 100 100 100 100 100 99 98 99 94 99 100 100 100 100 100 100 100
100 100 100 100 100 100 100 100 100 100 100 100 100 100 100 100 100 100 100 100 100 100 100 98 100 100 100 100 100 100 100 100 100 100 100 100 100 100 100 100 100 100 60 99 100 76 100 100 100 100 100 100 100 100
100 100 100 100 100 100 100 100 100 100 100 100 100 100 100 100 100 100 100 97 100 100 100 100 100 100 100 100 100 100 100 100 100 100 100 100 100 100 94 99 98 100 100 100 100 89 100 100 100 100 100 100 100 100
100 100 100 100 100 100 100 100 100 100 100 100 100 100 100 100 100 94 100 100 100 100 100 100 100 100 100 100 100 100 100 100 100 100 100 100 100 93 90 98 96 100 100 100 100 97 100 100 100 100 100 100 100 100
100 100 100 100 100 100 100 100 100 100 100 100 100 100 100 100 100 100 100 100 100 100 100 100 100 100 100 100 100 100 100 100 100 100 100 100 81 80 85 96 100 100 96 100 100 98 100 100 100 100 100 100 100 100
100 100 100 100 100 100 100 100 100 100 100 100 100 100 100 100 100 100 100 100 100 100 100 100 100 100 100 100 100 100 100 100 100 100 100 100 100 15 70 100 100 100 100 88 83 78 100 100 100 100 100 100 100 100
100 100 100 100 100 100 100 100 100 100 100 100 100 100 100 100 100 100 100 100 94 98 90 100 100 100 100 100 100 100 100 100 100 100 100 100 98 37 91 100 100 99 91 89 91 79 100 100 100 100 100 100 100 100
100 100 100 100 100 100 100 100 100 100 100 100 100 100 100 100 100 100 100 100 100 100 100 100 100 100 100 100 100 100 100 100 100 100 99 100 81 64 79 100 100 95 94 92 100 97 97 99 100 100 100 100 100 100
100 100 100 100 100 100 100 100 100 100 100 100 99 93 100 85 85 86 98 100 100 100 100 100 100 100 100 100 100 100 100 100 100 100 89 48 32 67 98 100 100 100 97 92 93 93 83 85 100 100 100 100 100 100
100 100 100 100 100 100 100 100 100 100 99 100 78 98 80 93 100 100 100 100 100 100 100 100 100 100 100 100 100 100 100 100 100 99 95 84 36 98 100 100 72 42 9 53 42 32 67 100 95 63 57 98 100 94
100 100 100 100 100 100 99 100 100 100 100 99 100 92 100 100 100 100 99 96 100 100 100 100 100 100 100 100 100 100 100 100 100 87 87 100 97 100 100 100 99 73 69 99 92 92 90 66 35 77 92 90 86 66
100 100 93 92 100 100 100 96 84 93 94 100 100 100 100 100 100 100 100 100 100 100 100 100 100 100 100 100 100 100 100 100 96 85 100 100 100 100 100 100 81 81 85 84 96 89 90 16 40 85 83 100 90 92
92 100 100 91 73 98 100 80 100 100 100 100 100 100 100 100 100 100 100 99 100 100 100 100 98 100 100 100 100 100 98 92 100 100 100 100 100 100 100 96 96 100 100 100 100 72 60 49 58 44 75 87 77 57
97 82 81 98 58 76 92 99 100 98 100 100 100 100 100 100 100 96 100 100 100 100 100 100 96 100 100 100 100 85 95 100 100 100 100 100 100 100 82 79 100 100 100 100 100 90 74 35 64 67 57 42 49 100
99 96 100 100 95 91 93 95 100 100 100 100 100 100 100 100 100 100 100 100 100 100 100 100 100 100 100 100 94 100 100 100 100 100 100 100 100 99 81 81 100 100 100 91 61 65 55 57 64 66 69 59 100 100
100 100 100 100 95 96 90 98 82 100 100 100 100 100 100 100 100 100 100 100 100 100 100 100 100 100 100 100 100 100 100 99 66 93 100 100 100 99 85 98 100 100 70 63 60 58 59 65 68 78 99 100 100 100
100 100 100 100 100 100 98 100 100 95 100 100 100 100 100 100 100 100 100 100 100 100 100 100 100 100 49 22 60 40 73 46 91 61 74 100 100 99 100 100 100 74 70 70 98 87 86 100 97 100 76 100 96 100
100 100 100 85 99 100 100 88 100 100 100 100 100 100 100 100 100 100 100 100 100 100 100 100 100 76 35 30 6 20 29 11 5 10 28 58 89 98 100 100 100 99 100 98 100 100 98 100 99 98 100 100 100 100
100 100 99 100 100 100 97 98 100 100 100 100 100 100 100 100 100 100 100 100 100 100 100 100 99 34 42 22 7 5 5 5 47 64 63 92 100 100 100 100 100 100 100 100 100 100 100 94 93 100 100 100 100 100
100 100 100 100 100 100 100 100 100 100 100 100 100 100 100 100 100 100 100 100 100 100 100 100 80 49 38 20 65 61 9 69 70 81 81 90 100 100 100 100 100 100 100 100 100 98 90 99 100 100 100 100 100 100
93 100 100 100 100 100 100 100 100 100 100 100 100 100 100 100 100 100 100 100 100 100 100 100 100 100 100 100 85 43 11 82 100 76 90 94 100 100 100 100 100 100 97 99 98 100 100 100 100 100 100 100 99 98
99 100 95 100 100 100 100 100 100 100 100 100 100 100 100 100 100 100 100 100 100 100 100 100 100 100 96 99 96 86 66 100 100 100 93 100 100 100 100 100 100 100 100 99 100 100 100 100 100 100 100 100 100 100
30 64 58 72 95 100 100 100 100 100 100 100 100 100 100 94 86 80 100 100 100 100 97 100 100 100 100 96 82 83 100 100 100 100 100 95 96 100 100 100 100 99 100 100 100 100 100 100 100 100 100 100 100 100
8 46 53 71 94 75 100 72 87 96 81 60 50 87 95 96 94 99 100 100 100 100 100 97 95 100 100 100 100 100 100 100 100 100 98 89 92 96 100 99 99 99 100 100 100 100 100 100 100 100 100 100 100 94
66 62 54 92 82 77 79 66 70 61 17 40 97 98 87 48 96 98 98 98 97 100 100 100 100 100 100 100 100 100 100 100 99 99 100 99 100 100 100 100 100 100 97 93 92 100 100 99 99 96 96 89 74 95
70 87 82 88 53 7 79 95 100 100 17 59 26 23 46 94 100 90 88 100 99 100 100 100 100 100 100 100 100 100 100 100 100 100 100 100 100 100 100 100 100 100 95 100 100 100 99 97 89 71 62 78 100 100
88 100 100 96 94 98 100 100 100 98 97 85 94 90 98 100 100 100 100 100 100 100 100 100 100 100 100 100 100 100 100 100 98 94 93 97 100 100 100 100 100 100 100 100 100 100 92 73 62 52 16 17 9 52
100 100 100 97 100 100 92 100 100 100 100 100 100 99 100 98 100 100 100 100 100 100 100 100 100 100 100 100 99 99 98 98 100 100 100 100 100 96 100 100 100 100 100 100 100 100 88 61 44 5 5 5 12 58
100 100 100 100 99 96 100 100 100 100 100 100 100 100 100 100 100 100 100 100 100 100 100 100 100 100 100 100 100 100 100 100 100 100 100 100 100 100 100 100 100 100 100 100 100 86 76 63 55 50 5 5 51 72

GFSWCAN_prec_cloud_126.txt.gz
Cloud_Cover
5 5 5 55 98 100 94 100 61 99 100 100 100 100 100 100 100 100 100 100 57 10 40 60 100 100 92 100 97 100 100 100 100 100 100 100 100 100 100 100 100 100 100 100 100 100 100 100 100 100 80 86 100 91
8 40 100 100 100 100 100 100 100 100 100 50 29 91 100 100 100 100 100 87 17 97 100 17 100 99 100 100 100 100 100 100 100 100 100 100 100 100 100 100 100 100 100 100 100 100 100 100 100 91 100 77 82 100
100 100 100 100 100 100 100 100 100 100 100 100 80 100 100 100 100 100 100 100 100 100 100 58 100 100 100 100 100 100 100 100 100 100 99 99 100 100 100 100 100 100 100 100 100 100 99 100 100 100 100 99 100 100
100 100 100 100 100 100 100 100 100 100 100 100 100 100 100 100 100 100 100 100 100 33 87 100 100 100 100 100 100 100 100 100 100 100 100 100 100 100 100 100 100 100 100 100 100 96 100 100 100 100 100 100 100 100
100 100 100 100 100 100 100 100 100 100 100 100 100 100 100 100 100 100 100 100 98 100 100 100 100 100 100 100 100 100 100 100 100 100 100 100 100 100 100 100 100 100 100 100 92 11 68 94 100 94 94 100 100 100
100 100 100 100 100 100 100 100 100 100 100 100 100 100 100 100 100 96 100 100 99 100 100 100 100 100 100 100 100 100 100 100 100 100 100 100 100 100 100 100 100 100 100 74 91 74 72 100 100 95 98 100 100 100
100 100 100 100 100 100 100 100 100 100 100 100 100 100 100 100 100 100 100 100 100 100 100 100 100 100 100 100 100 100 100 100 100 100 100 100 100 100 100 100 100 98 100 100 97 87 100 92 89 100 100 100 100 100
100 100 100 100 100 100 100 100 100 100 100 100 100 100 100 100 100 100 100 100 100 100 100 100 100 100 100 100 100 100 100 100 100 100 100 100 100 100 100 100 97 99 100 100 98 86 28 72 95 99 100 100 100 100
100 100 100 100 100 100 100 100 100 100 100 100 100 100 100 100 100 100 100 100 100 100 100 100 100 100 100 100 100 100 100 100 100 100 100 100 100 100 100 100 100 100 92 100 99 70 76 77 76 100 100 100 100 100
100 100 100 100 100 100 100 100 100 100 100 100 100 100 100 100 100 100 100 100 84 60 100 100 100 100 100 100 100 100 100 100 100 100 100 100 100 100 100 33 89 100 100 100 98 54 13 16 66 100 100 100 100 100
100 100 100 100 100 100 100 100 100 100 100 100 100 100 100 100 90 100 100 72 99 93 99 100 100 100 87 100 100 100 100 100 100 100 100 100 100 100 90 69 54 100 100 71 64 38 40 5 18 100 100 100 100 100
100 100 100 100 100 100 100 100 100 100 100 100 100 100 100 100 100 100 61 78 79 85 98 89 91 100 100 100 100 100 100 100 100 100 100 100 100 96 7 24 100 100 100 100 94 76 64 72 28 100 100 100 100 100
100 100 100 100 100 100 100 100 100 100 100 96 100 100 100 99 96 71 98 100 100 100 100 100 100 100 100 100 100 100 100 100 100 100 100 100 100 86 94 99 100 93 99 100 97 100 100 100 97 99 100 100 100 100
100 100 100 100 100 100 100 100 100 96 100 100 100 100 100 100 100 100 100 100 100 100 100 100 100 100 100 100 100 100 100 100 100 100 100 100 100 94 100 100 100 62 87 100 93 92 42 17 15 45 99 100 100 100
100 100 100 99 100 100 100 100 100 100 100 100 100 100 100 100 100 98 91 99 85 98 100 100 100 100 100 100 100 100 100 100 100 100 100 100 86 82 100 100 100 49 5 10 6 82 85 54 54 77 62 64 40 38
100 100 100 100 100 100 100 98 100 100 100 100 89 100 80 77 86 99 100 98 98 100 100 100 100 100 100 100 100 100 100 100 100 100 100 100 100 100 100 100 45 61 65 93 92 19 20 43 23 57 22 75 100 100
100 100 100 100 100 100 100 85 98 100 100 100 99 100 100 94 100 100 100 100 100 100 100 100 100 100 100 100 100 100 100 100 100 100 100 100 100 100 100 100 100 100 100 100 84 92 99 100 46 61 100 100 100 100
100 99 100 100 100 99 100 100 100 100 100 100 100 100 100 100 100 100 100 92 100 100 100 100 100 100 100 100 100 100 100 100 100 100 100 100 100 100 100 100 100 100 100 100 100 100 100 100 100 100 100 100 90 60
100 85 87 100 100 100 100 96 94 100 100 100 100 100 99 100 100 100 100 100 99 100 100 100 100 100 100 100 100 100 100 100 100 100 100 100 100 100 100 100 99 100 100 100 100 100 100 100 100 100 100 39 68 96
71 8 43 83 98 98 87 100 100 100 100 98 100 100 100 100 100 100 100 100 100 100 100 100 100 100 100 100 100 100 100 100 100 100 100 100 100 100 100 80 74 100 100 100 100 100 100 100 100 100 100 61 100 97
67 10 39 60 66 99 100 100 100 96 100 100 91 100 100 100 100 100 100 100 100 100 100 100 100 99 100 100 100 100 100 100 99 78 100 100 100 100 99 97 98 100 100 100 100 100 85 92 74 100 25 55 90 84
99 92 67 71 92 95 95 78 95 90 100 100 98 100 100 100 100 100 100 100 100 100 100 100 96 100 100 100 100 100 46 20 29 81 95 86 100 100 100 98 100 100 100 100 100 100 87 100 98 78 90 94 93 100
80 88 80 97 88 91 100 84 100 98 100 100 100 100 100 100 100 100 100 100 100 100 100 100 100 100 100 100 78 22 10 47 66 100 91 100 100 100 100 100 100 100 100 100 100 100 100 99 81 94 83 96 100 100
100 100 100 100 100 100 89 100 100 100 99 100 100 100 100 100 100 100 100 100 100 100 100 100 100 100 100 100 66 36 56 89 98 99 100 100 100 100 100 99 100 100 100 100 100 100 98 90 93 100 100 100 100 100
93 100 100 100 92 100 89 100 100 100 100 100 100 100 100 100 100 100 100 100 100 100 100 100 100 100 100 100 100 35 39 87 90 95 100 82 100 100 100 99 100 100 100 100 100 99 99 99 100 100 100 100 100 100
100 100 100 88 100 100 100 100 100 100 100 100 100 100 100 100 100 100 100 100 100 100 100 100 100 100 100 100 93 89 70 85 97 92 98 99 100 99 98 100 100 100 100 99 87 97 100 100 100 99 98 100 100 96
40 64 67 71 95 100 99 97 100 100 100 100 100 100 100 100 100 100 100 100 100 100 100 100 100 99 91 94 81 76 43 61 81 65 96 100 100 100 100 100 100 97 94 99 100 95 92 93 94 100 98 97 98 89
17 13 47 62 90 83 96 68 62 80 85 93 96 100 99 98 100 100 100 100 100 100 96 90 89 100 89 98 92 100 98 79 95 88 80 88 100 100 100 99 93 86 92 96 99 95 90 97 100 100 100 100 100 97
68 56 28 31 51 52 46 42 69 59 19 80 98 95 96 86 98 100 100 100 100 100 100 100 100 100 100 100 100 100 98 90 90 93 98 99 100 100 100 99 90 89 98 98 95 84 93 100 100 100 100 100 100 100
73 69 67 68 15 40 90 96 100 100 63 76 48 27 57 100 100 100 100 100 100 100 100 100 100 100 100 100 100 100 99 96 100 100 94 89 99 97 100 95 99 92 91 94 94 100 100 100 100 100 100 100 100 100
91 100 93 82 84 82 95 100 100 100 100 87 95 93 96 95 98 100 100 100 100 100 100 100 100 100 100 100 100 100 97 97 97 87 68 76 87 94 95 99 100 84 86 100 100 100 100 100 100 100 94 64 48 75
100 100 100 88 92 100 100 100 100 99 100 100 90 98 90 99 100 100 100 98 100 100 100 100 100 100 100 100 98 88 78 93 99 97 96 98 100 99 100 100 100 99 100 100 100 100 100 100 100 79 77 52 21 26
99 100 100 100 98 100 93 91 99 99 99 97 100 100 100 100 100 100 100 100 100 100 100 100 100 100 100 100 100 100 100 100 97 98 100 100 100 100 100 100 100 100 100 100 100 100 100 99 87 89 78 22 5 27